Wetterdaten: Dienstag, 04.09.2018
Datum Zeit Temp. A. Pool Temp. Temp. 5cm Feuchte A. Luftdruck Regen Wind Richtung Richtung Sonnenschein ET UV Solar Taupunkt Windchill Windben Empfang
04.09.2018 00:00 14,8 C 19,4 C 14,4 C 96 % 1013,4 hPa 0,0 l/m 7,3 km/h (2 Bft) SW 227 0 min 0,000 mm 0,0 UV-I 0 W/m 14,2 C 14,3 C 11,3 km/h (2 Bft) 97,87 %
04.09.2018 00:02 14,8 C 19,4 C 15,0 C 96 % 1013,4 hPa 0,0 l/m 8,0 km/h (2 Bft) S-SW 211 0 min 0,000 mm 0,0 UV-I 0 W/m 14,2 C 13,9 C 11,3 km/h (2 Bft) 97,67 %
04.09.2018 00:04 14,8 C 19,4 C 15,0 C 96 % 1013,3 hPa 0,0 l/m 6,6 km/h (2 Bft) SW 216 0 min 0,000 mm 0,0 UV-I 0 W/m 14,2 C 14,7 C 11,3 km/h (2 Bft) 97,14 %
04.09.2018 00:06 14,8 C 19,4 C 15,0 C 96 % 1013,4 hPa 0,0 l/m 6,9 km/h (2 Bft) S-SW 203 0 min 0,000 mm 0,0 UV-I 0 W/m 14,2 C 14,5 C 11,3 km/h (2 Bft) 98,31 %
04.09.2018 00:08 14,8 C 19,4 C 15,0 C 96 % 1013,3 hPa 0,0 l/m 4,6 km/h (1 Bft) SW 221 0 min 0,000 mm 0,0 UV-I 0 W/m 14,2 C 14,8 C 9,7 km/h (2 Bft) 100,00 %
04.09.2018 00:10 14,8 C 19,4 C 14,4 C 96 % 1013,3 hPa 0,2 l/m 6,4 km/h (2 Bft) W-SW 239 0 min 0,000 mm 0,0 UV-I 0 W/m 14,2 C 14,8 C 9,7 km/h (2 Bft) 98,53 %
04.09.2018 00:12 14,8 C 19,4 C 15,0 C 96 % 1013,3 hPa 0,0 l/m 6,6 km/h (2 Bft) W-SW 246 0 min 0,000 mm 0,0 UV-I 0 W/m 14,2 C 14,7 C 11,3 km/h (2 Bft) 100,00 %
04.09.2018 00:14 14,8 C 19,4 C 15,0 C 96 % 1013,3 hPa 0,0 l/m 7,8 km/h (2 Bft) W-SW 244 0 min 0,000 mm 0,0 UV-I 0 W/m 14,2 C 14,0 C 12,9 km/h (3 Bft) 97,87 %
04.09.2018 00:16 14,8 C 19,4 C 15,0 C 96 % 1013,3 hPa 0,0 l/m 7,9 km/h (2 Bft) SW 235 0 min 0,000 mm 0,0 UV-I 0 W/m 14,2 C 13,9 C 11,3 km/h (2 Bft) 100,00 %
04.09.2018 00:18 14,9 C 19,4 C 15,0 C 96 % 1013,2 hPa 0,0 l/m 5,5 km/h (1 Bft) W-SW 254 0 min 0,000 mm 0,0 UV-I 0 W/m 14,3 C 14,9 C 11,3 km/h (2 Bft) 100,00 %
04.09.2018 00:20 14,9 C 19,4 C 15,0 C 96 % 1013,2 hPa 0,0 l/m 6,9 km/h (2 Bft) W-SW 245 0 min 0,000 mm 0,0 UV-I 0 W/m 14,3 C 14,6 C 12,9 km/h (3 Bft) 100,00 %
04.09.2018 00:22 14,8 C 19,4 C 15,0 C 96 % 1013,2 hPa 0,0 l/m 5,6 km/h (1 Bft) W-SW 241 0 min 0,000 mm 0,0 UV-I 0 W/m 14,2 C 14,8 C 9,7 km/h (2 Bft) 100,00 %
04.09.2018 00:24 14,8 C 19,4 C 15,0 C 96 % 1013,2 hPa 0,0 l/m 4,9 km/h (1 Bft) SW 220 0 min 0,000 mm 0,0 UV-I 0 W/m 14,2 C 14,8 C 8,0 km/h (2 Bft) 100,00 %
04.09.2018 00:26 14,9 C 19,4 C 15,0 C 96 % 1013,2 hPa 0,0 l/m 6,1 km/h (2 Bft) SW 231 0 min 0,000 mm 0,0 UV-I 0 W/m 14,3 C 14,9 C 12,9 km/h (3 Bft) 100,00 %
04.09.2018 00:28 14,9 C 19,4 C 15,0 C 96 % 1013,2 hPa 0,0 l/m 7,7 km/h (2 Bft) S-SW 207 0 min 0,000 mm 0,0 UV-I 0 W/m 14,3 C 14,2 C 12,9 km/h (3 Bft) 98,00 %
04.09.2018 00:30 14,9 C 19,4 C 15,0 C 96 % 1013,2 hPa 0,0 l/m 6,5 km/h (2 Bft) SW 234 0 min 0,000 mm 0,0 UV-I 0 W/m 14,3 C 14,9 C 12,9 km/h (3 Bft) 97,87 %
04.09.2018 00:32 14,9 C 19,4 C 15,0 C 96 % 1013,2 hPa 0,0 l/m 7,6 km/h (2 Bft) SW 218 0 min 0,000 mm 0,0 UV-I 0 W/m 14,3 C 14,2 C 12,9 km/h (3 Bft) 100,00 %
04.09.2018 00:34 14,9 C 19,4 C 15,0 C 96 % 1013,2 hPa 0,0 l/m 6,4 km/h (2 Bft) SW 227 0 min 0,000 mm 0,0 UV-I 0 W/m 14,3 C 14,9 C 11,3 km/h (2 Bft) 100,00 %
04.09.2018 00:36 14,9 C 19,4 C 14,4 C 96 % 1013,3 hPa 0,0 l/m 4,7 km/h (1 Bft) SW 217 0 min 0,000 mm 0,0 UV-I 0 W/m 14,3 C 14,9 C 8,0 km/h (2 Bft) 98,11 %
04.09.2018 00:38 14,9 C 19,4 C 15,0 C 96 % 1013,2 hPa 0,0 l/m 5,9 km/h (2 Bft) W-SW 244 0 min 0,000 mm 0,0 UV-I 0 W/m 14,3 C 14,9 C 8,0 km/h (2 Bft) 96,15 %
04.09.2018 00:40 14,9 C 19,4 C 15,0 C 96 % 1013,3 hPa 0,0 l/m 4,0 km/h (1 Bft) SW 236 0 min 0,000 mm 0,0 UV-I 0 W/m 14,3 C 14,9 C 9,7 km/h (2 Bft) 96,77 %
04.09.2018 00:42 14,9 C 19,4 C 15,0 C 96 % 1013,3 hPa 0,0 l/m 5,9 km/h (2 Bft) SW 224 0 min 0,000 mm 0,0 UV-I 0 W/m 14,3 C 14,9 C 11,3 km/h (2 Bft) 96,00 %
04.09.2018 00:44 14,9 C 19,4 C 15,0 C 96 % 1013,3 hPa 0,0 l/m 6,6 km/h (2 Bft) W-SW 240 0 min 0,000 mm 0,0 UV-I 0 W/m 14,3 C 14,8 C 9,7 km/h (2 Bft) 97,37 %
04.09.2018 00:46 14,9 C 19,4 C 15,0 C 96 % 1013,3 hPa 0,0 l/m 7,5 km/h (2 Bft) SW 232 0 min 0,000 mm 0,0 UV-I 0 W/m 14,3 C 14,3 C 11,3 km/h (2 Bft) 96,00 %
04.09.2018 00:48 14,9 C 19,4 C 15,0 C 96 % 1013,2 hPa 0,0 l/m 7,8 km/h (2 Bft) SW 227 0 min 0,000 mm 0,0 UV-I 0 W/m 14,3 C 14,1 C 11,3 km/h (2 Bft) 98,00 %
04.09.2018 00:50 14,9 C 19,4 C 15,0 C 96 % 1013,2 hPa 0,0 l/m 7,8 km/h (2 Bft) SW 233 0 min 0,000 mm 0,0 UV-I 0 W/m 14,3 C 14,1 C 14,5 km/h (3 Bft) 94,34 %
04.09.2018 00:52 14,9 C 19,4 C 15,0 C 96 % 1013,2 hPa 0,0 l/m 7,7 km/h (2 Bft) SW 225 0 min 0,000 mm 0,0 UV-I 0 W/m 14,3 C 14,2 C 11,3 km/h (2 Bft) 97,37 %
04.09.2018 00:54 14,9 C 19,4 C 15,0 C 96 % 1013,2 hPa 0,0 l/m 7,5 km/h (2 Bft) SW 220 0 min 0,000 mm 0,0 UV-I 0 W/m 14,3 C 14,3 C 14,5 km/h (3 Bft) 94,34 %
04.09.2018 00:56 14,9 C 19,4 C 15,0 C 96 % 1013,2 hPa 0,0 l/m 7,0 km/h (2 Bft) SW 228 0 min 0,000 mm 0,0 UV-I 0 W/m 14,3 C 14,6 C 11,3 km/h (2 Bft) 93,62 %
04.09.2018 00:58 14,9 C 19,4 C 15,0 C 96 % 1013,2 hPa 0,0 l/m 7,8 km/h (2 Bft) W-SW 238 0 min 0,000 mm 0,0 UV-I 0 W/m 14,3 C 14,1 C 12,9 km/h (3 Bft) 94,00 %
04.09.2018 01:00 14,9 C 19,4 C 15,0 C 96 % 1013,1 hPa 0,0 l/m 7,0 km/h (2 Bft) SW 225 0 min 0,000 mm 0,0 UV-I 0 W/m 14,3 C 14,6 C 11,3 km/h (2 Bft) 94,44 %
04.09.2018 01:02 14,9 C 19,4 C 15,0 C 96 % 1013,1 hPa 0,0 l/m 9,1 km/h (2 Bft) W-SW 242 0 min 0,000 mm 0,0 UV-I 0 W/m 14,3 C 13,4 C 14,5 km/h (3 Bft) 96,00 %
04.09.2018 01:04 14,9 C 19,4 C 15,0 C 96 % 1013,1 hPa 0,0 l/m 8,3 km/h (2 Bft) W-SW 250 0 min 0,000 mm 0,0 UV-I 0 W/m 14,3 C 13,8 C 12,9 km/h (3 Bft) 91,49 %
04.09.2018 01:06 14,9 C 19,4 C 15,0 C 96 % 1013,1 hPa 0,0 l/m 6,9 km/h (2 Bft) W-SW 240 0 min 0,000 mm 0,0 UV-I 0 W/m 14,3 C 14,6 C 12,9 km/h (3 Bft) 96,00 %
04.09.2018 01:08 14,9 C 19,4 C 15,0 C 96 % 1013,1 hPa 0,0 l/m 7,6 km/h (2 Bft) W-SW 249 0 min 0,000 mm 0,0 UV-I 0 W/m 14,3 C 14,2 C 9,7 km/h (2 Bft) 92,00 %
04.09.2018 01:10 14,9 C 19,4 C 15,0 C 96 % 1013,1 hPa 0,0 l/m 3,1 km/h (1 Bft) W 265 0 min 0,000 mm 0,0 UV-I 0 W/m 14,3 C 14,9 C 8,0 km/h (2 Bft) 95,74 %
04.09.2018 01:12 14,9 C 19,4 C 15,0 C 96 % 1013,1 hPa 0,0 l/m 4,2 km/h (1 Bft) W-SW 254 0 min 0,000 mm 0,0 UV-I 0 W/m 14,3 C 14,9 C 9,7 km/h (2 Bft) 93,10 %
04.09.2018 01:14 14,9 C 19,4 C 14,4 C 96 % 1013,1 hPa 0,0 l/m 3,3 km/h (1 Bft) W-SW 240 0 min 0,000 mm 0,0 UV-I 0 W/m 14,3 C 14,9 C 8,0 km/h (2 Bft) 96,77 %
04.09.2018 01:16 14,9 C 19,4 C 14,4 C 96 % 1013,0 hPa 0,0 l/m 3,9 km/h (1 Bft) W-SW 242 0 min 0,000 mm 0,0 UV-I 0 W/m 14,3 C 14,9 C 8,0 km/h (2 Bft) 93,62 %
04.09.2018 01:18 14,9 C 19,4 C 14,4 C 96 % 1013,0 hPa 0,0 l/m 2,3 km/h (1 Bft) W-SW 238 0 min 0,000 mm 0,0 UV-I 0 W/m 14,3 C 14,9 C 9,7 km/h (2 Bft) 95,12 %
04.09.2018 01:20 14,9 C 19,4 C 14,4 C 96 % 1013,0 hPa 0,0 l/m 4,1 km/h (1 Bft) W-SW 253 0 min 0,000 mm 0,0 UV-I 0 W/m 14,3 C 14,9 C 8,0 km/h (2 Bft) 92,86 %
04.09.2018 01:22 14,9 C 19,4 C 14,4 C 96 % 1013,0 hPa 0,0 l/m 0,0 km/h (0 Bft) W-SW 253 0 min 0,000 mm 0,0 UV-I 0 W/m 14,3 C 14,9 C 1,6 km/h (1 Bft) 95,74 %
04.09.2018 01:24 14,8 C 19,4 C 14,4 C 96 % 1013,0 hPa 0,0 l/m 0,0 km/h (0 Bft) SW 233 0 min 0,000 mm 0,0 UV-I 0 W/m 14,2 C 14,8 C 0,0 km/h (0 Bft) 97,56 %
04.09.2018 01:26 14,8 C 19,4 C 14,4 C 96 % 1012,9 hPa 0,0 l/m 0,0 km/h (0 Bft) W-SW 237 0 min 0,000 mm 0,0 UV-I 0 W/m 14,2 C 14,8 C 0,0 km/h (0 Bft) 97,87 %
04.09.2018 01:28 14,9 C 19,4 C 15,0 C 96 % 1012,9 hPa 0,0 l/m 0,6 km/h (0 Bft) W-SW 238 0 min 0,000 mm 0,0 UV-I 0 W/m 14,3 C 14,9 C 3,2 km/h (1 Bft) 95,74 %
04.09.2018 01:30 14,9 C 19,4 C 15,0 C 96 % 1012,9 hPa 0,0 l/m 2,1 km/h (1 Bft) W-SW 250 0 min 0,000 mm 0,0 UV-I 0 W/m 14,3 C 14,9 C 6,4 km/h (2 Bft) 97,56 %
04.09.2018 01:32 14,9 C 19,4 C 15,0 C 96 % 1012,9 hPa 0,0 l/m 1,3 km/h (1 Bft) SW 223 0 min 0,000 mm 0,0 UV-I 0 W/m 14,3 C 14,9 C 6,4 km/h (2 Bft) 96,23 %
04.09.2018 01:34 14,9 C 19,4 C 15,0 C 96 % 1012,9 hPa 0,0 l/m 4,8 km/h (1 Bft) S-SW 202 0 min 0,000 mm 0,0 UV-I 0 W/m 14,3 C 14,9 C 8,0 km/h (2 Bft) 98,11 %
04.09.2018 01:36 14,9 C 19,4 C 15,0 C 96 % 1012,9 hPa 0,0 l/m 4,3 km/h (1 Bft) SW 220 0 min 0,000 mm 0,0 UV-I 0 W/m 14,3 C 14,9 C 8,0 km/h (2 Bft) 95,12 %
04.09.2018 01:38 14,9 C 19,4 C 15,0 C 96 % 1012,9 hPa 0,0 l/m 5,6 km/h (1 Bft) SW 226 0 min 0,000 mm 0,0 UV-I 0 W/m 14,3 C 14,9 C 9,7 km/h (2 Bft) 98,00 %
04.09.2018 01:40 14,9 C 18,9 C 15,0 C 96 % 1012,9 hPa 0,0 l/m 4,4 km/h (1 Bft) SW 222 0 min 0,000 mm 0,0 UV-I 0 W/m 14,3 C 14,9 C 9,7 km/h (2 Bft) 95,74 %
04.09.2018 01:42 14,9 C 18,9 C 15,0 C 96 % 1012,9 hPa 0,0 l/m 4,7 km/h (1 Bft) SW 230 0 min 0,000 mm 0,0 UV-I 0 W/m 14,3 C 14,9 C 8,0 km/h (2 Bft) 100,00 %
04.09.2018 01:44 14,8 C 19,4 C 15,0 C 96 % 1012,9 hPa 0,0 l/m 5,3 km/h (1 Bft) SW 229 0 min 0,000 mm 0,0 UV-I 0 W/m 14,2 C 14,8 C 8,0 km/h (2 Bft) 96,23 %
04.09.2018 01:46 14,9 C 18,9 C 15,0 C 96 % 1012,9 hPa 0,0 l/m 6,1 km/h (2 Bft) SW 234 0 min 0,000 mm 0,0 UV-I 0 W/m 14,3 C 14,9 C 8,0 km/h (2 Bft) 97,56 %
04.09.2018 01:48 14,8 C 18,9 C 15,0 C 96 % 1012,9 hPa 0,0 l/m 4,1 km/h (1 Bft) SW 225 0 min 0,000 mm 0,0 UV-I 0 W/m 14,2 C 14,8 C 9,7 km/h (2 Bft) 97,87 %
04.09.2018 01:50 14,9 C 18,9 C 15,0 C 96 % 1012,9 hPa 0,0 l/m 4,2 km/h (1 Bft) S-SW 213 0 min 0,000 mm 0,0 UV-I 0 W/m 14,3 C 14,9 C 8,0 km/h (2 Bft) 98,00 %
04.09.2018 01:52 14,9 C 18,9 C 15,0 C 96 % 1012,9 hPa 0,0 l/m 1,6 km/h (1 Bft) S-SW 213 0 min 0,000 mm 0,0 UV-I 0 W/m 14,3 C 14,9 C 6,4 km/h (2 Bft) 96,00 %
04.09.2018 01:54 14,9 C 18,9 C 15,0 C 96 % 1012,9 hPa 0,0 l/m 0,0 km/h (0 Bft) S-SW 201 0 min 0,000 mm 0,0 UV-I 0 W/m 14,3 C 14,9 C 0,0 km/h (0 Bft) 97,87 %
04.09.2018 01:56 14,9 C 18,9 C 15,0 C 96 % 1012,8 hPa 0,0 l/m 1,5 km/h (1 Bft) SW 215 0 min 0,000 mm 0,0 UV-I 0 W/m 14,3 C 14,9 C 6,4 km/h (2 Bft) 96,00 %
04.09.2018 01:58 14,9 C 18,9 C 15,0 C 96 % 1012,9 hPa 0,0 l/m 0,0 km/h (0 Bft) S-SW 213 0 min 0,000 mm 0,0 UV-I 0 W/m 14,3 C 14,9 C 0,0 km/h (0 Bft) 95,74 %
04.09.2018 02:00 14,9 C 18,9 C 15,0 C 96 % 1012,9 hPa 0,0 l/m 1,5 km/h (1 Bft) S-SW 210 0 min 0,000 mm 0,0 UV-I 0 W/m 14,3 C 14,9 C 6,4 km/h (2 Bft) 97,37 %
04.09.2018 02:02 14,9 C 18,9 C 15,0 C 96 % 1012,9 hPa 0,0 l/m 0,0 km/h (0 Bft) SW 225 0 min 0,000 mm 0,0 UV-I 0 W/m 14,3 C 14,9 C 0,0 km/h (0 Bft) 95,74 %
04.09.2018 02:04 14,9 C 18,9 C 15,0 C 96 % 1012,9 hPa 0,0 l/m 2,9 km/h (1 Bft) SW 215 0 min 0,000 mm 0,0 UV-I 0 W/m 14,3 C 14,9 C 8,0 km/h (2 Bft) 96,23 %
04.09.2018 02:06 14,9 C 18,9 C 15,0 C 96 % 1012,9 hPa 0,0 l/m 2,9 km/h (1 Bft) SW 215 0 min 0,000 mm 0,0 UV-I 0 W/m 14,3 C 14,9 C 8,0 km/h (2 Bft) 97,87 %
04.09.2018 02:08 14,9 C 18,9 C 15,0 C 96 % 1012,8 hPa 0,0 l/m 2,6 km/h (1 Bft) SW 221 0 min 0,000 mm 0,0 UV-I 0 W/m 14,3 C 14,9 C 6,4 km/h (2 Bft) 95,74 %
04.09.2018 02:10 14,9 C 18,9 C 15,0 C 96 % 1012,9 hPa 0,0 l/m 3,5 km/h (1 Bft) S-SW 203 0 min 0,000 mm 0,0 UV-I 0 W/m 14,3 C 14,9 C 8,0 km/h (2 Bft) 94,74 %
04.09.2018 02:12 14,9 C 18,9 C 15,0 C 96 % 1012,8 hPa 0,0 l/m 2,3 km/h (1 Bft) SW 227 0 min 0,000 mm 0,0 UV-I 0 W/m 14,3 C 14,9 C 6,4 km/h (2 Bft) 98,11 %
04.09.2018 02:14 14,9 C 18,9 C 15,0 C 96 % 1012,8 hPa 0,0 l/m 4,1 km/h (1 Bft) SW 216 0 min 0,000 mm 0,0 UV-I 0 W/m 14,3 C 14,9 C 6,4 km/h (2 Bft) 93,62 %
04.09.2018 02:16 14,9 C 18,9 C 15,0 C 96 % 1012,8 hPa 0,0 l/m 3,5 km/h (1 Bft) SW 217 0 min 0,000 mm 0,0 UV-I 0 W/m 14,3 C 14,9 C 6,4 km/h (2 Bft) 97,56 %
04.09.2018 02:18 14,9 C 18,9 C 15,0 C 96 % 1012,8 hPa 0,0 l/m 3,5 km/h (1 Bft) S-SW 209 0 min 0,000 mm 0,0 UV-I 0 W/m 14,3 C 14,9 C 6,4 km/h (2 Bft) 96,00 %
04.09.2018 02:20 14,8 C 18,9 C 15,0 C 96 % 1012,8 hPa 0,0 l/m 1,6 km/h (1 Bft) SW 221 0 min 0,000 mm 0,0 UV-I 0 W/m 14,2 C 14,8 C 6,4 km/h (2 Bft) 91,49 %
04.09.2018 02:22 14,9 C 18,9 C 15,0 C 96 % 1012,9 hPa 0,0 l/m 1,1 km/h (1 Bft) SW 230 0 min 0,000 mm 0,0 UV-I 0 W/m 14,3 C 14,9 C 6,4 km/h (2 Bft) 97,92 %
04.09.2018 02:24 14,9 C 18,9 C 15,0 C 96 % 1012,9 hPa 0,0 l/m 2,7 km/h (1 Bft) SW 214 0 min 0,000 mm 0,0 UV-I 0 W/m 14,3 C 14,9 C 6,4 km/h (2 Bft) 98,00 %
04.09.2018 02:26 14,9 C 18,9 C 15,0 C 96 % 1012,8 hPa 0,0 l/m 0,3 km/h (0 Bft) SW 234 0 min 0,000 mm 0,0 UV-I 0 W/m 14,3 C 14,9 C 4,8 km/h (1 Bft) 97,56 %
04.09.2018 02:28 14,9 C 18,9 C 15,0 C 96 % 1012,8 hPa 0,0 l/m 0,8 km/h (0 Bft) SW 221 0 min 0,000 mm 0,0 UV-I 0 W/m 14,3 C 14,9 C 6,4 km/h (2 Bft) 100,00 %
04.09.2018 02:30 14,8 C 18,9 C 15,0 C 96 % 1012,8 hPa 0,0 l/m 0,0 km/h (0 Bft) W-SW 238 0 min 0,000 mm 0,0 UV-I 0 W/m 14,2 C 14,8 C 0,0 km/h (0 Bft) 100,00 %
04.09.2018 02:32 14,9 C 18,9 C 15,0 C 96 % 1012,8 hPa 0,0 l/m 0,0 km/h (0 Bft) W-SW 258 0 min 0,000 mm 0,0 UV-I 0 W/m 14,3 C 14,9 C 0,0 km/h (0 Bft) 100,00 %
04.09.2018 02:34 14,9 C 18,9 C 15,0 C 96 % 1012,8 hPa 0,0 l/m 0,0 km/h (0 Bft) W 271 0 min 0,000 mm 0,0 UV-I 0 W/m 14,3 C 14,9 C 0,0 km/h (0 Bft) 100,00 %
04.09.2018 02:36 14,9 C 18,9 C 15,0 C 96 % 1012,8 hPa 0,0 l/m 0,3 km/h (0 Bft) W 268 0 min 0,000 mm 0,0 UV-I 0 W/m 14,3 C 14,9 C 3,2 km/h (1 Bft) 100,00 %
04.09.2018 02:38 14,9 C 18,9 C 15,0 C 96 % 1012,7 hPa 0,0 l/m 0,0 km/h (0 Bft) W 269 0 min 0,000 mm 0,0 UV-I 0 W/m 14,3 C 14,9 C 1,6 km/h (1 Bft) 100,00 %
04.09.2018 02:40 14,9 C 18,9 C 15,0 C 96 % 1012,7 hPa 0,0 l/m 0,0 km/h (0 Bft) W-SW 258 0 min 0,000 mm 0,0 UV-I 0 W/m 14,3 C 14,9 C 0,0 km/h (0 Bft) 100,00 %
04.09.2018 02:42 14,9 C 18,9 C 15,0 C 96 % 1012,7 hPa 0,0 l/m 0,0 km/h (0 Bft) W-SW 258 0 min 0,000 mm 0,0 UV-I 0 W/m 14,3 C 14,9 C 0,0 km/h (0 Bft) 100,00 %
04.09.2018 02:44 14,9 C 18,9 C 15,0 C 96 % 1012,7 hPa 0,0 l/m 0,0 km/h (0 Bft) W-SW 258 0 min 0,000 mm 0,0 UV-I 0 W/m 14,3 C 14,9 C 1,6 km/h (1 Bft) 100,00 %
04.09.2018 02:46 14,9 C 18,9 C 15,0 C 96 % 1012,7 hPa 0,0 l/m 2,0 km/h (1 Bft) W-SW 253 0 min 0,000 mm 0,0 UV-I 0 W/m 14,3 C 14,9 C 6,4 km/h (2 Bft) 100,00 %
04.09.2018 02:48 14,9 C 18,9 C 15,0 C 96 % 1012,7 hPa 0,0 l/m 1,8 km/h (1 Bft) W 261 0 min 0,000 mm 0,0 UV-I 0 W/m 14,3 C 14,9 C 6,4 km/h (2 Bft) 98,00 %
04.09.2018 02:50 14,9 C 18,9 C 15,0 C 96 % 1012,7 hPa 0,0 l/m 0,0 km/h (0 Bft) W 263 0 min 0,000 mm 0,0 UV-I 0 W/m 14,3 C 14,9 C 0,0 km/h (0 Bft) 100,00 %
04.09.2018 02:52 14,9 C 18,9 C 15,0 C 96 % 1012,7 hPa 0,0 l/m 0,0 km/h (0 Bft) W 263 0 min 0,000 mm 0,0 UV-I 0 W/m 14,3 C 14,9 C 0,0 km/h (0 Bft) 97,14 %
04.09.2018 02:54 14,9 C 18,9 C 15,0 C 96 % 1012,7 hPa 0,0 l/m 1,9 km/h (1 Bft) W 259 0 min 0,000 mm 0,0 UV-I 0 W/m 14,3 C 14,9 C 6,4 km/h (2 Bft) 96,00 %
04.09.2018 02:56 14,8 C 18,9 C 15,0 C 96 % 1012,8 hPa 0,0 l/m 1,5 km/h (1 Bft) W 260 0 min 0,000 mm 0,0 UV-I 0 W/m 14,2 C 14,8 C 6,4 km/h (2 Bft) 97,87 %
04.09.2018 02:58 14,8 C 18,9 C 15,0 C 96 % 1012,7 hPa 0,0 l/m 1,0 km/h (0 Bft) W 267 0 min 0,000 mm 0,0 UV-I 0 W/m 14,2 C 14,8 C 6,4 km/h (2 Bft) 98,00 %
04.09.2018 03:00 14,8 C 18,9 C 15,0 C 96 % 1012,7 hPa 0,0 l/m 0,8 km/h (0 Bft) W 271 0 min 0,000 mm 0,0 UV-I 0 W/m 14,2 C 14,8 C 6,4 km/h (2 Bft) 98,00 %
04.09.2018 03:02 14,8 C 18,9 C 15,0 C 96 % 1012,7 hPa 0,0 l/m 0,5 km/h (0 Bft) W 269 0 min 0,000 mm 0,0 UV-I 0 W/m 14,2 C 14,8 C 4,8 km/h (1 Bft) 94,87 %
04.09.2018 03:04 14,8 C 18,9 C 15,0 C 96 % 1012,6 hPa 0,0 l/m 0,0 km/h (0 Bft) W 270 0 min 0,000 mm 0,0 UV-I 0 W/m 14,2 C 14,8 C 0,0 km/h (0 Bft) 96,55 %
04.09.2018 03:06 14,8 C 18,9 C 15,0 C 96 % 1012,7 hPa 0,0 l/m 0,0 km/h (0 Bft) W 277 0 min 0,000 mm 0,0 UV-I 0 W/m 14,2 C 14,8 C 0,0 km/h (0 Bft) 96,92 %
04.09.2018 03:08 14,8 C 18,9 C 15,0 C 96 % 1012,7 hPa 0,0 l/m 0,6 km/h (0 Bft) W 261 0 min 0,000 mm 0,0 UV-I 0 W/m 14,2 C 14,8 C 4,8 km/h (1 Bft) 98,00 %
04.09.2018 03:10 14,8 C 18,9 C 14,4 C 96 % 1012,7 hPa 0,0 l/m 0,0 km/h (0 Bft) W 263 0 min 0,000 mm 0,0 UV-I 0 W/m 14,2 C 14,8 C 0,0 km/h (0 Bft) 98,11 %
04.09.2018 03:12 14,8 C 18,9 C 14,4 C 96 % 1012,7 hPa 0,0 l/m 3,7 km/h (1 Bft) W-SW 256 0 min 0,000 mm 0,0 UV-I 0 W/m 14,2 C 14,8 C 11,3 km/h (2 Bft) 96,15 %
04.09.2018 03:14 14,7 C 18,9 C 14,4 C 96 % 1012,7 hPa 0,0 l/m 3,3 km/h (1 Bft) W 267 0 min 0,000 mm 0,0 UV-I 0 W/m 14,1 C 14,7 C 9,7 km/h (2 Bft) 98,53 %
04.09.2018 03:16 14,7 C 18,9 C 14,4 C 96 % 1012,6 hPa 0,0 l/m 5,1 km/h (1 Bft) W-SW 257 0 min 0,000 mm 0,0 UV-I 0 W/m 14,1 C 14,7 C 11,3 km/h (2 Bft) 97,87 %
04.09.2018 03:18 14,7 C 18,9 C 14,4 C 96 % 1012,7 hPa 0,0 l/m 6,9 km/h (2 Bft) W 279 0 min 0,000 mm 0,0 UV-I 0 W/m 14,1 C 14,4 C 12,9 km/h (3 Bft) 97,37 %
04.09.2018 03:20 14,7 C 18,9 C 14,4 C 96 % 1012,7 hPa 0,0 l/m 5,3 km/h (1 Bft) W-SW 252 0 min 0,000 mm 0,0 UV-I 0 W/m 14,1 C 14,7 C 11,3 km/h (2 Bft) 97,87 %
04.09.2018 03:22 14,7 C 18,9 C 14,4 C 96 % 1012,7 hPa 0,0 l/m 7,6 km/h (2 Bft) W-SW 255 0 min 0,000 mm 0,0 UV-I 0 W/m 14,1 C 14,0 C 12,9 km/h (3 Bft) 97,37 %
04.09.2018 03:24 14,7 C 18,9 C 14,4 C 96 % 1012,7 hPa 0,0 l/m 7,5 km/h (2 Bft) W-SW 244 0 min 0,000 mm 0,0 UV-I 0 W/m 14,1 C 14,1 C 11,3 km/h (2 Bft) 96,43 %
04.09.2018 03:26 14,7 C 18,9 C 14,4 C 96 % 1012,8 hPa 0,0 l/m 6,9 km/h (2 Bft) SW 225 0 min 0,000 mm 0,0 UV-I 0 W/m 14,1 C 14,4 C 11,3 km/h (2 Bft) 100,00 %
04.09.2018 03:28 14,7 C 18,9 C 14,4 C 96 % 1012,8 hPa 0,0 l/m 5,2 km/h (1 Bft) W-SW 240 0 min 0,000 mm 0,0 UV-I 0 W/m 14,1 C 14,7 C 9,7 km/h (2 Bft) 97,87 %
04.09.2018 03:30 14,7 C 18,9 C 14,4 C 96 % 1012,8 hPa 0,0 l/m 6,3 km/h (2 Bft) W-SW 239 0 min 0,000 mm 0,0 UV-I 0 W/m 14,1 C 14,7 C 11,3 km/h (2 Bft) 96,00 %
04.09.2018 03:32 14,7 C 18,9 C 14,4 C 96 % 1012,8 hPa 0,0 l/m 6,0 km/h (2 Bft) SW 233 0 min 0,000 mm 0,0 UV-I 0 W/m 14,1 C 14,7 C 11,3 km/h (2 Bft) 93,62 %
04.09.2018 03:34 14,7 C 18,9 C 14,4 C 96 % 1012,8 hPa 0,0 l/m 1,4 km/h (1 Bft) W-SW 252 0 min 0,000 mm 0,0 UV-I 0 W/m 14,1 C 14,7 C 6,4 km/h (2 Bft) 95,83 %
04.09.2018 03:36 14,7 C 18,9 C 14,4 C 96 % 1012,9 hPa 0,0 l/m 4,3 km/h (1 Bft) W-SW 248 0 min 0,000 mm 0,0 UV-I 0 W/m 14,1 C 14,7 C 8,0 km/h (2 Bft) 96,77 %
04.09.2018 03:38 14,7 C 18,9 C 14,4 C 96 % 1012,9 hPa 0,0 l/m 6,3 km/h (2 Bft) W-SW 238 0 min 0,000 mm 0,0 UV-I 0 W/m 14,1 C 14,7 C 9,7 km/h (2 Bft) 96,15 %
04.09.2018 03:40 14,7 C 18,9 C 14,4 C 96 % 1012,9 hPa 0,0 l/m 2,9 km/h (1 Bft) W-SW 246 0 min 0,000 mm 0,0 UV-I 0 W/m 14,1 C 14,7 C 6,4 km/h (2 Bft) 98,00 %
04.09.2018 03:42 14,7 C 18,9 C 14,4 C 96 % 1012,8 hPa 0,0 l/m 0,9 km/h (0 Bft) W-SW 242 0 min 0,000 mm 0,0 UV-I 0 W/m 14,1 C 14,7 C 6,4 km/h (2 Bft) 97,87 %
04.09.2018 03:44 14,7 C 18,9 C 14,4 C 96 % 1012,8 hPa 0,0 l/m 5,6 km/h (1 Bft) W 265 0 min 0,000 mm 0,0 UV-I 0 W/m 14,1 C 14,7 C 9,7 km/h (2 Bft) 97,22 %
04.09.2018 03:46 14,7 C 18,9 C 14,4 C 96 % 1012,8 hPa 0,0 l/m 6,0 km/h (2 Bft) W-SW 257 0 min 0,000 mm 0,0 UV-I 0 W/m 14,1 C 14,7 C 9,7 km/h (2 Bft) 98,21 %
04.09.2018 03:48 14,7 C 18,9 C 14,4 C 96 % 1012,8 hPa 0,0 l/m 5,8 km/h (2 Bft) SW 234 0 min 0,000 mm 0,0 UV-I 0 W/m 14,1 C 14,7 C 8,0 km/h (2 Bft) 97,37 %
04.09.2018 03:50 14,7 C 18,9 C 14,4 C 96 % 1012,8 hPa 0,0 l/m 4,1 km/h (1 Bft) W-SW 247 0 min 0,000 mm 0,0 UV-I 0 W/m 14,1 C 14,7 C 8,0 km/h (2 Bft) 98,00 %
04.09.2018 03:52 14,7 C 18,9 C 14,4 C 96 % 1012,8 hPa 0,0 l/m 1,1 km/h (1 Bft) SW 235 0 min 0,000 mm 0,0 UV-I 0 W/m 14,1 C 14,7 C 6,4 km/h (2 Bft) 98,11 %
04.09.2018 03:54 14,7 C 18,9 C 14,4 C 96 % 1012,9 hPa 0,0 l/m 0,0 km/h (0 Bft) W-SW 252 0 min 0,000 mm 0,0 UV-I 0 W/m 14,1 C 14,7 C 0,0 km/h (0 Bft) 97,14 %
04.09.2018 03:56 14,6 C 18,9 C 14,4 C 96 % 1012,9 hPa 0,0 l/m 0,0 km/h (0 Bft) SW 230 0 min 0,000 mm 0,0 UV-I 0 W/m 14,0 C 14,6 C 0,0 km/h (0 Bft) 100,00 %
04.09.2018 03:58 14,7 C 18,9 C 14,4 C 96 % 1012,9 hPa 0,0 l/m 0,0 km/h (0 Bft) W 265 0 min 0,000 mm 0,0 UV-I 0 W/m 14,1 C 14,7 C 0,0 km/h (0 Bft) 100,00 %
04.09.2018 04:00 14,7 C 18,9 C 14,4 C 96 % 1012,9 hPa 0,0 l/m 0,0 km/h (0 Bft) W-SW 244 0 min 0,000 mm 0,0 UV-I 0 W/m 14,1 C 14,7 C 0,0 km/h (0 Bft) 97,87 %
04.09.2018 04:02 14,7 C 18,9 C 14,4 C 96 % 1012,9 hPa 0,0 l/m 2,3 km/h (1 Bft) W-SW 239 0 min 0,000 mm 0,0 UV-I 0 W/m 14,1 C 14,7 C 6,4 km/h (2 Bft) 97,44 %
04.09.2018 04:04 14,6 C 18,9 C 14,4 C 96 % 1012,8 hPa 0,0 l/m 2,0 km/h (1 Bft) W-SW 244 0 min 0,000 mm 0,0 UV-I 0 W/m 14,0 C 14,6 C 6,4 km/h (2 Bft) 100,00 %
04.09.2018 04:06 14,6 C 18,9 C 14,4 C 96 % 1012,8 hPa 0,0 l/m 1,1 km/h (1 Bft) W-SW 238 0 min 0,000 mm 0,0 UV-I 0 W/m 14,0 C 14,6 C 8,0 km/h (2 Bft) 97,56 %
04.09.2018 04:08 14,6 C 18,9 C 14,4 C 96 % 1012,8 hPa 0,0 l/m 3,1 km/h (1 Bft) SW 229 0 min 0,000 mm 0,0 UV-I 0 W/m 14,0 C 14,6 C 6,4 km/h (2 Bft) 100,00 %
04.09.2018 04:10 14,6 C 18,9 C 14,4 C 96 % 1012,8 hPa 0,0 l/m 3,1 km/h (1 Bft) SW 228 0 min 0,000 mm 0,0 UV-I 0 W/m 14,0 C 14,6 C 8,0 km/h (2 Bft) 100,00 %
04.09.2018 04:12 14,6 C 18,9 C 14,4 C 96 % 1012,7 hPa 0,0 l/m 3,4 km/h (1 Bft) SW 233 0 min 0,000 mm 0,0 UV-I 0 W/m 14,0 C 14,6 C 6,4 km/h (2 Bft) 100,00 %
04.09.2018 04:15 14,6 C 18,9 C 14,4 C 96 % 1012,7 hPa 0,0 l/m 3,3 km/h (1 Bft) S-SW 211 0 min 0,000 mm 0,0 UV-I 0 W/m 14,0 C 14,6 C 8,0 km/h (2 Bft) 97,37 %
04.09.2018 04:16 14,7 C 18,9 C 14,4 C 96 % 1012,7 hPa 0,0 l/m 0,0 km/h (0 Bft) W-SW 240 0 min 0,000 mm 0,0 UV-I 0 W/m 14,1 C 14,7 C 0,0 km/h (0 Bft) 100,00 %
04.09.2018 04:18 14,7 C 18,9 C 14,4 C 96 % 1012,8 hPa 0,0 l/m 4,7 km/h (1 Bft) W-SW 240 0 min 0,000 mm 0,0 UV-I 0 W/m 14,1 C 14,7 C 8,0 km/h (2 Bft) 100,00 %
04.09.2018 04:20 14,7 C 18,9 C 14,4 C 96 % 1012,8 hPa 0,0 l/m 1,0 km/h (0 Bft) SW 234 0 min 0,000 mm 0,0 UV-I 0 W/m 14,1 C 14,7 C 4,8 km/h (1 Bft) 97,92 %
04.09.2018 04:22 14,7 C 18,9 C 15,0 C 96 % 1012,8 hPa 0,0 l/m 1,7 km/h (1 Bft) W-SW 242 0 min 0,000 mm 0,0 UV-I 0 W/m 14,1 C 14,7 C 8,0 km/h (2 Bft) 100,00 %
04.09.2018 04:24 14,7 C 18,9 C 15,0 C 96 % 1012,8 hPa 0,0 l/m 2,0 km/h (1 Bft) W-SW 242 0 min 0,000 mm 0,0 UV-I 0 W/m 14,1 C 14,7 C 6,4 km/h (2 Bft) 100,00 %
04.09.2018 04:26 14,7 C 18,9 C 15,0 C 96 % 1012,8 hPa 0,0 l/m 2,8 km/h (1 Bft) W-SW 243 0 min 0,000 mm 0,0 UV-I 0 W/m 14,1 C 14,7 C 6,4 km/h (2 Bft) 100,00 %
04.09.2018 04:28 14,7 C 18,9 C 15,0 C 96 % 1012,8 hPa 0,0 l/m 3,5 km/h (1 Bft) W-SW 242 0 min 0,000 mm 0,0 UV-I 0 W/m 14,1 C 14,7 C 6,4 km/h (2 Bft) 100,00 %
04.09.2018 04:30 14,7 C 18,9 C 15,0 C 96 % 1012,8 hPa 0,0 l/m 2,0 km/h (1 Bft) SW 233 0 min 0,000 mm 0,0 UV-I 0 W/m 14,1 C 14,7 C 6,4 km/h (2 Bft) 100,00 %
04.09.2018 04:32 14,7 C 18,9 C 15,0 C 96 % 1012,8 hPa 0,0 l/m 3,5 km/h (1 Bft) S-SW 213 0 min 0,000 mm 0,0 UV-I 0 W/m 14,1 C 14,7 C 8,0 km/h (2 Bft) 100,00 %
04.09.2018 04:34 14,7 C 18,9 C 15,0 C 96 % 1012,8 hPa 0,0 l/m 4,2 km/h (1 Bft) SW 225 0 min 0,000 mm 0,0 UV-I 0 W/m 14,1 C 14,7 C 8,0 km/h (2 Bft) 100,00 %
04.09.2018 04:36 14,7 C 18,9 C 15,0 C 96 % 1012,7 hPa 0,0 l/m 6,0 km/h (2 Bft) W-SW 240 0 min 0,000 mm 0,0 UV-I 0 W/m 14,1 C 14,7 C 8,0 km/h (2 Bft) 97,73 %
04.09.2018 04:38 14,8 C 18,9 C 15,0 C 96 % 1012,8 hPa 0,0 l/m 4,3 km/h (1 Bft) SW 235 0 min 0,000 mm 0,0 UV-I 0 W/m 14,2 C 14,8 C 6,4 km/h (2 Bft) 100,00 %
04.09.2018 04:40 14,8 C 18,9 C 15,0 C 96 % 1012,8 hPa 0,0 l/m 4,3 km/h (1 Bft) W-SW 239 0 min 0,000 mm 0,0 UV-I 0 W/m 14,2 C 14,8 C 8,0 km/h (2 Bft) 100,00 %
04.09.2018 04:42 14,8 C 18,9 C 15,0 C 96 % 1012,8 hPa 0,0 l/m 2,5 km/h (1 Bft) W-SW 237 0 min 0,000 mm 0,0 UV-I 0 W/m 14,2 C 14,8 C 6,4 km/h (2 Bft) 98,00 %
04.09.2018 04:44 14,8 C 18,9 C 15,0 C 96 % 1012,8 hPa 0,0 l/m 0,1 km/h (0 Bft) W-SW 248 0 min 0,000 mm 0,0 UV-I 0 W/m 14,2 C 14,8 C 1,6 km/h (1 Bft) 98,00 %
04.09.2018 04:46 14,8 C 18,9 C 15,0 C 96 % 1012,8 hPa 0,0 l/m 3,4 km/h (1 Bft) W-SW 254 0 min 0,000 mm 0,0 UV-I 0 W/m 14,2 C 14,8 C 11,3 km/h (2 Bft) 100,00 %
04.09.2018 04:48 14,8 C 18,9 C 15,0 C 96 % 1012,8 hPa 0,0 l/m 3,8 km/h (1 Bft) W-SW 250 0 min 0,000 mm 0,0 UV-I 0 W/m 14,2 C 14,8 C 6,4 km/h (2 Bft) 100,00 %
04.09.2018 04:50 14,8 C 18,9 C 15,0 C 96 % 1012,9 hPa 0,0 l/m 1,0 km/h (0 Bft) W-SW 255 0 min 0,000 mm 0,0 UV-I 0 W/m 14,2 C 14,8 C 6,4 km/h (2 Bft) 98,00 %
04.09.2018 04:52 14,8 C 18,9 C 15,0 C 96 % 1012,9 hPa 0,0 l/m 0,4 km/h (0 Bft) W 274 0 min 0,000 mm 0,0 UV-I 0 W/m 14,2 C 14,8 C 6,4 km/h (2 Bft) 97,22 %
04.09.2018 04:54 14,8 C 18,9 C 15,0 C 96 % 1012,8 hPa 0,0 l/m 1,4 km/h (1 Bft) W-SW 257 0 min 0,000 mm 0,0 UV-I 0 W/m 14,2 C 14,8 C 4,8 km/h (1 Bft) 94,00 %
04.09.2018 04:56 14,8 C 18,9 C 15,0 C 96 % 1012,9 hPa 0,0 l/m 1,9 km/h (1 Bft) W 275 0 min 0,000 mm 0,0 UV-I 0 W/m 14,2 C 14,8 C 6,4 km/h (2 Bft) 92,00 %
04.09.2018 04:58 14,8 C 18,9 C 15,0 C 95 % 1012,8 hPa 0,0 l/m 6,1 km/h (2 Bft) SW 223 0 min 0,000 mm 0,0 UV-I 0 W/m 14,0 C 14,8 C 9,7 km/h (2 Bft) 92,00 %
04.09.2018 05:00 14,8 C 18,9 C 15,0 C 95 % 1012,8 hPa 0,0 l/m 8,5 km/h (2 Bft) W-SW 250 0 min 0,000 mm 0,0 UV-I 0 W/m 14,0 C 13,6 C 14,5 km/h (3 Bft) 92,00 %
04.09.2018 05:02 14,9 C 18,9 C 14,4 C 95 % 1012,9 hPa 0,0 l/m 5,7 km/h (1 Bft) W 262 0 min 0,000 mm 0,0 UV-I 0 W/m 14,1 C 14,9 C 11,3 km/h (2 Bft) 93,62 %
04.09.2018 05:04 14,9 C 18,9 C 15,0 C 95 % 1012,9 hPa 0,0 l/m 7,6 km/h (2 Bft) W-SW 240 0 min 0,000 mm 0,0 UV-I 0 W/m 14,1 C 14,2 C 14,5 km/h (3 Bft) 91,49 %
04.09.2018 05:06 14,9 C 18,9 C 15,0 C 95 % 1012,8 hPa 0,0 l/m 7,6 km/h (2 Bft) W 265 0 min 0,000 mm 0,0 UV-I 0 W/m 14,1 C 14,2 C 11,3 km/h (2 Bft) 92,11 %
04.09.2018 05:08 14,9 C 18,9 C 15,0 C 95 % 1012,8 hPa 0,0 l/m 4,7 km/h (1 Bft) W-SW 254 0 min 0,000 mm 0,0 UV-I 0 W/m 14,1 C 14,9 C 11,3 km/h (2 Bft) 92,45 %
04.09.2018 05:10 15,0 C 18,9 C 15,0 C 95 % 1012,7 hPa 0,0 l/m 6,4 km/h (2 Bft) W 259 0 min 0,000 mm 0,0 UV-I 0 W/m 14,2 C 15,0 C 11,3 km/h (2 Bft) 92,11 %
04.09.2018 05:12 15,0 C 18,9 C 15,0 C 95 % 1012,7 hPa 0,0 l/m 8,8 km/h (2 Bft) W 259 0 min 0,000 mm 0,0 UV-I 0 W/m 14,2 C 13,7 C 12,9 km/h (3 Bft) 94,34 %
04.09.2018 05:14 15,0 C 18,9 C 15,0 C 95 % 1012,7 hPa 0,0 l/m 9,2 km/h (2 Bft) W-SW 247 0 min 0,000 mm 0,0 UV-I 0 W/m 14,2 C 13,5 C 12,9 km/h (3 Bft) 92,00 %
04.09.2018 05:16 15,0 C 18,9 C 15,0 C 95 % 1012,7 hPa 0,0 l/m 5,3 km/h (1 Bft) W 270 0 min 0,000 mm 0,0 UV-I 0 W/m 14,2 C 15,0 C 9,7 km/h (2 Bft) 93,62 %
04.09.2018 05:18 14,9 C 18,9 C 15,0 C 95 % 1012,7 hPa 0,0 l/m 6,6 km/h (2 Bft) W-SW 249 0 min 0,000 mm 0,0 UV-I 0 W/m 14,1 C 14,8 C 11,3 km/h (2 Bft) 94,29 %
04.09.2018 05:20 14,9 C 18,9 C 14,4 C 95 % 1012,6 hPa 0,0 l/m 6,1 km/h (2 Bft) W-SW 255 0 min 0,000 mm 0,0 UV-I 0 W/m 14,1 C 14,9 C 11,3 km/h (2 Bft) 92,00 %
04.09.2018 05:22 14,9 C 18,9 C 14,4 C 95 % 1012,6 hPa 0,0 l/m 6,8 km/h (2 Bft) W-SW 250 0 min 0,000 mm 0,0 UV-I 0 W/m 14,1 C 14,7 C 11,3 km/h (2 Bft) 94,64 %
04.09.2018 05:24 15,0 C 18,9 C 15,0 C 95 % 1012,6 hPa 0,0 l/m 7,3 km/h (2 Bft) W 264 0 min 0,000 mm 0,0 UV-I 0 W/m 14,2 C 14,5 C 14,5 km/h (3 Bft) 97,22 %
04.09.2018 05:26 14,9 C 18,9 C 14,4 C 95 % 1012,6 hPa 0,0 l/m 7,8 km/h (2 Bft) W-SW 250 0 min 0,000 mm 0,0 UV-I 0 W/m 14,1 C 14,1 C 12,9 km/h (3 Bft) 96,36 %
04.09.2018 05:28 15,0 C 18,9 C 14,4 C 95 % 1012,6 hPa 0,0 l/m 8,5 km/h (2 Bft) W-SW 246 0 min 0,000 mm 0,0 UV-I 0 W/m 14,2 C 13,8 C 14,5 km/h (3 Bft) 97,62 %
04.09.2018 05:30 14,9 C 18,9 C 14,4 C 94 % 1012,6 hPa 0,0 l/m 7,6 km/h (2 Bft) W 261 0 min 0,000 mm 0,0 UV-I 0 W/m 13,9 C 14,2 C 14,5 km/h (3 Bft) 98,00 %
04.09.2018 05:32 14,9 C 18,9 C 14,4 C 94 % 1012,6 hPa 0,0 l/m 8,6 km/h (2 Bft) SW 232 0 min 0,000 mm 0,0 UV-I 0 W/m 13,9 C 13,7 C 14,5 km/h (3 Bft) 97,37 %
04.09.2018 05:34 14,9 C 18,9 C 14,4 C 94 % 1012,6 hPa 0,0 l/m 6,6 km/h (2 Bft) W-SW 246 0 min 0,000 mm 0,0 UV-I 0 W/m 13,9 C 14,8 C 11,3 km/h (2 Bft) 98,36 %
04.09.2018 05:36 14,9 C 18,9 C 14,4 C 95 % 1012,6 hPa 0,0 l/m 6,8 km/h (2 Bft) W-SW 246 0 min 0,000 mm 0,0 UV-I 0 W/m 14,1 C 14,7 C 12,9 km/h (3 Bft) 97,22 %
04.09.2018 05:38 14,9 C 18,9 C 14,4 C 95 % 1012,6 hPa 0,0 l/m 5,6 km/h (1 Bft) W 261 0 min 0,000 mm 0,0 UV-I 0 W/m 14,1 C 14,9 C 12,9 km/h (3 Bft) 97,87 %
04.09.2018 05:40 14,9 C 18,9 C 14,4 C 95 % 1012,6 hPa 0,0 l/m 7,5 km/h (2 Bft) W-SW 255 0 min 0,000 mm 0,0 UV-I 0 W/m 14,1 C 14,3 C 11,3 km/h (2 Bft) 97,87 %
04.09.2018 05:42 14,9 C 18,9 C 14,4 C 95 % 1012,6 hPa 0,0 l/m 9,0 km/h (2 Bft) W-SW 244 0 min 0,000 mm 0,0 UV-I 0 W/m 14,1 C 13,5 C 16,1 km/h (3 Bft) 94,00 %
04.09.2018 05:44 14,9 C 18,9 C 14,4 C 95 % 1012,6 hPa 0,0 l/m 10,9 km/h (2 Bft) SW 232 0 min 0,000 mm 0,0 UV-I 0 W/m 14,1 C 12,6 C 16,1 km/h (3 Bft) 96,00 %
04.09.2018 05:46 14,8 C 18,9 C 14,4 C 95 % 1012,6 hPa 0,0 l/m 7,3 km/h (2 Bft) W 264 0 min 0,000 mm 0,0 UV-I 0 W/m 14,0 C 14,3 C 12,9 km/h (3 Bft) 98,00 %
04.09.2018 05:48 14,8 C 18,9 C 14,4 C 95 % 1012,7 hPa 0,0 l/m 9,3 km/h (2 Bft) W 259 0 min 0,000 mm 0,0 UV-I 0 W/m 14,0 C 13,2 C 16,1 km/h (3 Bft) 97,37 %
04.09.2018 05:50 14,8 C 18,9 C 14,4 C 95 % 1012,6 hPa 0,0 l/m 7,1 km/h (2 Bft) W 268 0 min 0,000 mm 0,0 UV-I 0 W/m 14,0 C 14,4 C 14,5 km/h (3 Bft) 97,87 %
04.09.2018 05:52 14,8 C 18,9 C 14,4 C 95 % 1012,6 hPa 0,0 l/m 8,6 km/h (2 Bft) W-SW 252 0 min 0,000 mm 0,0 UV-I 0 W/m 14,0 C 13,6 C 12,9 km/h (3 Bft) 98,21 %
04.09.2018 05:54 14,8 C 18,9 C 14,4 C 95 % 1012,6 hPa 0,0 l/m 9,7 km/h (2 Bft) W-SW 250 0 min 0,000 mm 0,0 UV-I 0 W/m 14,0 C 13,0 C 12,9 km/h (3 Bft) 97,56 %
04.09.2018 05:56 14,9 C 18,9 C 14,4 C 95 % 1012,6 hPa 0,0 l/m 11,6 km/h (2 Bft) W-SW 237 0 min 0,000 mm 0,0 UV-I 0 W/m 14,1 C 12,3 C 17,7 km/h (3 Bft) 95,74 %
04.09.2018 05:58 14,9 C 18,9 C 14,4 C 95 % 1012,6 hPa 0,0 l/m 9,5 km/h (2 Bft) W 267 0 min 0,000 mm 0,0 UV-I 0 W/m 14,1 C 13,2 C 12,9 km/h (3 Bft) 96,00 %
04.09.2018 06:00 14,9 C 18,9 C 14,4 C 95 % 1012,6 hPa 0,0 l/m 11,7 km/h (2 Bft) W-SW 251 0 min 0,000 mm 0,0 UV-I 0 W/m 14,1 C 12,3 C 16,1 km/h (3 Bft) 100,00 %
04.09.2018 06:02 14,9 C 18,9 C 14,4 C 95 % 1012,6 hPa 0,0 l/m 8,0 km/h (2 Bft) W 279 0 min 0,000 mm 0,0 UV-I 0 W/m 14,1 C 14,0 C 12,9 km/h (3 Bft) 100,00 %
04.09.2018 06:04 14,9 C 18,9 C 14,4 C 95 % 1012,6 hPa 0,0 l/m 7,6 km/h (2 Bft) W 265 0 min 0,000 mm 0,0 UV-I 0 W/m 14,1 C 14,2 C 14,5 km/h (3 Bft) 97,56 %
04.09.2018 06:06 14,9 C 18,9 C 14,4 C 95 % 1012,7 hPa 0,0 l/m 9,5 km/h (2 Bft) SW 221 0 min 0,000 mm 0,0 UV-I 0 W/m 14,1 C 13,2 C 16,1 km/h (3 Bft) 100,00 %
04.09.2018 06:08 14,9 C 18,9 C 14,4 C 95 % 1012,6 hPa 0,0 l/m 9,5 km/h (2 Bft) S-SW 211 0 min 0,000 mm 0,0 UV-I 0 W/m 14,1 C 13,2 C 16,1 km/h (3 Bft) 100,00 %
04.09.2018 06:10 14,9 C 18,9 C 14,4 C 95 % 1012,6 hPa 0,0 l/m 9,9 km/h (2 Bft) SW 226 0 min 0,000 mm 0,0 UV-I 0 W/m 14,1 C 13,1 C 14,5 km/h (3 Bft) 100,00 %
04.09.2018 06:12 14,9 C 18,9 C 14,4 C 95 % 1012,7 hPa 0,0 l/m 10,2 km/h (2 Bft) W 265 0 min 0,000 mm 0,0 UV-I 0 W/m 14,1 C 12,9 C 16,1 km/h (3 Bft) 100,00 %
04.09.2018 06:14 14,9 C 18,9 C 14,4 C 95 % 1012,7 hPa 0,0 l/m 11,7 km/h (2 Bft) W-NW 282 0 min 0,000 mm 0,0 UV-I 0 W/m 14,1 C 12,3 C 17,7 km/h (3 Bft) 97,56 %
04.09.2018 06:16 14,9 C 18,9 C 14,4 C 95 % 1012,7 hPa 0,0 l/m 10,8 km/h (2 Bft) W 263 0 min 0,000 mm 0,0 UV-I 0 W/m 14,1 C 12,7 C 16,1 km/h (3 Bft) 100,00 %
04.09.2018 06:18 14,9 C 18,9 C 14,4 C 95 % 1012,7 hPa 0,0 l/m 7,9 km/h (2 Bft) W-SW 244 0 min 0,000 mm 0,0 UV-I 0 W/m 14,1 C 14,1 C 14,5 km/h (3 Bft) 100,00 %
04.09.2018 06:20 14,9 C 18,9 C 14,4 C 95 % 1012,7 hPa 0,0 l/m 12,0 km/h (2 Bft) SW 225 0 min 0,000 mm 0,0 UV-I 0 W/m 14,1 C 12,2 C 17,7 km/h (3 Bft) 97,37 %
04.09.2018 06:22 14,9 C 18,9 C 14,4 C 95 % 1012,7 hPa 0,0 l/m 13,4 km/h (3 Bft) SW 233 0 min 0,000 mm 0,0 UV-I 0 W/m 14,1 C 11,6 C 17,7 km/h (3 Bft) 98,21 %
04.09.2018 06:24 14,9 C 18,9 C 14,4 C 95 % 1012,8 hPa 0,0 l/m 8,1 km/h (2 Bft) W-SW 238 0 min 0,000 mm 0,0 UV-I 0 W/m 14,1 C 13,9 C 16,1 km/h (3 Bft) 100,00 %
04.09.2018 06:26 14,9 C 18,9 C 15,0 C 95 % 1012,8 hPa 0,0 l/m 10,5 km/h (2 Bft) SW 230 0 min 0,000 mm 0,0 UV-I 0 W/m 14,1 C 12,8 C 16,1 km/h (3 Bft) 95,59 %
04.09.2018 06:28 14,9 C 18,9 C 15,0 C 95 % 1012,8 hPa 0,0 l/m 8,1 km/h (2 Bft) SW 236 0 min 0,000 mm 0,0 UV-I 4 W/m 14,1 C 13,9 C 14,5 km/h (3 Bft) 95,12 %
04.09.2018 06:30 14,8 C 18,9 C 15,0 C 95 % 1012,8 hPa 0,0 l/m 10,2 km/h (2 Bft) SW 229 0 min 0,000 mm 0,0 UV-I 5 W/m 14,0 C 12,8 C 14,5 km/h (3 Bft) 98,11 %
04.09.2018 06:32 14,8 C 18,9 C 15,0 C 95 % 1012,8 hPa 0,0 l/m 10,9 km/h (2 Bft) W-SW 250 0 min 0,000 mm 0,0 UV-I 5 W/m 14,0 C 12,5 C 16,1 km/h (3 Bft) 97,73 %
04.09.2018 06:34 14,8 C 18,9 C 15,0 C 95 % 1012,8 hPa 0,0 l/m 8,3 km/h (2 Bft) W-SW 238 0 min 0,000 mm 0,0 UV-I 5 W/m 14,0 C 13,7 C 12,9 km/h (3 Bft) 97,56 %
04.09.2018 06:36 14,8 C 18,9 C 15,0 C 95 % 1012,9 hPa 0,0 l/m 8,9 km/h (2 Bft) W-SW 245 0 min 0,000 mm 0,0 UV-I 7 W/m 14,0 C 13,4 C 17,7 km/h (3 Bft) 98,11 %
04.09.2018 06:38 14,8 C 18,9 C 15,0 C 95 % 1012,9 hPa 0,0 l/m 8,0 km/h (2 Bft) SW 218 0 min 0,000 mm 0,0 UV-I 7 W/m 14,0 C 13,9 C 14,5 km/h (3 Bft) 94,74 %
04.09.2018 06:40 14,8 C 18,9 C 15,0 C 95 % 1013,0 hPa 0,0 l/m 8,5 km/h (2 Bft) W 263 0 min 0,000 mm 0,0 UV-I 9 W/m 14,0 C 13,6 C 14,5 km/h (3 Bft) 97,62 %
04.09.2018 06:42 14,8 C 18,9 C 15,0 C 95 % 1012,9 hPa 0,0 l/m 7,6 km/h (2 Bft) W-SW 245 0 min 0,000 mm 0,0 UV-I 10 W/m 14,0 C 14,1 C 12,9 km/h (3 Bft) 98,11 %
04.09.2018 06:44 14,8 C 18,9 C 15,0 C 95 % 1013,0 hPa 0,0 l/m 7,0 km/h (2 Bft) W-SW 240 0 min 0,000 mm 0,0 UV-I 12 W/m 14,0 C 14,5 C 12,9 km/h (3 Bft) 98,08 %
04.09.2018 06:46 14,8 C 18,9 C 15,0 C 95 % 1013,0 hPa 0,0 l/m 6,7 km/h (2 Bft) W-SW 238 0 min 0,000 mm 0,0 UV-I 17 W/m 14,0 C 14,6 C 11,3 km/h (2 Bft) 97,92 %
04.09.2018 06:48 14,8 C 18,9 C 15,0 C 95 % 1013,0 hPa 0,0 l/m 3,3 km/h (1 Bft) W-SW 248 0 min 0,000 mm 0,0 UV-I 20 W/m 14,0 C 14,8 C 11,3 km/h (2 Bft) 100,00 %
04.09.2018 06:50 14,8 C 18,9 C 15,0 C 95 % 1013,0 hPa 0,0 l/m 8,0 km/h (2 Bft) SW 234 0 min 0,000 mm 0,0 UV-I 20 W/m 14,0 C 13,9 C 11,3 km/h (2 Bft) 100,00 %
04.09.2018 06:52 14,8 C 18,9 C 15,0 C 95 % 1013,0 hPa 0,0 l/m 8,2 km/h (2 Bft) W-SW 245 0 min 0,000 mm 0,0 UV-I 18 W/m 14,0 C 13,8 C 12,9 km/h (3 Bft) 100,00 %
04.09.2018 06:54 14,8 C 18,9 C 15,0 C 95 % 1013,1 hPa 0,0 l/m 7,9 km/h (2 Bft) W-SW 239 0 min 0,000 mm 0,0 UV-I 19 W/m 14,0 C 13,9 C 12,9 km/h (3 Bft) 96,23 %
04.09.2018 06:56 14,8 C 18,9 C 15,0 C 95 % 1013,1 hPa 0,0 l/m 4,2 km/h (1 Bft) W-SW 257 0 min 0,000 mm 0,0 UV-I 22 W/m 14,0 C 14,8 C 11,3 km/h (2 Bft) 97,14 %
04.09.2018 06:58 14,8 C 18,9 C 15,0 C 95 % 1013,1 hPa 0,0 l/m 2,2 km/h (1 Bft) SW 225 0 min 0,000 mm 0,0 UV-I 23 W/m 14,0 C 14,8 C 6,4 km/h (2 Bft) 98,00 %
04.09.2018 07:00 14,9 C 18,9 C 15,0 C 95 % 1013,2 hPa 0,0 l/m 3,1 km/h (1 Bft) W-SW 248 0 min 0,000 mm 0,0 UV-I 25 W/m 14,1 C 14,9 C 6,4 km/h (2 Bft) 97,87 %
04.09.2018 07:02 14,9 C 18,9 C 15,0 C 95 % 1013,2 hPa 0,0 l/m 3,3 km/h (1 Bft) W-SW 244 0 min 0,000 mm 0,0 UV-I 27 W/m 14,1 C 14,9 C 11,3 km/h (2 Bft) 96,23 %
04.09.2018 07:04 14,9 C 18,9 C 15,0 C 95 % 1013,2 hPa 0,0 l/m 4,0 km/h (1 Bft) SW 234 0 min 0,000 mm 0,0 UV-I 30 W/m 14,1 C 14,9 C 8,0 km/h (2 Bft) 97,56 %
04.09.2018 07:06 14,9 C 18,9 C 15,0 C 95 % 1013,2 hPa 0,0 l/m 2,8 km/h (1 Bft) W-SW 237 0 min 0,000 mm 0,0 UV-I 33 W/m 14,1 C 14,9 C 6,4 km/h (2 Bft) 98,00 %
04.09.2018 07:08 14,9 C 18,9 C 15,6 C 95 % 1013,3 hPa 0,0 l/m 2,4 km/h (1 Bft) W 261 0 min 0,000 mm 0,0 UV-I 36 W/m 14,1 C 14,9 C 6,4 km/h (2 Bft) 97,56 %
04.09.2018 07:10 15,0 C 18,9 C 15,6 C 95 % 1013,3 hPa 0,0 l/m 0,1 km/h (0 Bft) W-SW 240 0 min 0,000 mm 0,0 UV-I 39 W/m 14,2 C 15,0 C 1,6 km/h (1 Bft) 94,00 %
04.09.2018 07:12 15,0 C 18,9 C 15,6 C 95 % 1013,3 hPa 0,0 l/m 0,0 km/h (0 Bft) W-SW 238 0 min 0,000 mm 0,0 UV-I 47 W/m 14,2 C 15,0 C 0,0 km/h (0 Bft) 95,45 %
04.09.2018 07:14 15,0 C 18,9 C 15,6 C 96 % 1013,3 hPa 0,0 l/m 0,0 km/h (0 Bft) W-SW 239 0 min 0,000 mm 0,0 UV-I 54 W/m 14,4 C 15,0 C 0,0 km/h (0 Bft) 98,00 %
04.09.2018 07:16 15,1 C 18,9 C 16,1 C 96 % 1013,3 hPa 0,0 l/m 0,0 km/h (0 Bft) W-SW 239 0 min 0,000 mm 0,0 UV-I 57 W/m 14,5 C 15,1 C 0,0 km/h (0 Bft) 95,74 %
04.09.2018 07:18 15,1 C 18,9 C 16,1 C 96 % 1013,4 hPa 0,0 l/m 0,0 km/h (0 Bft) W-SW 244 0 min 0,000 mm 0,0 UV-I 56 W/m 14,5 C 15,1 C 0,0 km/h (0 Bft) 98,11 %
04.09.2018 07:20 15,1 C 18,9 C 16,1 C 95 % 1013,4 hPa 0,0 l/m 0,0 km/h (0 Bft) W-SW 238 0 min 0,000 mm 0,0 UV-I 61 W/m 14,3 C 15,1 C 0,0 km/h (0 Bft) 97,37 %
04.09.2018 07:22 15,1 C 18,9 C 16,1 C 95 % 1013,4 hPa 0,0 l/m 0,5 km/h (0 Bft) W-SW 242 0 min 0,000 mm 0,0 UV-I 66 W/m 14,3 C 15,1 C 4,8 km/h (1 Bft) 96,00 %
04.09.2018 07:25 15,2 C 18,9 C 16,1 C 95 % 1013,3 hPa 0,0 l/m 3,4 km/h (1 Bft) W-SW 250 0 min 0,000 mm 0,0 UV-I 71 W/m 14,4 C 15,2 C 8,0 km/h (2 Bft) 94,81 %
04.09.2018 07:26 15,2 C 18,9 C 16,1 C 95 % 1013,3 hPa 0,0 l/m 7,7 km/h (2 Bft) SW 225 0 min 0,000 mm 0,0 UV-I 74 W/m 14,4 C 14,5 C 11,3 km/h (2 Bft) 93,33 %
04.09.2018 07:28 15,2 C 18,9 C 16,1 C 95 % 1013,3 hPa 0,0 l/m 5,7 km/h (1 Bft) SW 223 0 min 0,000 mm 0,0 UV-I 74 W/m 14,4 C 15,2 C 12,9 km/h (3 Bft) 100,00 %
04.09.2018 07:30 15,2 C 18,9 C 16,1 C 95 % 1013,3 hPa 0,0 l/m 1,2 km/h (1 Bft) W-SW 245 0 min 0,000 mm 0,0 UV-I 72 W/m 14,4 C 15,2 C 6,4 km/h (2 Bft) 97,87 %
04.09.2018 07:32 15,2 C 18,9 C 16,1 C 95 % 1013,3 hPa 0,0 l/m 2,0 km/h (1 Bft) W-SW 240 0 min 0,000 mm 0,0 UV-I 71 W/m 14,4 C 15,2 C 6,4 km/h (2 Bft) 98,00 %
04.09.2018 07:34 15,3 C 18,9 C 16,1 C 95 % 1013,3 hPa 0,0 l/m 1,8 km/h (1 Bft) W-SW 242 0 min 0,000 mm 0,0 UV-I 68 W/m 14,5 C 15,3 C 6,4 km/h (2 Bft) 100,00 %
04.09.2018 07:36 15,3 C 18,9 C 16,1 C 95 % 1013,3 hPa 0,0 l/m 4,9 km/h (1 Bft) SW 233 0 min 0,000 mm 0,0 UV-I 69 W/m 14,5 C 15,3 C 12,9 km/h (3 Bft) 100,00 %
04.09.2018 07:38 15,3 C 18,9 C 16,1 C 95 % 1013,3 hPa 0,0 l/m 5,0 km/h (1 Bft) W-SW 238 0 min 0,000 mm 0,0 UV-I 69 W/m 14,5 C 15,3 C 8,0 km/h (2 Bft) 100,00 %
04.09.2018 07:40 15,3 C 18,9 C 16,1 C 95 % 1013,3 hPa 0,0 l/m 6,1 km/h (2 Bft) SW 235 0 min 0,000 mm 0,0 UV-I 68 W/m 14,5 C 15,3 C 9,7 km/h (2 Bft) 98,00 %
04.09.2018 07:42 15,3 C 18,9 C 16,1 C 95 % 1013,3 hPa 0,0 l/m 6,3 km/h (2 Bft) W-SW 240 0 min 0,000 mm 0,0 UV-I 63 W/m 14,5 C 15,3 C 12,9 km/h (3 Bft) 100,00 %
04.09.2018 07:44 15,3 C 18,9 C 16,1 C 95 % 1013,3 hPa 0,0 l/m 6,9 km/h (2 Bft) W-SW 239 0 min 0,000 mm 0,0 UV-I 61 W/m 14,5 C 15,0 C 9,7 km/h (2 Bft) 100,00 %
04.09.2018 07:46 15,3 C 18,9 C 16,1 C 95 % 1013,3 hPa 0,0 l/m 4,3 km/h (1 Bft) SW 223 0 min 0,000 mm 0,0 UV-I 60 W/m 14,5 C 15,3 C 11,3 km/h (2 Bft) 100,00 %
04.09.2018 07:48 15,3 C 18,9 C 16,1 C 95 % 1013,3 hPa 0,0 l/m 2,3 km/h (1 Bft) W-SW 252 0 min 0,000 mm 0,0 UV-I 61 W/m 14,5 C 15,3 C 8,0 km/h (2 Bft) 97,87 %
04.09.2018 07:50 15,3 C 18,9 C 16,1 C 95 % 1013,3 hPa 0,0 l/m 7,9 km/h (2 Bft) W 259 0 min 0,000 mm 0,0 UV-I 61 W/m 14,5 C 14,5 C 14,5 km/h (3 Bft) 97,56 %
04.09.2018 07:52 15,3 C 18,9 C 16,1 C 94 % 1013,3 hPa 0,0 l/m 8,0 km/h (2 Bft) W-SW 246 0 min 0,000 mm 0,0 UV-I 57 W/m 14,3 C 14,4 C 12,9 km/h (3 Bft) 97,56 %
04.09.2018 07:54 15,3 C 18,9 C 16,1 C 94 % 1013,3 hPa 0,0 l/m 8,9 km/h (2 Bft) W-SW 238 0 min 0,000 mm 0,0 UV-I 56 W/m 14,3 C 14,0 C 14,5 km/h (3 Bft) 96,00 %
04.09.2018 07:56 15,3 C 18,9 C 15,6 C 94 % 1013,3 hPa 0,0 l/m 5,4 km/h (1 Bft) W 266 0 min 0,000 mm 0,0 UV-I 54 W/m 14,3 C 15,3 C 9,7 km/h (2 Bft) 97,62 %
04.09.2018 07:58 15,3 C 18,9 C 16,1 C 94 % 1013,3 hPa 0,0 l/m 6,8 km/h (2 Bft) SW 230 0 min 0,000 mm 0,0 UV-I 50 W/m 14,3 C 15,1 C 11,3 km/h (2 Bft) 96,36 %
04.09.2018 08:00 15,3 C 18,9 C 15,6 C 94 % 1013,3 hPa 0,0 l/m 6,7 km/h (2 Bft) W-SW 248 0 min 0,025 mm 0,0 UV-I 47 W/m 14,3 C 15,1 C 11,3 km/h (2 Bft) 97,87 %
04.09.2018 08:02 15,4 C 18,9 C 15,6 C 94 % 1013,3 hPa 0,0 l/m 6,6 km/h (2 Bft) W 261 0 min 0,000 mm 0,0 UV-I 45 W/m 14,4 C 15,3 C 11,3 km/h (2 Bft) 97,92 %
04.09.2018 08:04 15,3 C 18,9 C 15,6 C 94 % 1013,2 hPa 0,0 l/m 6,9 km/h (2 Bft) W 265 0 min 0,000 mm 0,0 UV-I 44 W/m 14,3 C 15,0 C 11,3 km/h (2 Bft) 96,00 %
04.09.2018 08:06 15,3 C 18,9 C 15,6 C 94 % 1013,2 hPa 0,0 l/m 7,0 km/h (2 Bft) SW 225 0 min 0,000 mm 0,0 UV-I 45 W/m 14,3 C 15,0 C 14,5 km/h (3 Bft) 95,74 %
04.09.2018 08:08 15,3 C 18,9 C 15,6 C 94 % 1013,2 hPa 0,0 l/m 6,1 km/h (2 Bft) W-SW 253 0 min 0,000 mm 0,0 UV-I 44 W/m 14,3 C 15,3 C 9,7 km/h (2 Bft) 97,73 %
04.09.2018 08:10 15,3 C 18,9 C 15,6 C 94 % 1013,3 hPa 0,0 l/m 8,2 km/h (2 Bft) W 271 0 min 0,000 mm 0,0 UV-I 43 W/m 14,3 C 14,3 C 12,9 km/h (3 Bft) 94,00 %
04.09.2018 08:12 15,3 C 18,9 C 15,6 C 94 % 1013,3 hPa 0,0 l/m 5,4 km/h (1 Bft) W-SW 246 0 min 0,000 mm 0,0 UV-I 44 W/m 14,3 C 15,3 C 9,7 km/h (2 Bft) 97,56 %
04.09.2018 08:14 15,3 C 18,9 C 15,6 C 94 % 1013,4 hPa 0,0 l/m 2,7 km/h (1 Bft) SW 232 0 min 0,000 mm 0,0 UV-I 44 W/m 14,3 C 15,3 C 8,0 km/h (2 Bft) 100,00 %
04.09.2018 08:16 15,4 C 18,9 C 15,6 C 94 % 1013,4 hPa 0,0 l/m 3,9 km/h (1 Bft) W-SW 251 0 min 0,000 mm 0,0 UV-I 47 W/m 14,4 C 15,4 C 11,3 km/h (2 Bft) 100,00 %
04.09.2018 08:18 15,3 C 18,9 C 15,6 C 93 % 1013,4 hPa 0,0 l/m 2,5 km/h (1 Bft) W 262 0 min 0,000 mm 0,0 UV-I 53 W/m 14,2 C 15,3 C 6,4 km/h (2 Bft) 100,00 %
04.09.2018 08:20 15,3 C 18,9 C 15,6 C 93 % 1013,2 hPa 0,0 l/m 6,0 km/h (2 Bft) W-SW 250 0 min 0,000 mm 0,0 UV-I 57 W/m 14,2 C 15,3 C 12,9 km/h (3 Bft) 100,00 %
04.09.2018 08:22 15,4 C 18,9 C 15,6 C 94 % 1013,3 hPa 0,0 l/m 5,9 km/h (2 Bft) SW 234 0 min 0,000 mm 0,0 UV-I 58 W/m 14,4 C 15,4 C 12,9 km/h (3 Bft) 100,00 %
04.09.2018 08:24 15,4 C 18,9 C 16,1 C 93 % 1013,4 hPa 0,0 l/m 7,0 km/h (2 Bft) W 267 0 min 0,000 mm 0,0 UV-I 60 W/m 14,3 C 15,1 C 9,7 km/h (2 Bft) 100,00 %
04.09.2018 08:26 15,4 C 18,9 C 16,1 C 93 % 1013,4 hPa 0,0 l/m 5,2 km/h (1 Bft) W 263 0 min 0,000 mm 0,0 UV-I 68 W/m 14,3 C 15,4 C 9,7 km/h (2 Bft) 100,00 %
04.09.2018 08:28 15,4 C 18,9 C 16,1 C 93 % 1013,4 hPa 0,0 l/m 6,1 km/h (2 Bft) W-SW 245 0 min 0,000 mm 0,0 UV-I 76 W/m 14,3 C 15,4 C 12,9 km/h (3 Bft) 100,00 %
04.09.2018 08:30 15,5 C 18,9 C 16,1 C 94 % 1013,4 hPa 0,0 l/m 8,1 km/h (2 Bft) W-SW 250 0 min 0,000 mm 0,0 UV-I 78 W/m 14,5 C 14,6 C 11,3 km/h (2 Bft) 100,00 %
04.09.2018 08:32 15,5 C 18,9 C 16,1 C 93 % 1013,3 hPa 0,0 l/m 7,5 km/h (2 Bft) W-SW 246 0 min 0,000 mm 0,0 UV-I 74 W/m 14,4 C 14,9 C 11,3 km/h (2 Bft) 97,37 %
04.09.2018 08:34 15,6 C 18,9 C 16,1 C 94 % 1013,5 hPa 0,0 l/m 6,4 km/h (2 Bft) W-SW 248 0 min 0,000 mm 0,0 UV-I 67 W/m 14,6 C 15,6 C 11,3 km/h (2 Bft) 100,00 %
04.09.2018 08:36 15,6 C 18,9 C 16,1 C 93 % 1013,5 hPa 0,0 l/m 0,6 km/h (0 Bft) W-SW 240 0 min 0,000 mm 0,0 UV-I 77 W/m 14,5 C 15,6 C 8,0 km/h (2 Bft) 100,00 %
04.09.2018 08:38 15,6 C 18,9 C 16,7 C 93 % 1013,5 hPa 0,0 l/m 2,8 km/h (1 Bft) W-SW 240 0 min 0,000 mm 0,0 UV-I 101 W/m 14,5 C 15,6 C 6,4 km/h (2 Bft) 100,00 %
04.09.2018 08:40 15,7 C 18,9 C 16,7 C 93 % 1013,4 hPa 0,0 l/m 5,9 km/h (2 Bft) W-SW 250 0 min 0,000 mm 0,0 UV-I 126 W/m 14,6 C 15,7 C 9,7 km/h (2 Bft) 100,00 %
04.09.2018 08:42 15,7 C 18,9 C 17,2 C 93 % 1013,4 hPa 0,0 l/m 4,5 km/h (1 Bft) W-SW 244 0 min 0,000 mm 0,3 UV-I 146 W/m 14,6 C 15,7 C 6,4 km/h (2 Bft) 100,00 %
04.09.2018 08:44 15,8 C 18,9 C 17,2 C 93 % 1013,4 hPa 0,0 l/m 3,5 km/h (1 Bft) SW 224 0 min 0,000 mm 0,6 UV-I 171 W/m 14,7 C 15,8 C 9,7 km/h (2 Bft) 98,11 %
04.09.2018 08:46 15,8 C 18,9 C 17,8 C 93 % 1013,3 hPa 0,0 l/m 4,6 km/h (1 Bft) W-SW 252 2 min 0,000 mm 0,7 UV-I 229 W/m 14,7 C 15,8 C 11,3 km/h (2 Bft) 100,00 %
04.09.2018 08:48 16,0 C 18,9 C 18,3 C 93 % 1013,4 hPa 0,0 l/m 5,2 km/h (1 Bft) W-SW 244 2 min 0,000 mm 0,8 UV-I 377 W/m 14,9 C 16,0 C 11,3 km/h (2 Bft) 100,00 %
04.09.2018 08:50 16,1 C 18,9 C 17,8 C 93 % 1013,4 hPa 0,0 l/m 7,8 km/h (2 Bft) SW 232 2 min 0,000 mm 0,9 UV-I 412 W/m 15,0 C 15,4 C 12,9 km/h (3 Bft) 100,00 %
04.09.2018 08:52 16,3 C 18,9 C 17,8 C 93 % 1013,4 hPa 0,0 l/m 5,7 km/h (1 Bft) W-SW 246 2 min 0,000 mm 0,9 UV-I 343 W/m 15,2 C 16,3 C 14,5 km/h (3 Bft) 97,73 %
04.09.2018 08:54 16,3 C 18,9 C 17,8 C 92 % 1013,3 hPa 0,0 l/m 10,0 km/h (2 Bft) W-SW 242 2 min 0,000 mm 0,9 UV-I 238 W/m 15,0 C 14,6 C 16,1 km/h (3 Bft) 94,34 %
04.09.2018 08:56 16,4 C 18,9 C 17,2 C 91 % 1013,3 hPa 0,0 l/m 8,0 km/h (2 Bft) W-SW 252 2 min 0,000 mm 1,0 UV-I 382 W/m 14,9 C 15,6 C 12,9 km/h (3 Bft) 92,68 %
04.09.2018 08:58 16,5 C 18,9 C 17,2 C 91 % 1013,4 hPa 0,0 l/m 8,0 km/h (2 Bft) W-SW 248 2 min 0,000 mm 1,0 UV-I 399 W/m 15,0 C 15,7 C 12,9 km/h (3 Bft) 98,11 %
04.09.2018 09:00 16,7 C 18,9 C 17,2 C 91 % 1013,4 hPa 0,0 l/m 8,4 km/h (2 Bft) W-SW 240 2 min 0,077 mm 1,1 UV-I 420 W/m 15,2 C 15,7 C 16,1 km/h (3 Bft) 96,00 %
04.09.2018 09:02 16,8 C 18,9 C 17,8 C 91 % 1013,4 hPa 0,0 l/m 1,4 km/h (1 Bft) W 265 2 min 0,000 mm 1,1 UV-I 451 W/m 15,3 C 16,8 C 6,4 km/h (2 Bft) 94,74 %
04.09.2018 09:04 16,9 C 18,9 C 18,3 C 90 % 1013,4 hPa 0,0 l/m 5,3 km/h (1 Bft) W-SW 250 2 min 0,000 mm 1,1 UV-I 428 W/m 15,2 C 16,9 C 9,7 km/h (2 Bft) 94,34 %
04.09.2018 09:06 17,1 C 18,9 C 18,9 C 90 % 1013,3 hPa 0,0 l/m 6,9 km/h (2 Bft) W-SW 251 2 min 0,000 mm 1,1 UV-I 379 W/m 15,4 C 16,9 C 11,3 km/h (2 Bft) 95,74 %
04.09.2018 09:08 17,1 C 18,9 C 18,9 C 89 % 1013,4 hPa 0,0 l/m 9,6 km/h (2 Bft) W 270 2 min 0,000 mm 1,1 UV-I 325 W/m 15,3 C 15,6 C 19,3 km/h (3 Bft) 91,49 %
04.09.2018 09:10 17,1 C 18,9 C 18,9 C 88 % 1013,3 hPa 0,0 l/m 12,8 km/h (3 Bft) W 269 2 min 0,000 mm 1,2 UV-I 403 W/m 15,1 C 14,4 C 22,5 km/h (4 Bft) 95,12 %
04.09.2018 09:12 17,2 C 18,9 C 18,9 C 88 % 1013,4 hPa 0,0 l/m 11,1 km/h (2 Bft) SW 225 2 min 0,000 mm 1,3 UV-I 444 W/m 15,2 C 15,1 C 20,9 km/h (4 Bft) 92,45 %
04.09.2018 09:15 17,3 C 18,9 C 19,4 C 88 % 1013,4 hPa 0,0 l/m 12,7 km/h (3 Bft) W-SW 251 3 min 0,000 mm 1,3 UV-I 465 W/m 15,3 C 14,7 C 20,9 km/h (4 Bft) 97,06 %
04.09.2018 09:16 17,3 C 18,9 C 19,4 C 88 % 1013,4 hPa 0,0 l/m 7,9 km/h (2 Bft) W-SW 248 1 min 0,000 mm 1,3 UV-I 473 W/m 15,3 C 16,6 C 11,3 km/h (2 Bft) 88,46 %
04.09.2018 09:18 17,3 C 18,9 C 19,4 C 87 % 1013,4 hPa 0,0 l/m 11,2 km/h (2 Bft) W-NW 292 2 min 0,000 mm 1,3 UV-I 476 W/m 15,1 C 15,2 C 20,9 km/h (4 Bft) 95,24 %
04.09.2018 09:20 17,2 C 18,9 C 18,9 C 86 % 1013,4 hPa 0,0 l/m 11,3 km/h (2 Bft) W 260 2 min 0,000 mm 1,2 UV-I 325 W/m 14,8 C 15,1 C 24,1 km/h (4 Bft) 92,00 %
04.09.2018 09:22 17,2 C 18,9 C 18,9 C 87 % 1013,4 hPa 0,0 l/m 12,3 km/h (3 Bft) SW 234 2 min 0,000 mm 1,3 UV-I 316 W/m 15,0 C 14,7 C 19,3 km/h (3 Bft) 92,11 %
04.09.2018 09:25 17,3 C 18,9 C 19,4 C 87 % 1013,5 hPa 0,0 l/m 12,2 km/h (2 Bft) W-SW 253 3 min 0,000 mm 1,4 UV-I 360 W/m 15,1 C 14,9 C 22,5 km/h (4 Bft) 93,67 %
04.09.2018 09:26 17,3 C 18,9 C 19,4 C 87 % 1013,5 hPa 0,0 l/m 13,8 km/h (3 Bft) W-SW 257 1 min 0,000 mm 1,5 UV-I 478 W/m 15,1 C 14,3 C 17,7 km/h (3 Bft) 95,83 %
04.09.2018 09:28 17,4 C 18,9 C 20,0 C 86 % 1013,5 hPa 0,0 l/m 11,2 km/h (2 Bft) W-SW 244 2 min 0,000 mm 1,4 UV-I 443 W/m 15,0 C 15,3 C 19,3 km/h (3 Bft) 95,12 %
04.09.2018 09:30 17,6 C 18,9 C 21,1 C 87 % 1013,4 hPa 0,0 l/m 3,8 km/h (1 Bft) W 263 2 min 0,000 mm 1,5 UV-I 375 W/m 15,4 C 17,6 C 11,3 km/h (2 Bft) 96,00 %
04.09.2018 09:32 17,6 C 18,9 C 22,2 C 87 % 1013,5 hPa 0,0 l/m 3,7 km/h (1 Bft) W-SW 252 2 min 0,000 mm 1,5 UV-I 547 W/m 15,4 C 17,6 C 9,7 km/h (2 Bft) 95,45 %
04.09.2018 09:34 17,7 C 18,9 C 21,7 C 86 % 1013,5 hPa 0,0 l/m 5,4 km/h (1 Bft) SW 233 2 min 0,000 mm 1,4 UV-I 450 W/m 15,3 C 17,7 C 11,3 km/h (2 Bft) 92,00 %
04.09.2018 09:36 17,7 C 18,9 C 20,6 C 86 % 1013,5 hPa 0,0 l/m 4,9 km/h (1 Bft) W-SW 238 0 min 0,000 mm 1,3 UV-I 221 W/m 15,3 C 17,7 C 12,9 km/h (3 Bft) 92,45 %
04.09.2018 09:38 17,7 C 18,9 C 20,0 C 86 % 1013,5 hPa 0,0 l/m 10,4 km/h (2 Bft) W-SW 258 0 min 0,000 mm 1,4 UV-I 246 W/m 15,3 C 15,9 C 17,7 km/h (3 Bft) 97,14 %
04.09.2018 09:40 17,7 C 18,9 C 20,6 C 86 % 1013,4 hPa 0,0 l/m 8,7 km/h (2 Bft) W-SW 253 0 min 0,000 mm 1,5 UV-I 267 W/m 15,3 C 16,6 C 12,9 km/h (3 Bft) 94,34 %
04.09.2018 09:42 17,7 C 18,9 C 21,1 C 85 % 1013,4 hPa 0,0 l/m 8,9 km/h (2 Bft) SW 226 2 min 0,000 mm 1,6 UV-I 362 W/m 15,1 C 16,5 C 19,3 km/h (3 Bft) 97,37 %
04.09.2018 09:44 17,8 C 18,9 C 21,1 C 85 % 1013,4 hPa 0,0 l/m 12,1 km/h (2 Bft) W-SW 250 2 min 0,000 mm 1,7 UV-I 510 W/m 15,2 C 15,5 C 19,3 km/h (3 Bft) 98,31 %
04.09.2018 09:46 17,8 C 18,9 C 21,7 C 84 % 1013,5 hPa 0,0 l/m 13,4 km/h (3 Bft) W-SW 244 2 min 0,000 mm 1,6 UV-I 510 W/m 15,1 C 15,1 C 17,7 km/h (3 Bft) 94,74 %
04.09.2018 09:48 17,8 C 18,9 C 21,7 C 85 % 1013,5 hPa 0,0 l/m 8,4 km/h (2 Bft) W 262 2 min 0,000 mm 1,5 UV-I 510 W/m 15,2 C 16,9 C 14,5 km/h (3 Bft) 98,00 %
04.09.2018 09:50 17,9 C 18,9 C 21,7 C 85 % 1013,5 hPa 0,0 l/m 9,1 km/h (2 Bft) W-SW 242 2 min 0,000 mm 1,5 UV-I 403 W/m 15,3 C 16,7 C 22,5 km/h (4 Bft) 98,00 %
04.09.2018 09:52 17,9 C 18,9 C 22,2 C 84 % 1013,5 hPa 0,0 l/m 11,0 km/h (2 Bft) W 263 2 min 0,000 mm 1,6 UV-I 318 W/m 15,2 C 16,0 C 16,1 km/h (3 Bft) 97,44 %
04.09.2018 09:55 17,9 C 18,9 C 22,2 C 85 % 1013,4 hPa 0,0 l/m 6,2 km/h (2 Bft) S-SW 196 3 min 0,000 mm 1,5 UV-I 323 W/m 15,3 C 17,9 C 16,1 km/h (3 Bft) 98,82 %
04.09.2018 09:56 18,0 C 18,9 C 21,7 C 85 % 1013,4 hPa 0,0 l/m 6,4 km/h (2 Bft) W-SW 238 1 min 0,000 mm 1,4 UV-I 306 W/m 15,4 C 18,0 C 11,3 km/h (2 Bft) 100,00 %
04.09.2018 09:58 18,0 C 18,9 C 21,7 C 84 % 1013,4 hPa 0,0 l/m 3,4 km/h (1 Bft) W-SW 247 0 min 0,000 mm 1,3 UV-I 291 W/m 15,3 C 18,0 C 9,7 km/h (2 Bft) 100,00 %
04.09.2018 10:00 18,0 C 18,9 C 20,6 C 85 % 1013,4 hPa 0,0 l/m 3,5 km/h (1 Bft) SW 232 0 min 0,228 mm 1,3 UV-I 264 W/m 15,4 C 18,0 C 14,5 km/h (3 Bft) 100,00 %
04.09.2018 10:02 17,9 C 18,9 C 20,6 C 84 % 1013,4 hPa 0,0 l/m 7,7 km/h (2 Bft) W 266 0 min 0,000 mm 1,3 UV-I 286 W/m 15,2 C 17,3 C 16,1 km/h (3 Bft) 100,00 %
04.09.2018 10:04 17,9 C 18,9 C 20,6 C 85 % 1013,5 hPa 0,0 l/m 7,6 km/h (2 Bft) W 268 0 min 0,000 mm 1,3 UV-I 267 W/m 15,3 C 17,3 C 14,5 km/h (3 Bft) 100,00 %
04.09.2018 10:06 17,9 C 18,9 C 20,0 C 84 % 1013,5 hPa 0,0 l/m 14,8 km/h (3 Bft) W-SW 254 0 min 0,000 mm 1,2 UV-I 242 W/m 15,2 C 14,8 C 22,5 km/h (4 Bft) 100,00 %
04.09.2018 10:08 17,7 C 18,9 C 19,4 C 83 % 1013,5 hPa 0,0 l/m 13,3 km/h (3 Bft) W-SW 256 0 min 0,000 mm 1,2 UV-I 224 W/m 14,8 C 15,0 C 22,5 km/h (4 Bft) 100,00 %
04.09.2018 10:10 17,6 C 18,9 C 19,4 C 84 % 1013,5 hPa 0,0 l/m 12,2 km/h (2 Bft) W 263 0 min 0,000 mm 1,3 UV-I 227 W/m 14,9 C 15,2 C 17,7 km/h (3 Bft) 100,00 %
04.09.2018 10:12 17,6 C 18,9 C 19,4 C 85 % 1013,5 hPa 0,0 l/m 10,4 km/h (2 Bft) W 261 0 min 0,000 mm 1,4 UV-I 257 W/m 15,0 C 15,8 C 22,5 km/h (4 Bft) 100,00 %
04.09.2018 10:14 17,6 C 18,9 C 19,4 C 84 % 1013,5 hPa 0,0 l/m 14,5 km/h (3 Bft) W 275 0 min 0,000 mm 1,5 UV-I 242 W/m 14,9 C 14,5 C 19,3 km/h (3 Bft) 100,00 %
04.09.2018 10:16 17,6 C 18,9 C 20,0 C 85 % 1013,5 hPa 0,0 l/m 7,7 km/h (2 Bft) W-SW 257 0 min 0,000 mm 1,7 UV-I 319 W/m 15,0 C 17,0 C 16,1 km/h (3 Bft) 100,00 %
04.09.2018 10:18 17,7 C 18,9 C 20,6 C 85 % 1013,5 hPa 0,0 l/m 10,6 km/h (2 Bft) W-NW 283 0 min 0,000 mm 1,8 UV-I 287 W/m 15,1 C 15,9 C 16,1 km/h (3 Bft) 100,00 %
04.09.2018 10:20 17,8 C 18,9 C 21,7 C 85 % 1013,5 hPa 0,0 l/m 7,8 km/h (2 Bft) SW 227 0 min 0,000 mm 2,1 UV-I 292 W/m 15,2 C 17,1 C 12,9 km/h (3 Bft) 97,56 %
04.09.2018 10:22 17,8 C 18,9 C 21,7 C 83 % 1013,6 hPa 0,0 l/m 12,1 km/h (2 Bft) W-SW 253 0 min 0,000 mm 2,0 UV-I 292 W/m 14,9 C 15,5 C 17,7 km/h (3 Bft) 100,00 %
04.09.2018 10:24 17,8 C 18,9 C 22,8 C 84 % 1013,6 hPa 0,0 l/m 2,4 km/h (1 Bft) W 270 0 min 0,000 mm 2,1 UV-I 320 W/m 15,1 C 17,8 C 12,9 km/h (3 Bft) 97,87 %
04.09.2018 10:26 18,1 C 18,9 C 25,6 C 85 % 1013,6 hPa 0,0 l/m 4,1 km/h (1 Bft) W-SW 248 2 min 0,000 mm 2,5 UV-I 517 W/m 15,5 C 18,1 C 11,3 km/h (2 Bft) 98,00 %
04.09.2018 10:28 18,3 C 18,9 C 26,1 C 83 % 1013,5 hPa 0,0 l/m 10,0 km/h (2 Bft) W-SW 257 2 min 0,000 mm 2,4 UV-I 702 W/m 15,4 C 16,8 C 19,3 km/h (3 Bft) 100,00 %
04.09.2018 10:30 18,5 C 18,9 C 26,1 C 83 % 1013,6 hPa 0,0 l/m 10,0 km/h (2 Bft) W-SW 257 2 min 0,000 mm 2,7 UV-I 711 W/m 15,6 C 17,0 C 16,1 km/h (3 Bft) 97,62 %
04.09.2018 10:32 18,4 C 18,9 C 25,0 C 81 % 1013,5 hPa 0,0 l/m 9,8 km/h (2 Bft) W-SW 254 2 min 0,000 mm 2,4 UV-I 700 W/m 15,1 C 16,9 C 14,5 km/h (3 Bft) 100,00 %
04.09.2018 10:34 18,5 C 18,9 C 25,6 C 82 % 1013,5 hPa 0,0 l/m 7,1 km/h (2 Bft) W-SW 254 2 min 0,000 mm 2,4 UV-I 500 W/m 15,4 C 18,2 C 16,1 km/h (3 Bft) 100,00 %
04.09.2018 10:36 18,6 C 18,9 C 26,1 C 82 % 1013,5 hPa 0,0 l/m 6,9 km/h (2 Bft) SW 225 2 min 0,000 mm 2,2 UV-I 469 W/m 15,5 C 18,4 C 14,5 km/h (3 Bft) 100,00 %
04.09.2018 10:38 18,8 C 18,9 C 26,1 C 83 % 1013,5 hPa 0,0 l/m 7,9 km/h (2 Bft) S-SW 212 2 min 0,000 mm 2,4 UV-I 777 W/m 15,8 C 18,1 C 17,7 km/h (3 Bft) 98,00 %
04.09.2018 10:40 18,7 C 18,9 C 24,4 C 81 % 1013,5 hPa 0,0 l/m 16,3 km/h (3 Bft) SW 232 2 min 0,000 mm 1,9 UV-I 352 W/m 15,4 C 15,3 C 20,9 km/h (4 Bft) 100,00 %
04.09.2018 10:42 18,7 C 18,9 C 25,0 C 81 % 1013,6 hPa 0,0 l/m 6,6 km/h (2 Bft) W 265 2 min 0,000 mm 2,3 UV-I 472 W/m 15,4 C 18,6 C 16,1 km/h (3 Bft) 98,21 %
04.09.2018 10:44 18,8 C 19,4 C 25,0 C 82 % 1013,6 hPa 0,0 l/m 8,8 km/h (2 Bft) W-SW 244 2 min 0,000 mm 2,3 UV-I 475 W/m 15,7 C 17,8 C 12,9 km/h (3 Bft) 95,12 %
04.09.2018 10:46 18,8 C 19,4 C 25,0 C 81 % 1013,5 hPa 0,0 l/m 7,8 km/h (2 Bft) W 273 2 min 0,000 mm 2,4 UV-I 408 W/m 15,5 C 18,2 C 14,5 km/h (3 Bft) 94,34 %
04.09.2018 10:48 18,9 C 19,4 C 25,6 C 81 % 1013,5 hPa 0,0 l/m 4,4 km/h (1 Bft) SW 217 2 min 0,000 mm 2,3 UV-I 442 W/m 15,6 C 18,9 C 14,5 km/h (3 Bft) 96,00 %
04.09.2018 10:50 19,1 C 19,4 C 28,3 C 82 % 1013,4 hPa 0,0 l/m 10,8 km/h (2 Bft) W-SW 238 2 min 0,000 mm 2,9 UV-I 748 W/m 16,0 C 17,4 C 17,7 km/h (3 Bft) 93,62 %
04.09.2018 10:52 19,3 C 19,4 C 28,3 C 79 % 1013,4 hPa 0,0 l/m 13,6 km/h (3 Bft) W-NW 292 2 min 0,000 mm 2,8 UV-I 817 W/m 15,6 C 16,8 C 19,3 km/h (3 Bft) 97,56 %
04.09.2018 10:54 19,3 C 19,4 C 28,3 C 80 % 1013,3 hPa 0,0 l/m 10,9 km/h (2 Bft) W 274 2 min 0,000 mm 2,6 UV-I 802 W/m 15,8 C 17,6 C 16,1 km/h (3 Bft) 94,34 %
04.09.2018 10:56 19,3 C 19,4 C 27,8 C 79 % 1013,3 hPa 0,0 l/m 9,7 km/h (2 Bft) S-SW 210 2 min 0,000 mm 2,6 UV-I 661 W/m 15,6 C 18,0 C 16,1 km/h (3 Bft) 95,12 %
04.09.2018 10:58 19,2 C 19,4 C 27,8 C 79 % 1013,2 hPa 0,0 l/m 6,1 km/h (2 Bft) W-SW 253 2 min 0,000 mm 2,7 UV-I 410 W/m 15,5 C 19,2 C 14,5 km/h (3 Bft) 95,74 %
04.09.2018 11:00 19,2 C 19,4 C 27,8 C 80 % 1013,2 hPa 0,0 l/m 5,5 km/h (1 Bft) W 267 2 min 0,280 mm 2,7 UV-I 448 W/m 15,7 C 19,2 C 12,9 km/h (3 Bft) 96,00 %
04.09.2018 11:02 19,2 C 19,4 C 28,3 C 79 % 1013,2 hPa 0,0 l/m 4,3 km/h (1 Bft) W-NW 286 2 min 0,000 mm 2,9 UV-I 471 W/m 15,5 C 19,2 C 11,3 km/h (2 Bft) 92,59 %
04.09.2018 11:04 19,1 C 19,4 C 28,3 C 79 % 1013,2 hPa 0,0 l/m 3,1 km/h (1 Bft) W-SW 244 2 min 0,000 mm 2,5 UV-I 510 W/m 15,4 C 19,1 C 14,5 km/h (3 Bft) 95,31 %
04.09.2018 11:06 19,2 C 19,4 C 27,2 C 80 % 1013,2 hPa 0,0 l/m 16,8 km/h (3 Bft) W 261 2 min 0,000 mm 2,3 UV-I 470 W/m 15,7 C 15,8 C 24,1 km/h (4 Bft) 97,44 %
04.09.2018 11:08 19,0 C 19,4 C 26,1 C 78 % 1013,2 hPa 0,0 l/m 12,4 km/h (3 Bft) W-SW 240 0 min 0,000 mm 2,0 UV-I 361 W/m 15,1 C 16,8 C 17,7 km/h (3 Bft) 98,08 %
04.09.2018 11:10 18,9 C 19,4 C 25,6 C 79 % 1013,2 hPa 0,0 l/m 12,0 km/h (2 Bft) SW 230 0 min 0,000 mm 1,8 UV-I 321 W/m 15,2 C 16,8 C 16,1 km/h (3 Bft) 94,34 %
04.09.2018 11:12 18,9 C 19,4 C 24,4 C 79 % 1013,3 hPa 0,0 l/m 11,0 km/h (2 Bft) SW 232 0 min 0,000 mm 1,8 UV-I 297 W/m 15,2 C 17,1 C 19,3 km/h (3 Bft) 100,00 %
04.09.2018 11:14 18,8 C 19,4 C 23,9 C 78 % 1013,3 hPa 0,0 l/m 10,7 km/h (2 Bft) W 273 0 min 0,000 mm 1,9 UV-I 302 W/m 14,9 C 17,1 C 19,3 km/h (3 Bft) 94,64 %
04.09.2018 11:16 18,8 C 19,4 C 23,3 C 79 % 1013,3 hPa 0,0 l/m 7,3 km/h (2 Bft) W-NW 284 0 min 0,000 mm 2,0 UV-I 328 W/m 15,1 C 18,4 C 14,5 km/h (3 Bft) 100,00 %
04.09.2018 11:19 18,8 C 19,4 C 23,9 C 80 % 1013,3 hPa 0,0 l/m 4,0 km/h (1 Bft) W-SW 241 0 min 0,000 mm 2,1 UV-I 359 W/m 15,3 C 18,8 C 12,9 km/h (3 Bft) 100,00 %
04.09.2018 11:20 18,8 C 19,4 C 23,9 C 80 % 1013,3 hPa 0,0 l/m 0,6 km/h (0 Bft) W 279 0 min 0,000 mm 2,0 UV-I 375 W/m 15,3 C 18,8 C 3,2 km/h (1 Bft) 100,00 %
04.09.2018 11:22 18,9 C 19,4 C 24,4 C 80 % 1013,3 hPa 0,0 l/m 2,9 km/h (1 Bft) W-SW 247 0 min 0,000 mm 2,1 UV-I 376 W/m 15,4 C 18,9 C 11,3 km/h (2 Bft) 100,00 %
04.09.2018 11:24 19,0 C 19,4 C 24,4 C 78 % 1013,3 hPa 0,0 l/m 7,8 km/h (2 Bft) W 264 0 min 0,000 mm 1,6 UV-I 290 W/m 15,1 C 18,4 C 14,5 km/h (3 Bft) 97,37 %
04.09.2018 11:26 18,9 C 19,4 C 23,9 C 78 % 1013,3 hPa 0,0 l/m 6,1 km/h (2 Bft) W 266 0 min 0,000 mm 1,5 UV-I 257 W/m 15,0 C 18,9 C 12,9 km/h (3 Bft) 100,00 %
04.09.2018 11:28 18,8 C 19,4 C 23,3 C 78 % 1013,3 hPa 0,0 l/m 1,8 km/h (1 Bft) W 263 0 min 0,000 mm 1,3 UV-I 216 W/m 14,9 C 18,8 C 6,4 km/h (2 Bft) 100,00 %
04.09.2018 11:30 18,8 C 19,4 C 22,8 C 78 % 1013,3 hPa 0,0 l/m 2,4 km/h (1 Bft) W-NW 282 0 min 0,000 mm 0,9 UV-I 166 W/m 14,9 C 18,8 C 8,0 km/h (2 Bft) 100,00 %
04.09.2018 11:32 18,8 C 19,4 C 22,2 C 79 % 1013,3 hPa 0,0 l/m 5,7 km/h (1 Bft) W 261 0 min 0,000 mm 0,7 UV-I 123 W/m 15,1 C 18,8 C 17,7 km/h (3 Bft) 100,00 %
04.09.2018 11:34 18,7 C 19,4 C 21,1 C 80 % 1013,3 hPa 0,0 l/m 10,7 km/h (2 Bft) W 259 0 min 0,000 mm 0,6 UV-I 102 W/m 15,2 C 17,0 C 16,1 km/h (3 Bft) 100,00 %
04.09.2018 11:36 18,6 C 19,4 C 20,0 C 80 % 1013,3 hPa 0,0 l/m 9,1 km/h (2 Bft) W-SW 246 0 min 0,000 mm 0,6 UV-I 94 W/m 15,1 C 17,4 C 16,1 km/h (3 Bft) 100,00 %
04.09.2018 11:38 18,5 C 19,4 C 20,0 C 80 % 1013,3 hPa 0,0 l/m 6,8 km/h (2 Bft) W-SW 248 0 min 0,000 mm 0,5 UV-I 85 W/m 15,0 C 18,3 C 14,5 km/h (3 Bft) 100,00 %
04.09.2018 11:40 18,4 C 19,4 C 19,4 C 81 % 1013,3 hPa 0,0 l/m 3,5 km/h (1 Bft) NW 323 0 min 0,000 mm 0,6 UV-I 89 W/m 15,1 C 18,4 C 11,3 km/h (2 Bft) 100,00 %
04.09.2018 11:42 18,3 C 19,4 C 19,4 C 82 % 1013,3 hPa 0,0 l/m 1,8 km/h (1 Bft) W-SW 246 0 min 0,000 mm 0,7 UV-I 99 W/m 15,2 C 18,3 C 6,4 km/h (2 Bft) 100,00 %
04.09.2018 11:44 18,2 C 19,4 C 19,4 C 82 % 1013,3 hPa 0,0 l/m 0,3 km/h (0 Bft) W 274 0 min 0,000 mm 0,7 UV-I 113 W/m 15,1 C 18,2 C 3,2 km/h (1 Bft) 100,00 %
04.09.2018 11:46 18,2 C 19,4 C 19,4 C 82 % 1013,3 hPa 0,0 l/m 1,6 km/h (1 Bft) W 265 0 min 0,000 mm 0,7 UV-I 117 W/m 15,1 C 18,2 C 9,7 km/h (2 Bft) 100,00 %
04.09.2018 11:48 18,2 C 19,4 C 19,4 C 82 % 1013,3 hPa 0,0 l/m 0,9 km/h (0 Bft) W-SW 257 0 min 0,000 mm 0,8 UV-I 120 W/m 15,1 C 18,2 C 4,8 km/h (1 Bft) 100,00 %
04.09.2018 11:50 18,2 C 19,4 C 19,4 C 82 % 1013,3 hPa 0,0 l/m 2,4 km/h (1 Bft) W 267 0 min 0,000 mm 0,8 UV-I 127 W/m 15,1 C 18,2 C 9,7 km/h (2 Bft) 98,00 %
04.09.2018 11:52 18,2 C 19,4 C 20,0 C 82 % 1013,3 hPa 0,0 l/m 0,2 km/h (0 Bft) N-NW 331 0 min 0,000 mm 0,8 UV-I 134 W/m 15,1 C 18,2 C 4,8 km/h (1 Bft) 100,00 %
04.09.2018 11:54 18,2 C 19,4 C 20,0 C 82 % 1013,4 hPa 0,0 l/m 0,1 km/h (0 Bft) W 264 0 min 0,000 mm 0,8 UV-I 120 W/m 15,1 C 18,2 C 4,8 km/h (1 Bft) 97,87 %
04.09.2018 11:56 18,2 C 19,4 C 19,4 C 82 % 1013,4 hPa 0,0 l/m 3,8 km/h (1 Bft) W 260 0 min 0,000 mm 0,7 UV-I 109 W/m 15,1 C 18,2 C 11,3 km/h (2 Bft) 95,74 %
04.09.2018 11:58 18,2 C 19,4 C 19,4 C 82 % 1013,3 hPa 0,0 l/m 4,6 km/h (1 Bft) W-SW 238 0 min 0,000 mm 0,7 UV-I 104 W/m 15,1 C 18,2 C 14,5 km/h (3 Bft) 100,00 %
04.09.2018 12:00 18,2 C 19,4 C 19,4 C 82 % 1013,3 hPa 0,0 l/m 10,6 km/h (2 Bft) W 268 0 min 0,000 mm 0,7 UV-I 101 W/m 15,1 C 16,4 C 17,7 km/h (3 Bft) 100,00 %
04.09.2018 12:02 18,2 C 19,4 C 19,4 C 82 % 1013,3 hPa 0,0 l/m 6,2 km/h (2 Bft) W 265 0 min 0,152 mm 0,7 UV-I 104 W/m 15,1 C 18,2 C 11,3 km/h (2 Bft) 95,74 %
04.09.2018 12:04 18,2 C 19,4 C 19,4 C 82 % 1013,3 hPa 0,0 l/m 0,4 km/h (0 Bft) W-NW 298 0 min 0,000 mm 0,8 UV-I 118 W/m 15,1 C 18,2 C 6,4 km/h (2 Bft) 98,00 %
04.09.2018 12:06 18,1 C 19,4 C 19,4 C 83 % 1013,3 hPa 0,0 l/m 0,2 km/h (0 Bft) SW 235 0 min 0,000 mm 1,0 UV-I 133 W/m 15,2 C 18,1 C 6,4 km/h (2 Bft) 100,00 %
04.09.2018 12:08 18,1 C 19,4 C 20,0 C 84 % 1013,3 hPa 0,0 l/m 3,0 km/h (1 Bft) W-SW 246 0 min 0,000 mm 1,1 UV-I 147 W/m 15,4 C 18,1 C 9,7 km/h (2 Bft) 100,00 %
04.09.2018 12:10 18,2 C 19,4 C 20,0 C 84 % 1013,3 hPa 0,0 l/m 1,0 km/h (0 Bft) W 271 0 min 0,000 mm 1,3 UV-I 161 W/m 15,4 C 18,2 C 4,8 km/h (1 Bft) 97,37 %
04.09.2018 12:12 18,2 C 19,4 C 20,6 C 83 % 1013,3 hPa 0,0 l/m 4,5 km/h (1 Bft) SW 232 0 min 0,000 mm 1,6 UV-I 190 W/m 15,3 C 18,2 C 11,3 km/h (2 Bft) 98,00 %
04.09.2018 12:14 18,2 C 19,4 C 21,1 C 83 % 1013,3 hPa 0,0 l/m 7,3 km/h (2 Bft) W-SW 254 0 min 0,000 mm 1,9 UV-I 226 W/m 15,3 C 17,8 C 14,5 km/h (3 Bft) 98,11 %
04.09.2018 12:16 18,3 C 19,4 C 21,7 C 83 % 1013,2 hPa 0,0 l/m 7,8 km/h (2 Bft) W 266 0 min 0,000 mm 2,4 UV-I 270 W/m 15,4 C 17,7 C 11,3 km/h (2 Bft) 97,56 %
04.09.2018 12:18 18,4 C 19,4 C 22,8 C 84 % 1013,2 hPa 0,0 l/m 6,0 km/h (2 Bft) W-SW 244 0 min 0,000 mm 2,8 UV-I 275 W/m 15,6 C 18,4 C 11,3 km/h (2 Bft) 97,56 %
04.09.2018 12:20 18,5 C 19,4 C 22,8 C 82 % 1013,3 hPa 0,0 l/m 8,3 km/h (2 Bft) SW 229 0 min 0,000 mm 2,9 UV-I 251 W/m 15,4 C 17,6 C 12,9 km/h (3 Bft) 97,62 %
04.09.2018 12:22 18,5 C 19,4 C 22,8 C 82 % 1013,3 hPa 0,0 l/m 7,5 km/h (2 Bft) W 265 0 min 0,000 mm 2,4 UV-I 204 W/m 15,4 C 18,0 C 14,5 km/h (3 Bft) 98,28 %
04.09.2018 12:24 18,5 C 19,4 C 22,8 C 82 % 1013,3 hPa 0,0 l/m 7,3 km/h (2 Bft) W-SW 240 0 min 0,000 mm 2,6 UV-I 227 W/m 15,4 C 18,1 C 14,5 km/h (3 Bft) 96,00 %
04.09.2018 12:26 18,6 C 19,4 C 24,4 C 83 % 1013,3 hPa 0,0 l/m 2,6 km/h (1 Bft) W 279 2 min 0,000 mm 3,0 UV-I 468 W/m 15,7 C 18,6 C 9,7 km/h (2 Bft) 97,78 %
04.09.2018 12:28 18,8 C 19,4 C 24,4 C 82 % 1013,3 hPa 0,0 l/m 6,3 km/h (2 Bft) W 269 0 min 0,000 mm 2,7 UV-I 308 W/m 15,7 C 18,8 C 12,9 km/h (3 Bft) 100,00 %
04.09.2018 12:30 18,7 C 19,4 C 23,9 C 81 % 1013,3 hPa 0,0 l/m 5,3 km/h (1 Bft) W 272 0 min 0,000 mm 2,7 UV-I 309 W/m 15,4 C 18,7 C 11,3 km/h (2 Bft) 92,00 %
04.09.2018 12:32 18,7 C 19,4 C 23,9 C 81 % 1013,3 hPa 0,0 l/m 9,7 km/h (2 Bft) W-SW 257 0 min 0,000 mm 2,8 UV-I 343 W/m 15,4 C 17,3 C 14,5 km/h (3 Bft) 96,00 %
04.09.2018 12:34 18,7 C 19,4 C 25,0 C 81 % 1013,3 hPa 0,0 l/m 6,4 km/h (2 Bft) SW 233 2 min 0,000 mm 3,1 UV-I 411 W/m 15,4 C 18,7 C 12,9 km/h (3 Bft) 98,00 %
04.09.2018 12:36 18,9 C 19,4 C 25,6 C 80 % 1013,2 hPa 0,0 l/m 5,2 km/h (1 Bft) W-SW 252 2 min 0,000 mm 3,4 UV-I 470 W/m 15,4 C 18,9 C 9,7 km/h (2 Bft) 97,87 %
04.09.2018 12:39 19,2 C 19,4 C 28,3 C 79 % 1013,3 hPa 0,0 l/m 7,1 km/h (2 Bft) W 269 3 min 0,000 mm 4,0 UV-I 733 W/m 15,5 C 18,9 C 16,1 km/h (3 Bft) 95,52 %
04.09.2018 12:40 19,3 C 19,4 C 30,0 C 80 % 1013,2 hPa 0,0 l/m 9,3 km/h (2 Bft) W 270 1 min 0,000 mm 4,1 UV-I 874 W/m 15,8 C 18,1 C 12,9 km/h (3 Bft) 93,33 %
04.09.2018 12:42 19,7 C 19,4 C 31,7 C 78 % 1013,3 hPa 0,0 l/m 8,3 km/h (2 Bft) W-SW 239 2 min 0,000 mm 3,5 UV-I 958 W/m 15,8 C 18,9 C 14,5 km/h (3 Bft) 98,11 %
04.09.2018 12:44 19,8 C 19,4 C 30,0 C 77 % 1013,2 hPa 0,0 l/m 5,3 km/h (1 Bft) W 261 2 min 0,000 mm 2,4 UV-I 590 W/m 15,6 C 19,8 C 11,3 km/h (2 Bft) 96,23 %
04.09.2018 12:46 19,8 C 19,4 C 27,8 C 77 % 1013,2 hPa 0,0 l/m 5,6 km/h (1 Bft) W 277 0 min 0,000 mm 2,1 UV-I 314 W/m 15,6 C 19,8 C 14,5 km/h (3 Bft) 97,14 %
04.09.2018 12:48 19,6 C 19,4 C 26,7 C 76 % 1013,2 hPa 0,0 l/m 8,6 km/h (2 Bft) W-SW 244 0 min 0,000 mm 2,2 UV-I 335 W/m 15,2 C 18,7 C 14,5 km/h (3 Bft) 98,00 %
04.09.2018 12:50 19,5 C 19,4 C 26,1 C 77 % 1013,2 hPa 0,0 l/m 4,2 km/h (1 Bft) W 278 0 min 0,000 mm 2,3 UV-I 317 W/m 15,4 C 19,5 C 12,9 km/h (3 Bft) 98,11 %
04.09.2018 12:52 19,5 C 19,4 C 25,6 C 77 % 1013,2 hPa 0,0 l/m 10,0 km/h (2 Bft) W-SW 238 0 min 0,000 mm 2,3 UV-I 315 W/m 15,4 C 18,1 C 14,5 km/h (3 Bft) 97,56 %
04.09.2018 12:54 19,4 C 19,4 C 24,4 C 76 % 1013,2 hPa 0,0 l/m 9,7 km/h (2 Bft) W 268 0 min 0,000 mm 2,4 UV-I 329 W/m 15,1 C 18,1 C 16,1 km/h (3 Bft) 97,56 %
04.09.2018 12:56 19,4 C 19,4 C 24,4 C 77 % 1013,1 hPa 0,0 l/m 9,7 km/h (2 Bft) W 261 0 min 0,000 mm 2,4 UV-I 338 W/m 15,3 C 18,1 C 16,1 km/h (3 Bft) 94,34 %
04.09.2018 12:58 19,4 C 19,4 C 24,4 C 77 % 1013,2 hPa 0,0 l/m 5,3 km/h (1 Bft) W 276 0 min 0,000 mm 2,3 UV-I 339 W/m 15,3 C 19,4 C 16,1 km/h (3 Bft) 98,00 %
04.09.2018 13:00 19,5 C 19,4 C 23,9 C 77 % 1013,2 hPa 0,0 l/m 9,0 km/h (2 Bft) W-NW 293 0 min 0,203 mm 2,0 UV-I 301 W/m 15,4 C 18,4 C 16,1 km/h (3 Bft) 98,00 %
04.09.2018 13:02 19,6 C 19,4 C 23,9 C 77 % 1013,3 hPa 0,0 l/m 12,7 km/h (3 Bft) W 267 0 min 0,000 mm 1,8 UV-I 280 W/m 15,5 C 17,4 C 20,9 km/h (4 Bft) 97,56 %
04.09.2018 13:04 19,5 C 19,4 C 23,3 C 76 % 1013,3 hPa 0,0 l/m 11,3 km/h (2 Bft) W-SW 254 0 min 0,000 mm 1,6 UV-I 268 W/m 15,2 C 17,7 C 20,9 km/h (4 Bft) 97,92 %
04.09.2018 13:06 19,4 C 19,4 C 23,3 C 76 % 1013,3 hPa 0,0 l/m 12,1 km/h (2 Bft) SW 235 0 min 0,000 mm 1,6 UV-I 252 W/m 15,1 C 17,3 C 19,3 km/h (3 Bft) 92,00 %
04.09.2018 13:08 19,4 C 19,4 C 22,8 C 76 % 1013,3 hPa 0,0 l/m 10,2 km/h (2 Bft) W-SW 248 0 min 0,000 mm 1,6 UV-I 243 W/m 15,1 C 17,9 C 14,5 km/h (3 Bft) 96,00 %
04.09.2018 13:10 19,3 C 19,4 C 22,8 C 77 % 1013,3 hPa 0,0 l/m 2,8 km/h (1 Bft) W-SW 248 0 min 0,000 mm 1,6 UV-I 242 W/m 15,2 C 19,3 C 11,3 km/h (2 Bft) 100,00 %
04.09.2018 13:12 19,4 C 19,4 C 22,8 C 78 % 1013,3 hPa 0,0 l/m 6,1 km/h (2 Bft) W 262 0 min 0,000 mm 1,8 UV-I 270 W/m 15,5 C 19,4 C 16,1 km/h (3 Bft) 96,23 %
04.09.2018 13:14 19,4 C 19,4 C 23,3 C 78 % 1013,3 hPa 0,0 l/m 4,1 km/h (1 Bft) W-NW 291 0 min 0,000 mm 1,9 UV-I 296 W/m 15,5 C 19,4 C 11,3 km/h (2 Bft) 97,87 %
04.09.2018 13:16 19,4 C 19,4 C 23,3 C 78 % 1013,3 hPa 0,0 l/m 1,9 km/h (1 Bft) W-SW 249 0 min 0,000 mm 2,0 UV-I 297 W/m 15,5 C 19,4 C 12,9 km/h (3 Bft) 98,00 %
04.09.2018 13:19 19,4 C 19,4 C 23,9 C 76 % 1013,3 hPa 0,0 l/m 8,1 km/h (2 Bft) W 263 0 min 0,000 mm 2,0 UV-I 317 W/m 15,1 C 18,7 C 16,1 km/h (3 Bft) 97,01 %
04.09.2018 13:20 19,4 C 19,4 C 23,3 C 77 % 1013,3 hPa 0,0 l/m 9,6 km/h (2 Bft) W 266 0 min 0,000 mm 1,9 UV-I 273 W/m 15,3 C 18,1 C 17,7 km/h (3 Bft) 100,00 %
04.09.2018 13:22 19,4 C 19,4 C 23,3 C 77 % 1013,3 hPa 0,0 l/m 11,4 km/h (2 Bft) W-SW 250 0 min 0,000 mm 1,9 UV-I 268 W/m 15,3 C 17,5 C 17,7 km/h (3 Bft) 97,14 %
04.09.2018 13:24 19,4 C 19,4 C 22,8 C 76 % 1013,3 hPa 0,0 l/m 9,2 km/h (2 Bft) SW 233 0 min 0,000 mm 1,9 UV-I 274 W/m 15,1 C 18,3 C 17,7 km/h (3 Bft) 98,31 %
04.09.2018 13:26 19,4 C 19,4 C 23,3 C 77 % 1013,3 hPa 0,0 l/m 1,7 km/h (1 Bft) W-SW 254 0 min 0,000 mm 2,2 UV-I 311 W/m 15,3 C 19,4 C 6,4 km/h (2 Bft) 97,37 %
04.09.2018 13:28 19,6 C 19,4 C 23,9 C 77 % 1013,3 hPa 0,0 l/m 3,1 km/h (1 Bft) N-NO 22 0 min 0,000 mm 2,5 UV-I 357 W/m 15,5 C 19,6 C 11,3 km/h (2 Bft) 98,11 %
04.09.2018 13:30 19,6 C 19,4 C 24,4 C 77 % 1013,3 hPa 0,0 l/m 3,8 km/h (1 Bft) W-SW 242 0 min 0,000 mm 2,7 UV-I 398 W/m 15,5 C 19,6 C 14,5 km/h (3 Bft) 97,73 %
04.09.2018 13:32 19,7 C 19,4 C 25,0 C 78 % 1013,4 hPa 0,0 l/m 5,2 km/h (1 Bft) W-SW 257 2 min 0,000 mm 2,8 UV-I 424 W/m 15,8 C 19,7 C 14,5 km/h (3 Bft) 96,23 %
04.09.2018 13:34 19,8 C 19,4 C 26,1 C 76 % 1013,3 hPa 0,0 l/m 11,3 km/h (2 Bft) W 268 2 min 0,000 mm 3,0 UV-I 451 W/m 15,4 C 18,0 C 16,1 km/h (3 Bft) 97,87 %
04.09.2018 13:36 19,8 C 19,4 C 26,7 C 76 % 1013,3 hPa 0,0 l/m 11,5 km/h (2 Bft) W 263 2 min 0,000 mm 3,4 UV-I 452 W/m 15,4 C 17,9 C 19,3 km/h (3 Bft) 97,87 %
04.09.2018 13:38 20,0 C 19,4 C 26,7 C 76 % 1013,4 hPa 0,0 l/m 9,3 km/h (2 Bft) W-SW 257 2 min 0,000 mm 3,0 UV-I 430 W/m 15,6 C 18,9 C 16,1 km/h (3 Bft) 96,30 %
04.09.2018 13:40 20,1 C 19,4 C 26,1 C 75 % 1013,4 hPa 0,0 l/m 5,5 km/h (1 Bft) W-SW 251 2 min 0,000 mm 2,9 UV-I 420 W/m 15,5 C 20,1 C 12,9 km/h (3 Bft) 98,39 %
04.09.2018 13:42 20,1 C 19,4 C 26,1 C 75 % 1013,4 hPa 0,0 l/m 6,4 km/h (2 Bft) W-NW 300 2 min 0,000 mm 3,0 UV-I 444 W/m 15,5 C 20,1 C 14,5 km/h (3 Bft) 94,74 %
04.09.2018 13:44 20,0 C 19,4 C 26,1 C 74 % 1013,4 hPa 0,0 l/m 9,0 km/h (2 Bft) W-SW 250 2 min 0,000 mm 3,0 UV-I 446 W/m 15,2 C 19,0 C 17,7 km/h (3 Bft) 96,23 %
04.09.2018 13:46 20,0 C 19,4 C 26,7 C 74 % 1013,4 hPa 0,0 l/m 6,5 km/h (2 Bft) W 276 2 min 0,000 mm 3,1 UV-I 504 W/m 15,2 C 20,0 C 14,5 km/h (3 Bft) 92,45 %
04.09.2018 13:48 20,1 C 19,4 C 27,2 C 75 % 1013,4 hPa 0,0 l/m 4,8 km/h (1 Bft) SW 225 2 min 0,000 mm 3,1 UV-I 520 W/m 15,5 C 20,1 C 14,5 km/h (3 Bft) 95,74 %
04.09.2018 13:50 20,3 C 19,4 C 27,2 C 75 % 1013,4 hPa 0,0 l/m 4,0 km/h (1 Bft) W-SW 243 2 min 0,000 mm 3,0 UV-I 498 W/m 15,7 C 20,3 C 9,7 km/h (2 Bft) 94,74 %
04.09.2018 13:52 20,3 C 19,4 C 26,7 C 74 % 1013,3 hPa 0,0 l/m 10,8 km/h (2 Bft) W-SW 252 2 min 0,000 mm 2,9 UV-I 482 W/m 15,5 C 18,7 C 16,1 km/h (3 Bft) 94,00 %
04.09.2018 13:54 20,3 C 19,4 C 26,7 C 74 % 1013,3 hPa 0,0 l/m 14,1 km/h (3 Bft) W-SW 248 2 min 0,000 mm 2,9 UV-I 478 W/m 15,5 C 17,8 C 27,4 km/h (4 Bft) 90,57 %
04.09.2018 13:56 20,2 C 19,4 C 26,7 C 74 % 1013,3 hPa 0,0 l/m 17,3 km/h (3 Bft) SW 225 2 min 0,000 mm 2,9 UV-I 458 W/m 15,4 C 17,0 C 22,5 km/h (4 Bft) 94,29 %
04.09.2018 13:58 20,2 C 19,4 C 26,1 C 75 % 1013,3 hPa 0,0 l/m 10,4 km/h (2 Bft) W 261 0 min 0,000 mm 2,3 UV-I 389 W/m 15,6 C 18,7 C 20,9 km/h (4 Bft) 94,92 %
04.09.2018 14:00 20,1 C 19,4 C 25,0 C 74 % 1013,3 hPa 0,0 l/m 14,7 km/h (3 Bft) W 259 0 min 0,229 mm 2,1 UV-I 335 W/m 15,3 C 17,4 C 24,1 km/h (4 Bft) 92,68 %
04.09.2018 14:02 20,0 C 19,4 C 24,4 C 75 % 1013,3 hPa 0,0 l/m 11,5 km/h (2 Bft) W 277 0 min 0,000 mm 1,9 UV-I 299 W/m 15,4 C 18,2 C 17,7 km/h (3 Bft) 92,68 %
04.09.2018 14:04 20,0 C 19,4 C 24,4 C 76 % 1013,3 hPa 0,0 l/m 12,1 km/h (2 Bft) W 273 0 min 0,000 mm 1,7 UV-I 280 W/m 15,6 C 18,0 C 19,3 km/h (3 Bft) 97,87 %
04.09.2018 14:06 19,9 C 19,4 C 23,3 C 75 % 1013,3 hPa 0,0 l/m 15,7 km/h (3 Bft) W 279 0 min 0,000 mm 1,6 UV-I 262 W/m 15,3 C 17,0 C 22,5 km/h (4 Bft) 98,00 %
04.09.2018 14:08 19,8 C 19,4 C 23,3 C 75 % 1013,3 hPa 0,0 l/m 14,6 km/h (3 Bft) W 265 0 min 0,000 mm 1,5 UV-I 243 W/m 15,2 C 17,1 C 20,9 km/h (4 Bft) 98,00 %
04.09.2018 14:10 19,7 C 19,4 C 22,8 C 75 % 1013,4 hPa 0,0 l/m 14,0 km/h (3 Bft) W-NW 286 0 min 0,000 mm 1,4 UV-I 226 W/m 15,1 C 17,1 C 17,7 km/h (3 Bft) 98,00 %
04.09.2018 14:12 19,7 C 19,4 C 22,8 C 76 % 1013,3 hPa 0,0 l/m 11,5 km/h (2 Bft) W 265 0 min 0,000 mm 1,4 UV-I 224 W/m 15,3 C 17,8 C 17,7 km/h (3 Bft) 97,87 %
04.09.2018 14:14 19,7 C 19,4 C 22,8 C 76 % 1013,3 hPa 0,0 l/m 13,1 km/h (3 Bft) W 277 0 min 0,000 mm 1,6 UV-I 252 W/m 15,3 C 17,4 C 20,9 km/h (4 Bft) 97,37 %
04.09.2018 14:16 19,7 C 19,4 C 22,8 C 76 % 1013,3 hPa 0,0 l/m 11,8 km/h (2 Bft) W 269 0 min 0,000 mm 1,9 UV-I 301 W/m 15,3 C 17,7 C 17,7 km/h (3 Bft) 97,78 %
04.09.2018 14:18 19,7 C 19,4 C 23,3 C 75 % 1013,3 hPa 0,0 l/m 12,9 km/h (3 Bft) W 276 0 min 0,000 mm 2,1 UV-I 360 W/m 15,1 C 17,4 C 20,9 km/h (4 Bft) 96,00 %
04.09.2018 14:20 19,7 C 19,4 C 23,9 C 75 % 1013,3 hPa 0,0 l/m 10,4 km/h (2 Bft) W 265 0 min 0,000 mm 2,2 UV-I 370 W/m 15,1 C 18,2 C 17,7 km/h (3 Bft) 98,00 %
04.09.2018 14:22 19,8 C 19,4 C 23,9 C 75 % 1013,3 hPa 0,0 l/m 13,1 km/h (3 Bft) W-NW 290 0 min 0,000 mm 2,0 UV-I 335 W/m 15,2 C 17,5 C 20,9 km/h (4 Bft) 100,00 %
04.09.2018 14:24 19,8 C 19,4 C 23,9 C 75 % 1013,3 hPa 0,0 l/m 13,0 km/h (3 Bft) W 265 0 min 0,000 mm 1,8 UV-I 283 W/m 15,2 C 17,5 C 22,5 km/h (4 Bft) 100,00 %
04.09.2018 14:26 19,8 C 19,4 C 23,3 C 74 % 1013,4 hPa 0,0 l/m 13,3 km/h (3 Bft) W 265 0 min 0,000 mm 1,5 UV-I 238 W/m 15,0 C 17,4 C 19,3 km/h (3 Bft) 100,00 %
04.09.2018 14:28 19,8 C 19,4 C 22,8 C 74 % 1013,4 hPa 0,0 l/m 9,9 km/h (2 Bft) SW 236 0 min 0,000 mm 1,3 UV-I 207 W/m 15,0 C 18,5 C 14,5 km/h (3 Bft) 100,00 %
04.09.2018 14:30 19,7 C 19,4 C 22,2 C 74 % 1013,4 hPa 0,0 l/m 16,5 km/h (3 Bft) W 265 0 min 0,000 mm 1,2 UV-I 193 W/m 14,9 C 16,5 C 22,5 km/h (4 Bft) 100,00 %
04.09.2018 14:32 19,7 C 19,4 C 22,2 C 74 % 1013,4 hPa 0,0 l/m 14,5 km/h (3 Bft) W 265 0 min 0,000 mm 1,3 UV-I 201 W/m 14,9 C 17,0 C 19,3 km/h (3 Bft) 97,14 %
04.09.2018 14:34 19,7 C 19,4 C 22,2 C 75 % 1013,4 hPa 0,0 l/m 10,3 km/h (2 Bft) W-NW 301 0 min 0,000 mm 1,3 UV-I 204 W/m 15,1 C 18,2 C 20,9 km/h (4 Bft) 96,43 %
04.09.2018 14:36 19,7 C 19,4 C 22,2 C 75 % 1013,4 hPa 0,0 l/m 5,6 km/h (1 Bft) W-SW 257 0 min 0,000 mm 1,2 UV-I 191 W/m 15,1 C 19,7 C 14,5 km/h (3 Bft) 95,74 %
04.09.2018 14:38 19,7 C 19,4 C 22,2 C 74 % 1013,4 hPa 0,0 l/m 8,0 km/h (2 Bft) W 267 0 min 0,000 mm 1,2 UV-I 177 W/m 14,9 C 19,0 C 12,9 km/h (3 Bft) 100,00 %
04.09.2018 14:40 19,7 C 19,4 C 21,7 C 73 % 1013,4 hPa 0,0 l/m 8,5 km/h (2 Bft) W 264 0 min 0,000 mm 1,3 UV-I 187 W/m 14,7 C 18,8 C 17,7 km/h (3 Bft) 97,87 %
04.09.2018 14:42 19,7 C 19,4 C 22,2 C 74 % 1013,4 hPa 0,0 l/m 12,3 km/h (3 Bft) W 272 0 min 0,000 mm 1,4 UV-I 216 W/m 14,9 C 17,6 C 20,9 km/h (4 Bft) 97,56 %
04.09.2018 14:44 19,7 C 19,4 C 22,2 C 74 % 1013,4 hPa 0,0 l/m 15,1 km/h (3 Bft) W-NW 284 0 min 0,000 mm 1,5 UV-I 235 W/m 14,9 C 16,9 C 22,5 km/h (4 Bft) 98,11 %
04.09.2018 14:46 19,7 C 19,4 C 22,2 C 74 % 1013,4 hPa 0,0 l/m 10,6 km/h (2 Bft) W-SW 245 0 min 0,000 mm 1,5 UV-I 229 W/m 14,9 C 18,1 C 17,7 km/h (3 Bft) 97,37 %
04.09.2018 14:48 19,7 C 19,4 C 22,2 C 75 % 1013,4 hPa 0,0 l/m 6,8 km/h (2 Bft) W 269 0 min 0,000 mm 1,4 UV-I 234 W/m 15,1 C 19,5 C 11,3 km/h (2 Bft) 98,00 %
04.09.2018 14:50 19,8 C 19,4 C 22,8 C 75 % 1013,4 hPa 0,0 l/m 10,1 km/h (2 Bft) W 261 0 min 0,000 mm 1,4 UV-I 243 W/m 15,2 C 18,4 C 16,1 km/h (3 Bft) 96,00 %
04.09.2018 14:52 19,8 C 19,4 C 22,8 C 74 % 1013,3 hPa 0,0 l/m 11,9 km/h (2 Bft) W 265 0 min 0,000 mm 1,4 UV-I 241 W/m 15,0 C 17,8 C 19,3 km/h (3 Bft) 95,74 %
04.09.2018 14:54 19,8 C 19,4 C 22,8 C 74 % 1013,4 hPa 0,0 l/m 11,1 km/h (2 Bft) W-SW 245 0 min 0,000 mm 1,3 UV-I 228 W/m 15,0 C 18,1 C 16,1 km/h (3 Bft) 95,56 %
04.09.2018 14:56 19,8 C 19,4 C 22,2 C 73 % 1013,4 hPa 0,0 l/m 11,9 km/h (2 Bft) W-NW 287 0 min 0,000 mm 1,1 UV-I 194 W/m 14,8 C 17,8 C 20,9 km/h (4 Bft) 93,62 %
04.09.2018 14:58 19,7 C 19,4 C 22,2 C 74 % 1013,4 hPa 0,0 l/m 2,5 km/h (1 Bft) SW 234 0 min 0,000 mm 0,8 UV-I 145 W/m 14,9 C 19,7 C 11,3 km/h (2 Bft) 97,87 %
04.09.2018 15:00 19,7 C 19,4 C 21,7 C 75 % 1013,4 hPa 0,0 l/m 7,6 km/h (2 Bft) W 261 0 min 0,178 mm 0,6 UV-I 102 W/m 15,1 C 19,2 C 14,5 km/h (3 Bft) 98,11 %
04.09.2018 15:02 19,6 C 19,4 C 21,1 C 75 % 1013,4 hPa 0,0 l/m 9,9 km/h (2 Bft) W-SW 253 0 min 0,000 mm 0,4 UV-I 80 W/m 15,0 C 18,2 C 14,5 km/h (3 Bft) 97,56 %
04.09.2018 15:04 19,5 C 19,4 C 20,0 C 74 % 1013,5 hPa 0,0 l/m 11,7 km/h (2 Bft) W 266 0 min 0,000 mm 0,0 UV-I 74 W/m 14,7 C 17,5 C 22,5 km/h (4 Bft) 100,00 %
04.09.2018 15:06 19,4 C 19,4 C 20,0 C 74 % 1013,4 hPa 0,0 l/m 8,6 km/h (2 Bft) W-SW 248 0 min 0,000 mm 0,3 UV-I 76 W/m 14,6 C 18,5 C 16,1 km/h (3 Bft) 100,00 %
04.09.2018 15:08 19,3 C 19,4 C 19,4 C 74 % 1013,5 hPa 0,0 l/m 11,9 km/h (2 Bft) W 261 0 min 0,000 mm 0,5 UV-I 84 W/m 14,5 C 17,3 C 19,3 km/h (3 Bft) 100,00 %
04.09.2018 15:10 19,3 C 19,4 C 19,4 C 74 % 1013,4 hPa 0,0 l/m 15,7 km/h (3 Bft) W 273 0 min 0,000 mm 0,6 UV-I 96 W/m 14,5 C 16,2 C 20,9 km/h (4 Bft) 97,87 %
04.09.2018 15:12 19,3 C 19,4 C 19,4 C 75 % 1013,4 hPa 0,0 l/m 13,8 km/h (3 Bft) W 259 0 min 0,000 mm 0,7 UV-I 115 W/m 14,8 C 16,7 C 19,3 km/h (3 Bft) 100,00 %
04.09.2018 15:14 19,2 C 19,4 C 20,0 C 75 % 1013,4 hPa 0,0 l/m 10,2 km/h (2 Bft) W 269 0 min 0,000 mm 0,8 UV-I 138 W/m 14,7 C 17,7 C 17,7 km/h (3 Bft) 94,34 %
04.09.2018 15:16 19,2 C 19,4 C 20,0 C 75 % 1013,4 hPa 0,0 l/m 12,3 km/h (3 Bft) W 263 0 min 0,000 mm 0,9 UV-I 160 W/m 14,7 C 17,0 C 19,3 km/h (3 Bft) 97,56 %
04.09.2018 15:18 19,2 C 19,4 C 19,4 C 76 % 1013,4 hPa 0,0 l/m 12,5 km/h (3 Bft) W-SW 257 0 min 0,000 mm 1,0 UV-I 176 W/m 14,9 C 17,0 C 19,3 km/h (3 Bft) 96,23 %
04.09.2018 15:20 19,2 C 19,4 C 19,4 C 78 % 1013,4 hPa 0,0 l/m 13,4 km/h (3 Bft) W 266 0 min 0,000 mm 1,1 UV-I 190 W/m 15,3 C 16,7 C 16,1 km/h (3 Bft) 97,56 %
04.09.2018 15:22 19,1 C 19,4 C 19,4 C 79 % 1013,4 hPa 0,0 l/m 8,1 km/h (2 Bft) W 263 0 min 0,000 mm 1,1 UV-I 192 W/m 15,4 C 18,4 C 14,5 km/h (3 Bft) 96,00 %
04.09.2018 15:24 19,0 C 19,4 C 18,9 C 79 % 1013,4 hPa 0,0 l/m 8,7 km/h (2 Bft) W-SW 254 0 min 0,000 mm 1,0 UV-I 171 W/m 15,3 C 18,0 C 16,1 km/h (3 Bft) 97,87 %
04.09.2018 15:26 18,9 C 19,4 C 18,9 C 80 % 1013,4 hPa 0,0 l/m 7,6 km/h (2 Bft) W-SW 255 0 min 0,000 mm 0,8 UV-I 151 W/m 15,4 C 18,4 C 14,5 km/h (3 Bft) 97,56 %
04.09.2018 15:28 18,8 C 19,4 C 18,9 C 81 % 1013,5 hPa 0,0 l/m 10,5 km/h (2 Bft) W 279 0 min 0,000 mm 0,8 UV-I 140 W/m 15,5 C 17,1 C 14,5 km/h (3 Bft) 97,87 %
04.09.2018 15:30 18,8 C 19,4 C 18,9 C 81 % 1013,5 hPa 0,0 l/m 7,0 km/h (2 Bft) W 259 0 min 0,000 mm 0,8 UV-I 140 W/m 15,5 C 18,5 C 12,9 km/h (3 Bft) 98,11 %
04.09.2018 15:32 18,8 C 19,4 C 18,9 C 82 % 1013,4 hPa 0,0 l/m 10,2 km/h (2 Bft) W 278 0 min 0,000 mm 0,8 UV-I 149 W/m 15,7 C 17,2 C 16,1 km/h (3 Bft) 97,62 %
04.09.2018 15:34 18,8 C 19,4 C 18,9 C 82 % 1013,4 hPa 0,0 l/m 8,5 km/h (2 Bft) W 270 0 min 0,000 mm 0,9 UV-I 171 W/m 15,7 C 17,9 C 14,5 km/h (3 Bft) 96,15 %
04.09.2018 15:36 18,8 C 19,4 C 18,9 C 82 % 1013,4 hPa 0,0 l/m 5,3 km/h (1 Bft) W-SW 248 0 min 0,000 mm 1,1 UV-I 199 W/m 15,7 C 18,8 C 11,3 km/h (2 Bft) 98,00 %
04.09.2018 15:38 18,8 C 19,4 C 19,4 C 82 % 1013,3 hPa 0,0 l/m 9,2 km/h (2 Bft) W 267 0 min 0,000 mm 1,1 UV-I 214 W/m 15,7 C 17,6 C 16,1 km/h (3 Bft) 100,00 %
04.09.2018 15:40 18,8 C 19,4 C 19,4 C 82 % 1013,3 hPa 0,0 l/m 8,9 km/h (2 Bft) W-SW 237 0 min 0,000 mm 1,1 UV-I 223 W/m 15,7 C 17,7 C 14,5 km/h (3 Bft) 100,00 %
04.09.2018 15:42 18,9 C 19,4 C 20,0 C 82 % 1013,4 hPa 0,0 l/m 11,2 km/h (2 Bft) W-NW 284 0 min 0,000 mm 1,1 UV-I 229 W/m 15,8 C 17,0 C 17,7 km/h (3 Bft) 100,00 %
04.09.2018 15:44 18,9 C 19,4 C 20,0 C 82 % 1013,4 hPa 0,0 l/m 7,3 km/h (2 Bft) SW 217 0 min 0,000 mm 1,1 UV-I 234 W/m 15,8 C 18,5 C 11,3 km/h (2 Bft) 98,00 %
04.09.2018 15:46 19,0 C 19,4 C 20,0 C 83 % 1013,4 hPa 0,0 l/m 6,2 km/h (2 Bft) W-SW 241 0 min 0,000 mm 1,0 UV-I 222 W/m 16,0 C 19,0 C 11,3 km/h (2 Bft) 100,00 %
04.09.2018 15:48 19,1 C 19,4 C 20,0 C 82 % 1013,4 hPa 0,0 l/m 3,8 km/h (1 Bft) W 267 0 min 0,000 mm 1,0 UV-I 211 W/m 16,0 C 19,1 C 8,0 km/h (2 Bft) 98,11 %
04.09.2018 15:50 19,1 C 19,4 C 20,0 C 83 % 1013,4 hPa 0,0 l/m 4,7 km/h (1 Bft) SW 219 0 min 0,000 mm 1,0 UV-I 210 W/m 16,1 C 19,1 C 11,3 km/h (2 Bft) 100,00 %
04.09.2018 15:52 19,1 C 19,4 C 19,4 C 82 % 1013,4 hPa 0,0 l/m 10,8 km/h (2 Bft) W-SW 243 0 min 0,000 mm 1,0 UV-I 218 W/m 16,0 C 17,4 C 16,1 km/h (3 Bft) 98,00 %
04.09.2018 15:54 19,2 C 19,4 C 20,0 C 82 % 1013,4 hPa 0,0 l/m 8,2 km/h (2 Bft) W-SW 251 0 min 0,000 mm 1,0 UV-I 229 W/m 16,0 C 18,4 C 14,5 km/h (3 Bft) 100,00 %
04.09.2018 15:56 19,2 C 19,4 C 20,6 C 83 % 1013,4 hPa 0,0 l/m 6,1 km/h (2 Bft) W-SW 245 0 min 0,000 mm 1,1 UV-I 238 W/m 16,2 C 19,2 C 14,5 km/h (3 Bft) 100,00 %
04.09.2018 15:58 19,2 C 19,4 C 20,6 C 83 % 1013,4 hPa 0,0 l/m 10,0 km/h (2 Bft) W-SW 247 0 min 0,000 mm 1,1 UV-I 245 W/m 16,2 C 17,8 C 17,7 km/h (3 Bft) 95,74 %
04.09.2018 16:00 19,3 C 19,4 C 20,6 C 83 % 1013,4 hPa 0,0 l/m 11,0 km/h (2 Bft) W 269 0 min 0,000 mm 1,0 UV-I 249 W/m 16,3 C 17,5 C 19,3 km/h (3 Bft) 100,00 %
04.09.2018 16:02 19,3 C 19,4 C 20,6 C 81 % 1013,3 hPa 0,0 l/m 15,4 km/h (3 Bft) W-SW 248 0 min 0,127 mm 1,0 UV-I 253 W/m 16,0 C 16,3 C 27,4 km/h (4 Bft) 100,00 %
04.09.2018 16:04 19,3 C 19,4 C 20,6 C 82 % 1013,3 hPa 0,0 l/m 8,5 km/h (2 Bft) W 268 0 min 0,000 mm 1,0 UV-I 238 W/m 16,1 C 18,4 C 16,1 km/h (3 Bft) 100,00 %
04.09.2018 16:06 19,3 C 19,4 C 20,6 C 82 % 1013,3 hPa 0,2 l/m 14,7 km/h (3 Bft) W 275 0 min 0,000 mm 1,0 UV-I 244 W/m 16,1 C 16,5 C 22,5 km/h (4 Bft) 100,00 %
04.09.2018 16:08 19,3 C 19,4 C 20,6 C 81 % 1013,3 hPa 0,0 l/m 14,9 km/h (3 Bft) W-SW 240 0 min 0,000 mm 1,1 UV-I 254 W/m 16,0 C 16,4 C 22,5 km/h (4 Bft) 100,00 %
04.09.2018 16:10 19,3 C 19,4 C 20,6 C 81 % 1013,4 hPa 0,0 l/m 13,4 km/h (3 Bft) SW 235 0 min 0,000 mm 1,1 UV-I 267 W/m 16,0 C 16,8 C 19,3 km/h (3 Bft) 100,00 %
04.09.2018 16:12 19,3 C 20,0 C 21,1 C 80 % 1013,3 hPa 0,0 l/m 13,9 km/h (3 Bft) W 278 0 min 0,000 mm 1,1 UV-I 277 W/m 15,8 C 16,7 C 17,7 km/h (3 Bft) 100,00 %
04.09.2018 16:14 19,4 C 20,0 C 21,1 C 80 % 1013,3 hPa 0,0 l/m 12,4 km/h (3 Bft) W 260 0 min 0,000 mm 1,1 UV-I 247 W/m 15,9 C 17,2 C 19,3 km/h (3 Bft) 97,87 %
04.09.2018 16:16 19,4 C 20,0 C 21,1 C 80 % 1013,4 hPa 0,0 l/m 11,9 km/h (2 Bft) W 264 0 min 0,000 mm 1,0 UV-I 213 W/m 15,9 C 17,4 C 19,3 km/h (3 Bft) 100,00 %
04.09.2018 16:18 19,4 C 20,0 C 21,1 C 80 % 1013,4 hPa 0,0 l/m 14,6 km/h (3 Bft) W 263 0 min 0,000 mm 0,9 UV-I 186 W/m 15,9 C 16,6 C 19,3 km/h (3 Bft) 100,00 %
04.09.2018 16:20 19,4 C 20,0 C 20,6 C 80 % 1013,5 hPa 0,0 l/m 8,0 km/h (2 Bft) W-SW 249 0 min 0,000 mm 0,8 UV-I 158 W/m 15,9 C 18,7 C 14,5 km/h (3 Bft) 97,37 %
04.09.2018 16:22 19,3 C 20,0 C 20,6 C 80 % 1013,5 hPa 0,0 l/m 10,8 km/h (2 Bft) W 264 0 min 0,000 mm 0,7 UV-I 141 W/m 15,8 C 17,6 C 19,3 km/h (3 Bft) 100,00 %
04.09.2018 16:24 19,3 C 20,0 C 20,6 C 80 % 1013,5 hPa 0,0 l/m 5,4 km/h (1 Bft) W-SW 256 0 min 0,000 mm 0,7 UV-I 136 W/m 15,8 C 19,3 C 11,3 km/h (2 Bft) 100,00 %
04.09.2018 16:26 19,3 C 20,0 C 20,6 C 80 % 1013,5 hPa 0,0 l/m 7,6 km/h (2 Bft) W-NW 285 0 min 0,000 mm 0,7 UV-I 137 W/m 15,8 C 18,8 C 14,5 km/h (3 Bft) 95,45 %
04.09.2018 16:28 19,3 C 20,0 C 20,6 C 81 % 1013,4 hPa 0,0 l/m 7,9 km/h (2 Bft) SW 232 0 min 0,000 mm 0,7 UV-I 139 W/m 16,0 C 18,7 C 24,1 km/h (4 Bft) 97,56 %
04.09.2018 16:30 19,3 C 20,0 C 20,6 C 79 % 1013,4 hPa 0,0 l/m 14,6 km/h (3 Bft) W 271 0 min 0,000 mm 0,8 UV-I 144 W/m 15,6 C 16,5 C 20,9 km/h (4 Bft) 98,00 %
04.09.2018 16:32 19,3 C 20,0 C 20,6 C 79 % 1013,4 hPa 0,0 l/m 14,4 km/h (3 Bft) W 281 0 min 0,000 mm 0,9 UV-I 152 W/m 15,6 C 16,6 C 22,5 km/h (4 Bft) 98,00 %
04.09.2018 16:34 19,3 C 20,0 C 20,6 C 79 % 1013,4 hPa 0,0 l/m 13,0 km/h (3 Bft) W 271 0 min 0,000 mm 0,9 UV-I 175 W/m 15,6 C 16,9 C 19,3 km/h (3 Bft) 98,21 %
04.09.2018 16:36 19,3 C 20,0 C 20,6 C 79 % 1013,4 hPa 0,0 l/m 14,6 km/h (3 Bft) W 259 0 min 0,000 mm 0,8 UV-I 181 W/m 15,6 C 16,5 C 25,7 km/h (4 Bft) 97,37 %
04.09.2018 16:38 19,3 C 20,0 C 20,6 C 78 % 1013,4 hPa 0,0 l/m 13,7 km/h (3 Bft) W 269 0 min 0,000 mm 0,8 UV-I 165 W/m 15,4 C 16,7 C 20,9 km/h (4 Bft) 96,00 %
04.09.2018 16:40 19,4 C 20,0 C 20,6 C 78 % 1013,4 hPa 0,0 l/m 8,6 km/h (2 Bft) W 274 0 min 0,000 mm 0,7 UV-I 149 W/m 15,5 C 18,5 C 19,3 km/h (3 Bft) 95,45 %
04.09.2018 16:42 19,4 C 20,0 C 20,6 C 78 % 1013,4 hPa 0,0 l/m 14,7 km/h (3 Bft) W-SW 240 0 min 0,000 mm 0,6 UV-I 133 W/m 15,5 C 16,6 C 19,3 km/h (3 Bft) 94,64 %
04.09.2018 16:44 19,4 C 20,0 C 20,6 C 78 % 1013,4 hPa 0,0 l/m 16,8 km/h (3 Bft) W-SW 244 0 min 0,000 mm 0,6 UV-I 122 W/m 15,5 C 16,1 C 22,5 km/h (4 Bft) 90,91 %
04.09.2018 16:46 19,4 C 20,0 C 20,0 C 78 % 1013,5 hPa 0,0 l/m 14,0 km/h (3 Bft) W-SW 258 0 min 0,000 mm 0,6 UV-I 117 W/m 15,5 C 16,8 C 22,5 km/h (4 Bft) 95,12 %
04.09.2018 16:49 19,3 C 20,0 C 20,0 C 78 % 1013,5 hPa 0,0 l/m 12,4 km/h (3 Bft) W 260 0 min 0,000 mm 0,6 UV-I 114 W/m 15,4 C 17,1 C 20,9 km/h (4 Bft) 94,59 %
04.09.2018 16:50 19,3 C 20,0 C 20,0 C 78 % 1013,5 hPa 0,0 l/m 21,7 km/h (4 Bft) W-NW 282 0 min 0,000 mm 0,5 UV-I 114 W/m 15,4 C 15,0 C 25,7 km/h (4 Bft) 100,00 %
04.09.2018 16:52 19,3 C 20,0 C 20,0 C 78 % 1013,5 hPa 0,0 l/m 11,4 km/h (2 Bft) SW 232 0 min 0,000 mm 0,5 UV-I 116 W/m 15,4 C 17,4 C 19,3 km/h (3 Bft) 96,23 %
04.09.2018 16:54 19,3 C 20,0 C 20,0 C 78 % 1013,5 hPa 0,0 l/m 11,4 km/h (2 Bft) W 259 0 min 0,000 mm 0,5 UV-I 120 W/m 15,4 C 17,4 C 22,5 km/h (4 Bft) 96,00 %
04.09.2018 16:56 19,3 C 20,0 C 20,0 C 78 % 1013,5 hPa 0,0 l/m 11,9 km/h (2 Bft) W-SW 248 0 min 0,000 mm 0,5 UV-I 123 W/m 15,4 C 17,3 C 22,5 km/h (4 Bft) 94,00 %
04.09.2018 16:59 19,3 C 20,0 C 20,0 C 78 % 1013,5 hPa 0,0 l/m 11,6 km/h (2 Bft) W-SW 238 0 min 0,000 mm 0,6 UV-I 127 W/m 15,4 C 17,3 C 16,1 km/h (3 Bft) 96,88 %
04.09.2018 17:00 19,3 C 20,0 C 20,6 C 78 % 1013,5 hPa 0,0 l/m 13,7 km/h (3 Bft) W 274 0 min 0,000 mm 0,6 UV-I 124 W/m 15,4 C 16,7 C 16,1 km/h (3 Bft) 100,00 %
04.09.2018 17:02 19,3 C 20,0 C 20,6 C 78 % 1013,6 hPa 0,0 l/m 6,5 km/h (2 Bft) W 265 0 min 0,127 mm 0,5 UV-I 119 W/m 15,4 C 19,3 C 14,5 km/h (3 Bft) 98,21 %
04.09.2018 17:04 19,3 C 20,0 C 20,6 C 79 % 1013,6 hPa 0,0 l/m 9,4 km/h (2 Bft) W-SW 250 0 min 0,000 mm 0,2 UV-I 108 W/m 15,6 C 18,1 C 16,1 km/h (3 Bft) 90,00 %
04.09.2018 17:06 19,3 C 20,0 C 20,6 C 79 % 1013,6 hPa 0,0 l/m 8,9 km/h (2 Bft) W 265 0 min 0,000 mm 0,0 UV-I 99 W/m 15,6 C 18,3 C 12,9 km/h (3 Bft) 100,00 %
04.09.2018 17:08 19,3 C 20,0 C 20,6 C 79 % 1013,6 hPa 0,0 l/m 5,8 km/h (2 Bft) W 264 0 min 0,000 mm 0,0 UV-I 98 W/m 15,6 C 19,3 C 14,5 km/h (3 Bft) 100,00 %
04.09.2018 17:10 19,3 C 20,0 C 20,6 C 79 % 1013,6 hPa 0,0 l/m 8,6 km/h (2 Bft) W-SW 238 0 min 0,000 mm 0,0 UV-I 97 W/m 15,6 C 18,4 C 16,1 km/h (3 Bft) 97,87 %
04.09.2018 17:12 19,3 C 20,0 C 20,0 C 78 % 1013,7 hPa 0,0 l/m 11,5 km/h (2 Bft) W 265 0 min 0,000 mm 0,0 UV-I 91 W/m 15,4 C 17,4 C 19,3 km/h (3 Bft) 97,37 %
04.09.2018 17:14 19,3 C 20,0 C 20,0 C 79 % 1013,7 hPa 0,0 l/m 10,9 km/h (2 Bft) W 268 0 min 0,000 mm 0,0 UV-I 81 W/m 15,6 C 17,6 C 14,5 km/h (3 Bft) 98,00 %
04.09.2018 17:16 19,3 C 20,0 C 20,0 C 79 % 1013,7 hPa 0,0 l/m 6,0 km/h (2 Bft) W-NW 287 0 min 0,000 mm 0,0 UV-I 69 W/m 15,6 C 19,3 C 14,5 km/h (3 Bft) 96,43 %
04.09.2018 17:18 19,3 C 20,0 C 20,0 C 79 % 1013,8 hPa 0,0 l/m 2,1 km/h (1 Bft) W 271 0 min 0,000 mm 0,0 UV-I 62 W/m 15,6 C 19,3 C 9,7 km/h (2 Bft) 97,37 %
04.09.2018 17:20 19,2 C 20,0 C 19,4 C 79 % 1013,8 hPa 0,0 l/m 4,7 km/h (1 Bft) W-NW 286 0 min 0,000 mm 0,0 UV-I 56 W/m 15,5 C 19,2 C 12,9 km/h (3 Bft) 98,00 %
04.09.2018 17:22 19,2 C 20,0 C 19,4 C 79 % 1013,8 hPa 0,0 l/m 9,1 km/h (2 Bft) W 264 0 min 0,000 mm 0,0 UV-I 56 W/m 15,5 C 18,1 C 14,5 km/h (3 Bft) 98,11 %
04.09.2018 17:24 19,2 C 20,0 C 19,4 C 79 % 1013,8 hPa 0,0 l/m 7,6 km/h (2 Bft) W 268 0 min 0,000 mm 0,0 UV-I 60 W/m 15,5 C 18,7 C 12,9 km/h (3 Bft) 93,62 %
04.09.2018 17:26 19,2 C 20,0 C 19,4 C 79 % 1013,8 hPa 0,0 l/m 5,6 km/h (1 Bft) W 269 0 min 0,000 mm 0,0 UV-I 60 W/m 15,5 C 19,2 C 11,3 km/h (2 Bft) 97,87 %
04.09.2018 17:28 19,2 C 20,0 C 19,4 C 80 % 1013,8 hPa 0,0 l/m 1,2 km/h (1 Bft) W 269 0 min 0,000 mm 0,0 UV-I 56 W/m 15,7 C 19,2 C 4,8 km/h (1 Bft) 94,87 %
04.09.2018 17:30 19,2 C 20,0 C 19,4 C 80 % 1013,8 hPa 0,0 l/m 5,4 km/h (1 Bft) W 262 0 min 0,000 mm 0,0 UV-I 52 W/m 15,7 C 19,2 C 9,7 km/h (2 Bft) 98,11 %
04.09.2018 17:32 19,1 C 20,0 C 19,4 C 80 % 1013,8 hPa 0,0 l/m 2,5 km/h (1 Bft) W 275 0 min 0,000 mm 0,0 UV-I 49 W/m 15,6 C 19,1 C 9,7 km/h (2 Bft) 97,56 %
04.09.2018 17:34 19,1 C 20,0 C 19,4 C 81 % 1013,8 hPa 0,0 l/m 3,3 km/h (1 Bft) W 277 0 min 0,000 mm 0,0 UV-I 48 W/m 15,8 C 19,1 C 12,9 km/h (3 Bft) 97,73 %
04.09.2018 17:36 19,1 C 20,0 C 19,4 C 80 % 1013,9 hPa 0,0 l/m 7,6 km/h (2 Bft) W 273 0 min 0,000 mm 0,0 UV-I 45 W/m 15,6 C 18,6 C 12,9 km/h (3 Bft) 98,00 %
04.09.2018 17:38 19,1 C 20,0 C 19,4 C 80 % 1013,9 hPa 0,0 l/m 7,3 km/h (2 Bft) W 265 0 min 0,000 mm 0,0 UV-I 43 W/m 15,6 C 18,7 C 14,5 km/h (3 Bft) 94,34 %
04.09.2018 17:40 19,1 C 20,0 C 18,9 C 80 % 1013,9 hPa 0,0 l/m 6,5 km/h (2 Bft) W-SW 246 0 min 0,000 mm 0,0 UV-I 42 W/m 15,6 C 19,1 C 12,9 km/h (3 Bft) 98,00 %
04.09.2018 17:42 19,1 C 20,0 C 18,9 C 80 % 1013,9 hPa 0,0 l/m 7,2 km/h (2 Bft) W-SW 257 0 min 0,000 mm 0,0 UV-I 43 W/m 15,6 C 18,7 C 11,3 km/h (2 Bft) 97,14 %
04.09.2018 17:44 19,1 C 20,0 C 18,9 C 80 % 1013,8 hPa 0,0 l/m 13,0 km/h (3 Bft) W 271 0 min 0,000 mm 0,0 UV-I 44 W/m 15,6 C 16,7 C 19,3 km/h (3 Bft) 98,11 %
04.09.2018 17:46 19,1 C 20,0 C 18,9 C 80 % 1013,8 hPa 0,0 l/m 11,3 km/h (2 Bft) SW 234 0 min 0,000 mm 0,0 UV-I 43 W/m 15,6 C 17,2 C 17,7 km/h (3 Bft) 97,56 %
04.09.2018 17:48 19,1 C 20,0 C 18,9 C 81 % 1013,8 hPa 0,0 l/m 8,9 km/h (2 Bft) W 276 0 min 0,000 mm 0,0 UV-I 41 W/m 15,8 C 18,0 C 12,9 km/h (3 Bft) 96,23 %
04.09.2018 17:50 19,0 C 20,0 C 18,9 C 80 % 1013,8 hPa 0,0 l/m 10,5 km/h (2 Bft) W 259 0 min 0,000 mm 0,0 UV-I 39 W/m 15,5 C 17,4 C 17,7 km/h (3 Bft) 100,00 %
04.09.2018 17:52 18,9 C 20,0 C 18,9 C 80 % 1013,8 hPa 0,0 l/m 11,0 km/h (2 Bft) W-SW 250 0 min 0,000 mm 0,0 UV-I 41 W/m 15,4 C 17,1 C 16,1 km/h (3 Bft) 96,00 %
04.09.2018 17:54 18,9 C 20,0 C 18,9 C 81 % 1014,0 hPa 0,0 l/m 10,0 km/h (2 Bft) W-SW 253 0 min 0,000 mm 0,0 UV-I 44 W/m 15,6 C 17,4 C 14,5 km/h (3 Bft) 96,00 %
04.09.2018 17:56 18,9 C 20,0 C 18,9 C 81 % 1013,8 hPa 0,0 l/m 7,8 km/h (2 Bft) W-SW 240 0 min 0,000 mm 0,0 UV-I 47 W/m 15,6 C 18,3 C 16,1 km/h (3 Bft) 97,56 %
04.09.2018 17:58 18,9 C 20,0 C 18,9 C 81 % 1013,8 hPa 0,0 l/m 8,1 km/h (2 Bft) W 259 0 min 0,000 mm 0,0 UV-I 49 W/m 15,6 C 18,2 C 17,7 km/h (3 Bft) 98,00 %
04.09.2018 18:00 18,9 C 20,0 C 18,9 C 81 % 1013,8 hPa 0,0 l/m 9,7 km/h (2 Bft) W-SW 245 0 min 0,000 mm 0,0 UV-I 51 W/m 15,6 C 17,5 C 19,3 km/h (3 Bft) 98,00 %
04.09.2018 18:02 18,8 C 20,0 C 18,9 C 82 % 1013,8 hPa 0,0 l/m 6,8 km/h (2 Bft) W-SW 246 0 min 0,050 mm 0,0 UV-I 54 W/m 15,7 C 18,6 C 14,5 km/h (3 Bft) 94,44 %
04.09.2018 18:04 18,8 C 20,0 C 18,9 C 82 % 1013,7 hPa 0,0 l/m 11,4 km/h (2 Bft) W-SW 246 0 min 0,000 mm 0,0 UV-I 58 W/m 15,7 C 16,8 C 17,7 km/h (3 Bft) 96,49 %
04.09.2018 18:06 18,8 C 20,0 C 18,3 C 82 % 1013,6 hPa 0,0 l/m 9,1 km/h (2 Bft) SW 228 0 min 0,000 mm 0,0 UV-I 65 W/m 15,7 C 17,6 C 14,5 km/h (3 Bft) 97,44 %
04.09.2018 18:08 18,8 C 20,0 C 18,3 C 82 % 1013,6 hPa 0,0 l/m 10,0 km/h (2 Bft) W-SW 240 0 min 0,000 mm 0,0 UV-I 72 W/m 15,7 C 17,3 C 12,9 km/h (3 Bft) 98,00 %
04.09.2018 18:10 18,7 C 20,0 C 18,3 C 82 % 1013,6 hPa 0,0 l/m 10,7 km/h (2 Bft) SW 235 0 min 0,000 mm 0,0 UV-I 76 W/m 15,6 C 17,0 C 16,1 km/h (3 Bft) 97,87 %
04.09.2018 18:12 18,7 C 20,0 C 18,9 C 82 % 1013,6 hPa 0,0 l/m 11,4 km/h (2 Bft) W-SW 239 0 min 0,000 mm 0,0 UV-I 79 W/m 15,6 C 16,7 C 17,7 km/h (3 Bft) 92,45 %
04.09.2018 18:14 18,7 C 20,0 C 18,9 C 82 % 1013,6 hPa 0,0 l/m 8,2 km/h (2 Bft) W-SW 248 0 min 0,000 mm 0,0 UV-I 86 W/m 15,6 C 17,9 C 16,1 km/h (3 Bft) 94,74 %
04.09.2018 18:16 18,7 C 20,0 C 18,9 C 82 % 1013,6 hPa 0,0 l/m 12,6 km/h (3 Bft) W-SW 243 0 min 0,000 mm 0,0 UV-I 92 W/m 15,6 C 16,3 C 17,7 km/h (3 Bft) 94,64 %
04.09.2018 18:18 18,8 C 20,0 C 19,4 C 81 % 1013,6 hPa 0,0 l/m 12,7 km/h (3 Bft) W-SW 252 0 min 0,000 mm 0,0 UV-I 118 W/m 15,5 C 16,4 C 20,9 km/h (4 Bft) 97,73 %
04.09.2018 18:20 18,8 C 20,0 C 19,4 C 81 % 1013,6 hPa 0,0 l/m 11,2 km/h (2 Bft) W 266 2 min 0,000 mm 0,0 UV-I 120 W/m 15,5 C 16,9 C 19,3 km/h (3 Bft) 95,12 %
04.09.2018 18:22 18,8 C 20,0 C 19,4 C 81 % 1013,7 hPa 0,0 l/m 11,5 km/h (2 Bft) W-SW 237 2 min 0,000 mm 0,0 UV-I 117 W/m 15,5 C 16,8 C 19,3 km/h (3 Bft) 98,11 %
04.09.2018 18:24 18,9 C 20,0 C 19,4 C 80 % 1013,7 hPa 0,0 l/m 11,2 km/h (2 Bft) W-SW 254 2 min 0,000 mm 0,0 UV-I 118 W/m 15,4 C 17,0 C 17,7 km/h (3 Bft) 93,62 %
04.09.2018 18:26 18,9 C 20,0 C 19,4 C 80 % 1013,7 hPa 0,0 l/m 9,0 km/h (2 Bft) W-SW 248 2 min 0,000 mm 0,0 UV-I 112 W/m 15,4 C 17,8 C 14,5 km/h (3 Bft) 94,00 %
04.09.2018 18:28 18,9 C 20,0 C 19,4 C 80 % 1013,7 hPa 0,0 l/m 9,5 km/h (2 Bft) W 270 2 min 0,000 mm 0,0 UV-I 115 W/m 15,4 C 17,6 C 16,1 km/h (3 Bft) 95,74 %
04.09.2018 18:30 18,9 C 20,0 C 19,4 C 81 % 1013,9 hPa 0,0 l/m 11,2 km/h (2 Bft) W 263 2 min 0,000 mm 0,0 UV-I 115 W/m 15,6 C 17,0 C 17,7 km/h (3 Bft) 95,74 %
04.09.2018 18:32 18,9 C 20,0 C 19,4 C 80 % 1013,9 hPa 0,0 l/m 7,6 km/h (2 Bft) W-SW 246 0 min 0,000 mm 0,0 UV-I 90 W/m 15,4 C 18,4 C 14,5 km/h (3 Bft) 94,74 %
04.09.2018 18:34 18,9 C 20,0 C 19,4 C 80 % 1014,0 hPa 0,0 l/m 8,6 km/h (2 Bft) W 267 0 min 0,000 mm 0,0 UV-I 69 W/m 15,4 C 18,0 C 11,3 km/h (2 Bft) 93,62 %
04.09.2018 18:36 18,9 C 20,0 C 19,4 C 80 % 1014,0 hPa 0,0 l/m 7,3 km/h (2 Bft) SW 227 0 min 0,000 mm 0,0 UV-I 51 W/m 15,4 C 18,5 C 14,5 km/h (3 Bft) 97,44 %
04.09.2018 18:39 18,8 C 19,4 C 18,9 C 81 % 1014,1 hPa 0,0 l/m 5,4 km/h (1 Bft) W 261 0 min 0,000 mm 0,0 UV-I 41 W/m 15,5 C 18,8 C 12,9 km/h (3 Bft) 96,05 %
04.09.2018 18:40 18,8 C 19,4 C 18,9 C 81 % 1014,1 hPa 0,0 l/m 5,7 km/h (1 Bft) W 271 0 min 0,000 mm 0,0 UV-I 32 W/m 15,5 C 18,8 C 8,0 km/h (2 Bft) 100,00 %
04.09.2018 18:42 18,8 C 20,0 C 18,9 C 81 % 1014,1 hPa 0,0 l/m 2,0 km/h (1 Bft) W-SW 256 0 min 0,000 mm 0,0 UV-I 29 W/m 15,5 C 18,8 C 6,4 km/h (2 Bft) 94,23 %
04.09.2018 18:44 18,8 C 20,0 C 18,9 C 81 % 1014,1 hPa 0,0 l/m 7,0 km/h (2 Bft) W 259 0 min 0,000 mm 0,0 UV-I 30 W/m 15,5 C 18,5 C 11,3 km/h (2 Bft) 94,87 %
04.09.2018 18:46 18,8 C 19,4 C 18,9 C 81 % 1014,1 hPa 0,0 l/m 8,5 km/h (2 Bft) W-SW 251 0 min 0,000 mm 0,0 UV-I 32 W/m 15,5 C 17,9 C 16,1 km/h (3 Bft) 95,45 %
04.09.2018 18:48 18,7 C 19,4 C 18,9 C 81 % 1014,1 hPa 0,0 l/m 3,4 km/h (1 Bft) W 261 0 min 0,000 mm 0,0 UV-I 36 W/m 15,4 C 18,7 C 6,4 km/h (2 Bft) 96,43 %
04.09.2018 18:50 18,7 C 19,4 C 18,9 C 81 % 1014,1 hPa 0,0 l/m 6,0 km/h (2 Bft) W 267 0 min 0,000 mm 0,0 UV-I 39 W/m 15,4 C 18,7 C 11,3 km/h (2 Bft) 96,15 %
04.09.2018 18:52 18,7 C 19,4 C 18,9 C 81 % 1014,1 hPa 0,0 l/m 8,5 km/h (2 Bft) W 263 0 min 0,000 mm 0,0 UV-I 40 W/m 15,4 C 17,8 C 16,1 km/h (3 Bft) 96,92 %
04.09.2018 18:54 18,7 C 19,4 C 18,9 C 82 % 1014,2 hPa 0,0 l/m 6,0 km/h (2 Bft) W-SW 258 0 min 0,000 mm 0,0 UV-I 42 W/m 15,6 C 18,7 C 12,9 km/h (3 Bft) 97,87 %
04.09.2018 18:56 18,7 C 19,4 C 18,9 C 82 % 1014,1 hPa 0,0 l/m 9,3 km/h (2 Bft) SW 224 0 min 0,000 mm 0,0 UV-I 42 W/m 15,6 C 17,5 C 17,7 km/h (3 Bft) 100,00 %
04.09.2018 18:58 18,7 C 19,4 C 18,9 C 82 % 1014,1 hPa 0,0 l/m 7,3 km/h (2 Bft) W-SW 255 0 min 0,000 mm 0,0 UV-I 38 W/m 15,6 C 18,3 C 12,9 km/h (3 Bft) 100,00 %
04.09.2018 19:00 18,7 C 19,4 C 18,9 C 81 % 1014,2 hPa 0,0 l/m 7,5 km/h (2 Bft) W 275 0 min 0,000 mm 0,0 UV-I 33 W/m 15,4 C 18,2 C 14,5 km/h (3 Bft) 97,73 %
04.09.2018 19:02 18,7 C 19,4 C 18,9 C 81 % 1014,1 hPa 0,0 l/m 10,4 km/h (2 Bft) W 263 0 min 0,051 mm 0,0 UV-I 34 W/m 15,4 C 17,1 C 17,7 km/h (3 Bft) 100,00 %
04.09.2018 19:04 18,7 C 19,4 C 18,9 C 81 % 1014,1 hPa 0,0 l/m 8,3 km/h (2 Bft) W 281 0 min 0,000 mm 0,0 UV-I 38 W/m 15,4 C 17,9 C 14,5 km/h (3 Bft) 100,00 %
04.09.2018 19:06 18,7 C 19,4 C 18,9 C 81 % 1014,1 hPa 0,0 l/m 9,7 km/h (2 Bft) W-SW 256 0 min 0,000 mm 0,0 UV-I 42 W/m 15,4 C 17,3 C 14,5 km/h (3 Bft) 100,00 %
04.09.2018 19:08 18,7 C 19,4 C 18,9 C 81 % 1014,1 hPa 0,0 l/m 7,7 km/h (2 Bft) W-SW 257 2 min 0,000 mm 0,0 UV-I 43 W/m 15,4 C 18,1 C 12,9 km/h (3 Bft) 100,00 %
04.09.2018 19:10 18,7 C 19,4 C 18,9 C 82 % 1014,1 hPa 0,0 l/m 13,3 km/h (3 Bft) W-SW 247 2 min 0,000 mm 0,0 UV-I 42 W/m 15,6 C 16,1 C 16,1 km/h (3 Bft) 100,00 %
04.09.2018 19:12 18,6 C 19,4 C 18,9 C 81 % 1014,1 hPa 0,0 l/m 10,6 km/h (2 Bft) W-SW 252 2 min 0,000 mm 0,0 UV-I 44 W/m 15,3 C 16,9 C 14,5 km/h (3 Bft) 100,00 %
04.09.2018 19:14 18,6 C 19,4 C 18,9 C 81 % 1014,1 hPa 0,0 l/m 10,0 km/h (2 Bft) W-SW 246 2 min 0,000 mm 0,0 UV-I 46 W/m 15,3 C 17,1 C 16,1 km/h (3 Bft) 100,00 %
04.09.2018 19:16 18,6 C 19,4 C 18,3 C 82 % 1014,1 hPa 0,0 l/m 11,0 km/h (2 Bft) W-SW 248 2 min 0,000 mm 0,0 UV-I 43 W/m 15,5 C 16,7 C 17,7 km/h (3 Bft) 100,00 %
04.09.2018 19:18 18,6 C 19,4 C 18,3 C 82 % 1014,2 hPa 0,0 l/m 5,8 km/h (2 Bft) W 263 2 min 0,000 mm 0,0 UV-I 40 W/m 15,5 C 18,6 C 9,7 km/h (2 Bft) 100,00 %
04.09.2018 19:20 18,6 C 19,4 C 18,3 C 82 % 1014,2 hPa 0,0 l/m 10,1 km/h (2 Bft) SW 233 2 min 0,000 mm 0,0 UV-I 37 W/m 15,5 C 17,1 C 16,1 km/h (3 Bft) 100,00 %
04.09.2018 19:22 18,6 C 19,4 C 18,3 C 82 % 1014,2 hPa 0,0 l/m 8,5 km/h (2 Bft) W 263 2 min 0,000 mm 0,0 UV-I 33 W/m 15,5 C 17,7 C 12,9 km/h (3 Bft) 98,59 %
04.09.2018 19:24 18,5 C 19,4 C 18,3 C 82 % 1014,2 hPa 0,0 l/m 5,8 km/h (2 Bft) W 273 2 min 0,000 mm 0,0 UV-I 28 W/m 15,4 C 18,5 C 11,3 km/h (2 Bft) 100,00 %
04.09.2018 19:26 18,5 C 19,4 C 18,3 C 82 % 1014,3 hPa 0,0 l/m 6,8 km/h (2 Bft) W-SW 252 2 min 0,000 mm 0,0 UV-I 23 W/m 15,4 C 18,3 C 12,9 km/h (3 Bft) 100,00 %
04.09.2018 19:28 18,5 C 19,4 C 18,3 C 82 % 1014,2 hPa 0,0 l/m 8,0 km/h (2 Bft) W-SW 246 2 min 0,000 mm 0,0 UV-I 19 W/m 15,4 C 17,8 C 12,9 km/h (3 Bft) 100,00 %
04.09.2018 19:30 18,4 C 19,4 C 18,3 C 82 % 1014,2 hPa 0,0 l/m 11,7 km/h (2 Bft) SW 233 0 min 0,000 mm 0,0 UV-I 16 W/m 15,3 C 16,3 C 17,7 km/h (3 Bft) 100,00 %
04.09.2018 19:32 18,4 C 19,4 C 18,3 C 82 % 1014,2 hPa 0,0 l/m 12,0 km/h (2 Bft) SW 229 0 min 0,000 mm 0,0 UV-I 11 W/m 15,3 C 16,2 C 17,7 km/h (3 Bft) 96,00 %
04.09.2018 19:34 18,4 C 19,4 C 18,3 C 82 % 1014,2 hPa 0,0 l/m 14,4 km/h (3 Bft) W 263 0 min 0,000 mm 0,0 UV-I 10 W/m 15,3 C 15,5 C 19,3 km/h (3 Bft) 97,56 %
04.09.2018 19:36 18,4 C 19,4 C 17,8 C 82 % 1014,1 hPa 0,0 l/m 12,4 km/h (3 Bft) SW 235 0 min 0,000 mm 0,0 UV-I 8 W/m 15,3 C 16,1 C 20,9 km/h (4 Bft) 100,00 %
04.09.2018 19:38 18,3 C 19,4 C 17,8 C 82 % 1014,3 hPa 0,0 l/m 12,9 km/h (3 Bft) SW 236 0 min 0,000 mm 0,0 UV-I 7 W/m 15,2 C 15,8 C 17,7 km/h (3 Bft) 100,00 %
04.09.2018 19:40 18,3 C 19,4 C 17,8 C 82 % 1014,3 hPa 0,0 l/m 10,8 km/h (2 Bft) W-SW 258 0 min 0,000 mm 0,0 UV-I 5 W/m 15,2 C 16,5 C 16,1 km/h (3 Bft) 98,00 %
04.09.2018 19:42 18,3 C 19,4 C 17,8 C 82 % 1014,3 hPa 0,0 l/m 11,1 km/h (2 Bft) W-SW 238 0 min 0,000 mm 0,0 UV-I 5 W/m 15,2 C 16,4 C 17,7 km/h (3 Bft) 97,37 %
04.09.2018 19:44 18,3 C 19,4 C 17,8 C 82 % 1014,3 hPa 0,0 l/m 7,8 km/h (2 Bft) W-SW 250 0 min 0,000 mm 0,0 UV-I 5 W/m 15,2 C 17,7 C 12,9 km/h (3 Bft) 96,43 %
04.09.2018 19:46 18,3 C 19,4 C 17,8 C 82 % 1014,3 hPa 0,0 l/m 12,2 km/h (2 Bft) W 270 0 min 0,000 mm 0,0 UV-I 5 W/m 15,2 C 16,0 C 19,3 km/h (3 Bft) 97,37 %
04.09.2018 19:48 18,2 C 19,4 C 17,8 C 82 % 1014,3 hPa 0,0 l/m 11,4 km/h (2 Bft) W-SW 250 0 min 0,000 mm 0,0 UV-I 4 W/m 15,1 C 16,2 C 16,1 km/h (3 Bft) 98,11 %
04.09.2018 19:50 18,2 C 19,4 C 17,8 C 82 % 1014,3 hPa 0,0 l/m 9,5 km/h (2 Bft) W-SW 249 0 min 0,000 mm 0,0 UV-I 0 W/m 15,1 C 16,8 C 16,1 km/h (3 Bft) 97,56 %
04.09.2018 19:52 18,2 C 19,4 C 17,8 C 82 % 1014,4 hPa 0,0 l/m 8,9 km/h (2 Bft) W 263 0 min 0,000 mm 0,0 UV-I 0 W/m 15,1 C 17,1 C 14,5 km/h (3 Bft) 96,00 %
04.09.2018 19:54 18,2 C 19,4 C 17,8 C 82 % 1014,5 hPa 0,0 l/m 10,8 km/h (2 Bft) W-SW 249 0 min 0,000 mm 0,0 UV-I 0 W/m 15,1 C 16,4 C 14,5 km/h (3 Bft) 96,23 %
04.09.2018 19:56 18,2 C 19,4 C 17,8 C 83 % 1014,5 hPa 0,0 l/m 9,7 km/h (2 Bft) W 261 0 min 0,000 mm 0,0 UV-I 0 W/m 15,3 C 16,8 C 14,5 km/h (3 Bft) 97,62 %
04.09.2018 19:58 18,1 C 19,4 C 17,8 C 83 % 1014,6 hPa 0,0 l/m 6,5 km/h (2 Bft) W 266 0 min 0,000 mm 0,0 UV-I 0 W/m 15,2 C 18,1 C 11,3 km/h (2 Bft) 97,73 %
04.09.2018 20:00 18,1 C 19,4 C 17,2 C 83 % 1014,6 hPa 0,0 l/m 8,8 km/h (2 Bft) W-SW 253 0 min 0,026 mm 0,0 UV-I 0 W/m 15,2 C 17,0 C 14,5 km/h (3 Bft) 96,23 %
04.09.2018 20:02 18,1 C 19,4 C 17,2 C 83 % 1014,6 hPa 0,0 l/m 6,6 km/h (2 Bft) W-SW 257 0 min 0,000 mm 0,0 UV-I 0 W/m 15,2 C 18,0 C 11,3 km/h (2 Bft) 97,56 %
04.09.2018 20:04 18,1 C 19,4 C 17,2 C 83 % 1014,7 hPa 0,0 l/m 8,7 km/h (2 Bft) W 270 0 min 0,000 mm 0,0 UV-I 0 W/m 15,2 C 17,1 C 14,5 km/h (3 Bft) 96,00 %
04.09.2018 20:06 18,1 C 19,4 C 17,2 C 83 % 1014,6 hPa 0,0 l/m 8,5 km/h (2 Bft) W-SW 250 0 min 0,000 mm 0,0 UV-I 0 W/m 15,2 C 17,1 C 14,5 km/h (3 Bft) 97,14 %
04.09.2018 20:08 18,1 C 19,4 C 17,2 C 83 % 1014,7 hPa 0,0 l/m 7,5 km/h (2 Bft) W-SW 252 0 min 0,000 mm 0,0 UV-I 0 W/m 15,2 C 17,6 C 12,9 km/h (3 Bft) 95,16 %
04.09.2018 20:10 18,0 C 19,4 C 17,2 C 83 % 1014,7 hPa 0,0 l/m 8,4 km/h (2 Bft) W 265 0 min 0,000 mm 0,0 UV-I 0 W/m 15,1 C 17,1 C 12,9 km/h (3 Bft) 100,00 %
04.09.2018 20:12 18,0 C 19,4 C 17,2 C 83 % 1014,7 hPa 0,0 l/m 11,8 km/h (2 Bft) W 265 0 min 0,000 mm 0,0 UV-I 0 W/m 15,1 C 15,8 C 19,3 km/h (3 Bft) 100,00 %
04.09.2018 20:14 18,0 C 19,4 C 17,2 C 83 % 1014,7 hPa 0,0 l/m 8,3 km/h (2 Bft) W-SW 240 0 min 0,000 mm 0,0 UV-I 0 W/m 15,1 C 17,1 C 14,5 km/h (3 Bft) 97,37 %
04.09.2018 20:16 18,0 C 19,4 C 17,2 C 83 % 1014,8 hPa 0,0 l/m 9,9 km/h (2 Bft) W 271 0 min 0,000 mm 0,0 UV-I 0 W/m 15,1 C 16,5 C 16,1 km/h (3 Bft) 100,00 %
04.09.2018 20:19 17,9 C 19,4 C 17,2 C 84 % 1014,9 hPa 0,0 l/m 8,2 km/h (2 Bft) W 265 0 min 0,000 mm 0,0 UV-I 0 W/m 15,2 C 17,1 C 14,5 km/h (3 Bft) 97,50 %
04.09.2018 20:20 17,9 C 19,4 C 17,2 C 84 % 1014,9 hPa 0,0 l/m 11,5 km/h (2 Bft) W-SW 255 0 min 0,000 mm 0,0 UV-I 0 W/m 15,2 C 15,8 C 16,1 km/h (3 Bft) 100,00 %
04.09.2018 20:22 17,9 C 19,4 C 17,2 C 83 % 1014,9 hPa 0,0 l/m 9,2 km/h (2 Bft) SW 232 0 min 0,000 mm 0,0 UV-I 0 W/m 15,0 C 16,6 C 12,9 km/h (3 Bft) 97,14 %
04.09.2018 20:24 17,9 C 19,4 C 17,2 C 83 % 1014,9 hPa 0,0 l/m 10,9 km/h (2 Bft) W-SW 252 0 min 0,000 mm 0,0 UV-I 0 W/m 15,0 C 16,0 C 14,5 km/h (3 Bft) 98,00 %
04.09.2018 20:26 17,8 C 19,4 C 17,2 C 84 % 1014,9 hPa 0,0 l/m 6,4 km/h (2 Bft) W-SW 244 0 min 0,000 mm 0,0 UV-I 0 W/m 15,1 C 17,8 C 12,9 km/h (3 Bft) 95,74 %
04.09.2018 20:28 17,8 C 19,4 C 17,2 C 84 % 1015,0 hPa 0,0 l/m 7,9 km/h (2 Bft) W 268 0 min 0,000 mm 0,0 UV-I 0 W/m 15,1 C 17,1 C 12,9 km/h (3 Bft) 98,00 %
04.09.2018 20:30 17,8 C 19,4 C 17,2 C 84 % 1014,9 hPa 0,0 l/m 11,4 km/h (2 Bft) W-SW 241 0 min 0,000 mm 0,0 UV-I 0 W/m 15,1 C 15,7 C 16,1 km/h (3 Bft) 97,87 %
04.09.2018 20:32 17,8 C 19,4 C 16,7 C 84 % 1014,9 hPa 0,0 l/m 10,7 km/h (2 Bft) W-SW 247 0 min 0,000 mm 0,0 UV-I 0 W/m 15,1 C 15,9 C 14,5 km/h (3 Bft) 98,00 %
04.09.2018 20:34 17,7 C 19,4 C 16,7 C 84 % 1014,9 hPa 0,0 l/m 10,7 km/h (2 Bft) W-SW 239 0 min 0,000 mm 0,0 UV-I 0 W/m 15,0 C 15,8 C 16,1 km/h (3 Bft) 97,22 %
04.09.2018 20:36 17,7 C 19,4 C 16,7 C 84 % 1014,9 hPa 0,0 l/m 11,3 km/h (2 Bft) SW 235 0 min 0,000 mm 0,0 UV-I 0 W/m 15,0 C 15,6 C 16,1 km/h (3 Bft) 98,00 %
04.09.2018 20:38 17,6 C 19,4 C 16,7 C 84 % 1014,9 hPa 0,0 l/m 10,6 km/h (2 Bft) SW 223 0 min 0,000 mm 0,0 UV-I 0 W/m 14,9 C 15,8 C 16,1 km/h (3 Bft) 95,74 %
04.09.2018 20:40 17,6 C 19,4 C 16,7 C 84 % 1014,9 hPa 0,0 l/m 11,7 km/h (2 Bft) W-SW 240 0 min 0,000 mm 0,0 UV-I 0 W/m 14,9 C 15,4 C 16,1 km/h (3 Bft) 98,11 %
04.09.2018 20:42 17,6 C 19,4 C 16,7 C 85 % 1014,9 hPa 0,0 l/m 9,5 km/h (2 Bft) W-SW 240 0 min 0,000 mm 0,0 UV-I 0 W/m 15,0 C 16,2 C 12,9 km/h (3 Bft) 97,56 %
04.09.2018 20:44 17,4 C 19,4 C 16,7 C 85 % 1014,9 hPa 0,0 l/m 10,8 km/h (2 Bft) SW 234 0 min 0,000 mm 0,0 UV-I 0 W/m 14,8 C 15,5 C 14,5 km/h (3 Bft) 95,12 %
04.09.2018 20:46 17,4 C 19,4 C 16,7 C 85 % 1014,9 hPa 0,0 l/m 7,7 km/h (2 Bft) SW 229 0 min 0,000 mm 0,0 UV-I 0 W/m 14,8 C 16,8 C 12,9 km/h (3 Bft) 96,23 %
04.09.2018 20:48 17,4 C 19,4 C 16,7 C 85 % 1015,0 hPa 0,0 l/m 10,7 km/h (2 Bft) SW 229 0 min 0,000 mm 0,0 UV-I 0 W/m 14,8 C 15,5 C 16,1 km/h (3 Bft) 96,00 %
04.09.2018 20:50 17,3 C 19,4 C 16,7 C 85 % 1015,0 hPa 0,0 l/m 9,3 km/h (2 Bft) W 259 0 min 0,000 mm 0,0 UV-I 0 W/m 14,8 C 15,9 C 16,1 km/h (3 Bft) 97,87 %
04.09.2018 20:52 17,3 C 19,4 C 16,7 C 85 % 1015,1 hPa 0,0 l/m 8,7 km/h (2 Bft) SW 223 0 min 0,000 mm 0,0 UV-I 0 W/m 14,8 C 16,2 C 12,9 km/h (3 Bft) 98,11 %
04.09.2018 20:54 17,3 C 19,4 C 16,7 C 85 % 1015,1 hPa 0,0 l/m 10,2 km/h (2 Bft) SW 232 0 min 0,000 mm 0,0 UV-I 0 W/m 14,8 C 15,6 C 14,5 km/h (3 Bft) 100,00 %
04.09.2018 20:56 17,3 C 19,4 C 16,7 C 85 % 1015,1 hPa 0,0 l/m 7,8 km/h (2 Bft) W-SW 251 0 min 0,000 mm 0,0 UV-I 0 W/m 14,8 C 16,6 C 12,9 km/h (3 Bft) 100,00 %
04.09.2018 20:58 17,3 C 19,4 C 16,7 C 85 % 1015,1 hPa 0,0 l/m 10,2 km/h (2 Bft) SW 230 0 min 0,000 mm 0,0 UV-I 0 W/m 14,8 C 15,6 C 16,1 km/h (3 Bft) 98,00 %
04.09.2018 21:00 17,3 C 19,4 C 16,7 C 85 % 1015,1 hPa 0,0 l/m 10,1 km/h (2 Bft) W 268 0 min 0,000 mm 0,0 UV-I 0 W/m 14,8 C 15,6 C 17,7 km/h (3 Bft) 100,00 %
04.09.2018 21:02 17,2 C 19,4 C 16,7 C 85 % 1015,1 hPa 0,0 l/m 10,9 km/h (2 Bft) W-SW 244 0 min 0,025 mm 0,0 UV-I 0 W/m 14,7 C 15,2 C 19,3 km/h (3 Bft) 100,00 %
04.09.2018 21:04 17,2 C 19,4 C 16,7 C 85 % 1015,1 hPa 0,0 l/m 11,6 km/h (2 Bft) W 260 0 min 0,000 mm 0,0 UV-I 0 W/m 14,7 C 14,9 C 16,1 km/h (3 Bft) 97,37 %
04.09.2018 21:06 17,3 C 19,4 C 16,7 C 85 % 1015,1 hPa 0,0 l/m 14,2 km/h (3 Bft) W-SW 251 0 min 0,000 mm 0,0 UV-I 0 W/m 14,8 C 14,2 C 19,3 km/h (3 Bft) 100,00 %
04.09.2018 21:08 17,2 C 19,4 C 16,7 C 85 % 1015,1 hPa 0,0 l/m 9,9 km/h (2 Bft) W-SW 239 0 min 0,000 mm 0,0 UV-I 0 W/m 14,7 C 15,6 C 16,1 km/h (3 Bft) 97,73 %
04.09.2018 21:10 17,2 C 19,4 C 16,7 C 85 % 1015,1 hPa 0,0 l/m 12,9 km/h (3 Bft) W-SW 254 0 min 0,000 mm 0,0 UV-I 0 W/m 14,7 C 14,5 C 19,3 km/h (3 Bft) 97,22 %
04.09.2018 21:12 17,2 C 19,4 C 16,7 C 85 % 1015,1 hPa 0,0 l/m 10,1 km/h (2 Bft) W 271 0 min 0,000 mm 0,0 UV-I 0 W/m 14,7 C 15,5 C 16,1 km/h (3 Bft) 96,43 %
04.09.2018 21:14 17,2 C 19,4 C 16,7 C 85 % 1015,2 hPa 0,0 l/m 11,3 km/h (2 Bft) W 266 0 min 0,000 mm 0,0 UV-I 0 W/m 14,7 C 15,1 C 17,7 km/h (3 Bft) 97,87 %
04.09.2018 21:16 17,2 C 19,4 C 16,7 C 85 % 1015,2 hPa 0,0 l/m 10,9 km/h (2 Bft) W-SW 256 0 min 0,000 mm 0,0 UV-I 0 W/m 14,7 C 15,2 C 14,5 km/h (3 Bft) 95,74 %
04.09.2018 21:18 17,2 C 19,4 C 16,7 C 86 % 1015,2 hPa 0,0 l/m 9,3 km/h (2 Bft) W-SW 244 0 min 0,000 mm 0,0 UV-I 0 W/m 14,8 C 15,8 C 16,1 km/h (3 Bft) 96,43 %
04.09.2018 21:20 17,1 C 19,4 C 16,7 C 86 % 1015,1 hPa 0,0 l/m 12,2 km/h (2 Bft) W-SW 258 0 min 0,000 mm 0,0 UV-I 0 W/m 14,7 C 14,6 C 19,3 km/h (3 Bft) 96,55 %
04.09.2018 21:22 17,1 C 19,4 C 16,7 C 86 % 1015,1 hPa 0,0 l/m 9,2 km/h (2 Bft) W 269 0 min 0,000 mm 0,0 UV-I 0 W/m 14,7 C 15,8 C 14,5 km/h (3 Bft) 94,34 %
04.09.2018 21:24 17,1 C 19,4 C 16,1 C 86 % 1015,3 hPa 0,0 l/m 9,8 km/h (2 Bft) W 274 0 min 0,000 mm 0,0 UV-I 0 W/m 14,7 C 15,5 C 14,5 km/h (3 Bft) 94,64 %
04.09.2018 21:26 17,0 C 19,4 C 16,1 C 86 % 1015,3 hPa 0,0 l/m 6,6 km/h (2 Bft) SW 218 0 min 0,000 mm 0,0 UV-I 0 W/m 14,6 C 16,9 C 11,3 km/h (2 Bft) 92,68 %
04.09.2018 21:28 17,0 C 19,4 C 16,1 C 86 % 1015,3 hPa 0,0 l/m 8,6 km/h (2 Bft) W 270 0 min 0,000 mm 0,0 UV-I 0 W/m 14,6 C 15,9 C 14,5 km/h (3 Bft) 95,74 %
04.09.2018 21:30 17,0 C 19,4 C 16,1 C 86 % 1015,4 hPa 0,0 l/m 7,5 km/h (2 Bft) W 267 0 min 0,000 mm 0,0 UV-I 0 W/m 14,6 C 16,4 C 14,5 km/h (3 Bft) 94,00 %
04.09.2018 21:32 16,9 C 19,4 C 16,1 C 86 % 1015,4 hPa 0,0 l/m 6,6 km/h (2 Bft) W 263 0 min 0,000 mm 0,0 UV-I 0 W/m 14,5 C 16,8 C 11,3 km/h (2 Bft) 94,74 %
04.09.2018 21:34 16,9 C 19,4 C 16,1 C 86 % 1015,4 hPa 0,0 l/m 5,8 km/h (2 Bft) W-SW 257 0 min 0,000 mm 0,0 UV-I 0 W/m 14,5 C 16,9 C 9,7 km/h (2 Bft) 96,43 %
04.09.2018 21:36 16,9 C 19,4 C 16,1 C 87 % 1015,4 hPa 0,0 l/m 6,5 km/h (2 Bft) W 260 0 min 0,000 mm 0,0 UV-I 0 W/m 14,7 C 16,9 C 12,9 km/h (3 Bft) 94,00 %
04.09.2018 21:38 16,9 C 19,4 C 16,1 C 87 % 1015,4 hPa 0,0 l/m 8,0 km/h (2 Bft) W-SW 241 0 min 0,000 mm 0,0 UV-I 0 W/m 14,7 C 16,1 C 11,3 km/h (2 Bft) 97,37 %
04.09.2018 21:40 16,9 C 19,4 C 16,1 C 87 % 1015,5 hPa 0,0 l/m 5,6 km/h (1 Bft) W 260 0 min 0,000 mm 0,0 UV-I 0 W/m 14,7 C 16,9 C 11,3 km/h (2 Bft) 98,11 %
04.09.2018 21:42 16,9 C 19,4 C 16,7 C 87 % 1015,4 hPa 0,0 l/m 5,1 km/h (1 Bft) SW 234 0 min 0,000 mm 0,0 UV-I 0 W/m 14,7 C 16,9 C 8,0 km/h (2 Bft) 97,87 %
04.09.2018 21:44 16,9 C 19,4 C 16,7 C 87 % 1015,4 hPa 0,0 l/m 3,7 km/h (1 Bft) W-SW 254 0 min 0,000 mm 0,0 UV-I 0 W/m 14,7 C 16,9 C 9,7 km/h (2 Bft) 96,00 %
04.09.2018 21:46 16,9 C 19,4 C 16,7 C 87 % 1015,4 hPa 0,0 l/m 5,1 km/h (1 Bft) W-SW 258 0 min 0,000 mm 0,0 UV-I 0 W/m 14,7 C 16,9 C 9,7 km/h (2 Bft) 100,00 %
04.09.2018 21:48 16,8 C 19,4 C 16,1 C 87 % 1015,4 hPa 0,0 l/m 7,9 km/h (2 Bft) W-SW 254 0 min 0,000 mm 0,0 UV-I 0 W/m 14,6 C 16,0 C 14,5 km/h (3 Bft) 96,00 %
04.09.2018 21:50 16,8 C 19,4 C 16,1 C 87 % 1015,4 hPa 0,0 l/m 8,3 km/h (2 Bft) W 271 0 min 0,000 mm 0,0 UV-I 0 W/m 14,6 C 15,8 C 14,5 km/h (3 Bft) 97,62 %
04.09.2018 21:52 16,8 C 19,4 C 16,1 C 87 % 1015,4 hPa 0,0 l/m 8,9 km/h (2 Bft) W-SW 253 0 min 0,000 mm 0,0 UV-I 0 W/m 14,6 C 15,6 C 14,5 km/h (3 Bft) 98,11 %
04.09.2018 21:54 16,8 C 19,4 C 16,1 C 87 % 1015,4 hPa 0,0 l/m 8,2 km/h (2 Bft) W-SW 253 0 min 0,000 mm 0,0 UV-I 0 W/m 14,6 C 15,9 C 14,5 km/h (3 Bft) 98,00 %
04.09.2018 21:56 16,8 C 19,4 C 16,1 C 87 % 1015,4 hPa 0,0 l/m 8,4 km/h (2 Bft) W-SW 254 0 min 0,000 mm 0,0 UV-I 0 W/m 14,6 C 15,8 C 12,9 km/h (3 Bft) 95,74 %
04.09.2018 21:58 16,8 C 19,4 C 16,1 C 87 % 1015,5 hPa 0,0 l/m 8,3 km/h (2 Bft) W 266 0 min 0,000 mm 0,0 UV-I 0 W/m 14,6 C 15,8 C 16,1 km/h (3 Bft) 94,74 %
04.09.2018 22:00 16,8 C 19,4 C 16,1 C 87 % 1015,5 hPa 0,0 l/m 8,8 km/h (2 Bft) W-SW 246 0 min 0,000 mm 0,0 UV-I 0 W/m 14,6 C 15,6 C 14,5 km/h (3 Bft) 98,11 %
04.09.2018 22:02 16,8 C 19,4 C 16,1 C 87 % 1015,5 hPa 0,0 l/m 10,1 km/h (2 Bft) W-SW 252 0 min 0,025 mm 0,0 UV-I 0 W/m 14,6 C 15,1 C 17,7 km/h (3 Bft) 96,00 %
04.09.2018 22:04 16,8 C 19,4 C 16,1 C 87 % 1015,5 hPa 0,0 l/m 9,4 km/h (2 Bft) SW 233 0 min 0,000 mm 0,0 UV-I 0 W/m 14,6 C 15,4 C 14,5 km/h (3 Bft) 94,74 %
04.09.2018 22:06 16,8 C 19,4 C 16,1 C 87 % 1015,4 hPa 0,0 l/m 10,3 km/h (2 Bft) W 262 0 min 0,000 mm 0,0 UV-I 0 W/m 14,6 C 15,0 C 14,5 km/h (3 Bft) 98,00 %
04.09.2018 22:08 16,8 C 19,4 C 16,1 C 87 % 1015,5 hPa 0,0 l/m 10,5 km/h (2 Bft) W 263 0 min 0,000 mm 0,0 UV-I 0 W/m 14,6 C 14,9 C 17,7 km/h (3 Bft) 96,23 %
04.09.2018 22:10 16,8 C 19,4 C 16,1 C 87 % 1015,5 hPa 0,0 l/m 8,1 km/h (2 Bft) W 281 0 min 0,000 mm 0,0 UV-I 0 W/m 14,6 C 15,9 C 14,5 km/h (3 Bft) 97,37 %
04.09.2018 22:12 16,7 C 19,4 C 16,1 C 87 % 1015,5 hPa 0,0 l/m 8,8 km/h (2 Bft) W-SW 238 0 min 0,000 mm 0,0 UV-I 0 W/m 14,5 C 15,5 C 14,5 km/h (3 Bft) 100,00 %
04.09.2018 22:14 16,7 C 19,4 C 16,1 C 87 % 1015,4 hPa 0,0 l/m 7,1 km/h (2 Bft) W 262 0 min 0,000 mm 0,0 UV-I 0 W/m 14,5 C 16,3 C 11,3 km/h (2 Bft) 98,00 %
04.09.2018 22:16 16,7 C 19,4 C 16,1 C 87 % 1015,5 hPa 0,0 l/m 10,3 km/h (2 Bft) W-SW 252 0 min 0,000 mm 0,0 UV-I 0 W/m 14,5 C 14,9 C 16,1 km/h (3 Bft) 97,87 %
04.09.2018 22:18 16,7 C 19,4 C 15,6 C 88 % 1015,4 hPa 0,0 l/m 6,9 km/h (2 Bft) W-SW 250 0 min 0,000 mm 0,0 UV-I 0 W/m 14,7 C 16,4 C 9,7 km/h (2 Bft) 97,37 %
04.09.2018 22:20 16,6 C 19,4 C 15,6 C 88 % 1015,4 hPa 0,0 l/m 9,9 km/h (2 Bft) W-SW 246 0 min 0,000 mm 0,0 UV-I 0 W/m 14,6 C 14,9 C 14,5 km/h (3 Bft) 96,72 %
04.09.2018 22:22 16,6 C 19,4 C 15,6 C 88 % 1015,5 hPa 0,0 l/m 8,3 km/h (2 Bft) W-SW 248 0 min 0,000 mm 0,0 UV-I 0 W/m 14,6 C 15,6 C 16,1 km/h (3 Bft) 97,37 %
04.09.2018 22:24 16,6 C 19,4 C 15,6 C 88 % 1015,5 hPa 0,0 l/m 9,8 km/h (2 Bft) SW 224 0 min 0,000 mm 0,0 UV-I 0 W/m 14,6 C 15,0 C 16,1 km/h (3 Bft) 95,56 %
04.09.2018 22:26 16,6 C 19,4 C 15,6 C 88 % 1015,5 hPa 0,0 l/m 9,3 km/h (2 Bft) W-SW 245 0 min 0,000 mm 0,0 UV-I 0 W/m 14,6 C 15,2 C 14,5 km/h (3 Bft) 96,15 %
04.09.2018 22:28 16,6 C 19,4 C 15,6 C 88 % 1015,5 hPa 0,0 l/m 9,9 km/h (2 Bft) SW 227 0 min 0,000 mm 0,0 UV-I 0 W/m 14,6 C 14,9 C 14,5 km/h (3 Bft) 100,00 %
04.09.2018 22:30 16,5 C 19,4 C 15,6 C 88 % 1015,5 hPa 0,0 l/m 7,7 km/h (2 Bft) W-SW 246 0 min 0,000 mm 0,0 UV-I 0 W/m 14,5 C 15,8 C 12,9 km/h (3 Bft) 96,43 %
04.09.2018 22:32 16,5 C 19,4 C 15,6 C 88 % 1015,5 hPa 0,0 l/m 8,0 km/h (2 Bft) W 261 0 min 0,000 mm 0,0 UV-I 0 W/m 14,5 C 15,7 C 11,3 km/h (2 Bft) 98,00 %
04.09.2018 22:34 16,5 C 19,4 C 15,6 C 88 % 1015,5 hPa 0,0 l/m 6,5 km/h (2 Bft) SW 221 0 min 0,000 mm 0,0 UV-I 0 W/m 14,5 C 16,5 C 11,3 km/h (2 Bft) 93,62 %
04.09.2018 22:36 16,5 C 19,4 C 15,6 C 88 % 1015,5 hPa 0,0 l/m 10,5 km/h (2 Bft) W-SW 241 0 min 0,000 mm 0,0 UV-I 0 W/m 14,5 C 14,6 C 16,1 km/h (3 Bft) 94,29 %
04.09.2018 22:38 16,4 C 19,4 C 15,6 C 88 % 1015,5 hPa 0,0 l/m 8,3 km/h (2 Bft) W-SW 255 0 min 0,000 mm 0,0 UV-I 0 W/m 14,4 C 15,4 C 12,9 km/h (3 Bft) 94,34 %
04.09.2018 22:40 16,4 C 19,4 C 15,6 C 88 % 1015,4 hPa 0,0 l/m 10,3 km/h (2 Bft) SW 235 0 min 0,000 mm 0,0 UV-I 0 W/m 14,4 C 14,5 C 17,7 km/h (3 Bft) 94,00 %
04.09.2018 22:42 16,4 C 19,4 C 15,6 C 88 % 1015,4 hPa 0,0 l/m 9,8 km/h (2 Bft) W-SW 251 0 min 0,000 mm 0,0 UV-I 0 W/m 14,4 C 14,7 C 14,5 km/h (3 Bft) 94,00 %
04.09.2018 22:44 16,4 C 19,4 C 15,6 C 88 % 1015,4 hPa 0,0 l/m 9,0 km/h (2 Bft) W 260 0 min 0,000 mm 0,0 UV-I 0 W/m 14,4 C 15,1 C 14,5 km/h (3 Bft) 95,74 %
04.09.2018 22:46 16,4 C 19,4 C 15,6 C 88 % 1015,4 hPa 0,0 l/m 8,0 km/h (2 Bft) W-SW 256 0 min 0,000 mm 0,0 UV-I 0 W/m 14,4 C 15,6 C 14,5 km/h (3 Bft) 94,74 %
04.09.2018 22:48 16,4 C 19,4 C 16,1 C 88 % 1015,4 hPa 0,0 l/m 10,6 km/h (2 Bft) W-SW 250 0 min 0,000 mm 0,0 UV-I 0 W/m 14,4 C 14,4 C 16,1 km/h (3 Bft) 96,23 %
04.09.2018 22:50 16,5 C 19,4 C 16,1 C 88 % 1015,4 hPa 0,0 l/m 8,5 km/h (2 Bft) W 267 0 min 0,000 mm 0,0 UV-I 0 W/m 14,5 C 15,4 C 16,1 km/h (3 Bft) 93,62 %
04.09.2018 22:52 16,6 C 19,4 C 16,1 C 88 % 1015,4 hPa 0,0 l/m 8,6 km/h (2 Bft) W-SW 248 0 min 0,000 mm 0,0 UV-I 0 W/m 14,6 C 15,5 C 14,5 km/h (3 Bft) 97,14 %
04.09.2018 22:54 16,6 C 19,4 C 16,1 C 88 % 1015,4 hPa 0,0 l/m 8,1 km/h (2 Bft) SW 229 0 min 0,000 mm 0,0 UV-I 0 W/m 14,6 C 15,7 C 14,5 km/h (3 Bft) 98,00 %
04.09.2018 22:56 16,6 C 19,4 C 16,1 C 88 % 1015,4 hPa 0,0 l/m 8,3 km/h (2 Bft) SW 222 0 min 0,000 mm 0,0 UV-I 0 W/m 14,6 C 15,6 C 16,1 km/h (3 Bft) 98,21 %
04.09.2018 22:58 16,6 C 19,4 C 16,1 C 88 % 1015,4 hPa 0,0 l/m 8,7 km/h (2 Bft) W-SW 254 0 min 0,000 mm 0,0 UV-I 0 W/m 14,6 C 15,5 C 14,5 km/h (3 Bft) 97,37 %
04.09.2018 23:00 16,6 C 19,4 C 16,1 C 88 % 1015,4 hPa 0,0 l/m 6,2 km/h (2 Bft) W-SW 245 0 min 0,026 mm 0,0 UV-I 0 W/m 14,6 C 16,6 C 11,3 km/h (2 Bft) 100,00 %
04.09.2018 23:02 16,6 C 19,4 C 16,1 C 88 % 1015,4 hPa 0,0 l/m 8,3 km/h (2 Bft) W-SW 257 0 min 0,000 mm 0,0 UV-I 0 W/m 14,6 C 15,6 C 14,5 km/h (3 Bft) 97,87 %
04.09.2018 23:04 16,6 C 19,4 C 16,1 C 88 % 1015,5 hPa 0,0 l/m 9,4 km/h (2 Bft) W 271 0 min 0,000 mm 0,0 UV-I 0 W/m 14,6 C 15,1 C 14,5 km/h (3 Bft) 98,00 %
04.09.2018 23:06 16,6 C 19,4 C 16,1 C 88 % 1015,5 hPa 0,0 l/m 11,9 km/h (2 Bft) W 263 0 min 0,000 mm 0,0 UV-I 0 W/m 14,6 C 14,2 C 16,1 km/h (3 Bft) 100,00 %
04.09.2018 23:08 16,7 C 19,4 C 16,7 C 88 % 1015,6 hPa 0,0 l/m 10,4 km/h (2 Bft) W 271 0 min 0,000 mm 0,0 UV-I 0 W/m 14,7 C 14,8 C 16,1 km/h (3 Bft) 100,00 %
04.09.2018 23:10 16,7 C 19,4 C 16,7 C 88 % 1015,6 hPa 0,0 l/m 6,4 km/h (2 Bft) W 273 0 min 0,000 mm 0,0 UV-I 0 W/m 14,7 C 16,7 C 12,9 km/h (3 Bft) 100,00 %
04.09.2018 23:12 16,7 C 19,4 C 16,7 C 87 % 1015,6 hPa 0,0 l/m 7,0 km/h (2 Bft) W 265 0 min 0,000 mm 0,0 UV-I 0 W/m 14,5 C 16,4 C 12,9 km/h (3 Bft) 97,22 %
04.09.2018 23:14 16,7 C 19,4 C 16,7 C 88 % 1015,6 hPa 0,0 l/m 10,2 km/h (2 Bft) W 264 0 min 0,000 mm 0,0 UV-I 0 W/m 14,7 C 14,9 C 14,5 km/h (3 Bft) 100,00 %
04.09.2018 23:16 16,7 C 19,4 C 16,7 C 87 % 1015,6 hPa 0,0 l/m 10,9 km/h (2 Bft) W 263 0 min 0,000 mm 0,0 UV-I 0 W/m 14,5 C 14,6 C 17,7 km/h (3 Bft) 100,00 %
04.09.2018 23:18 16,8 C 19,4 C 16,7 C 87 % 1015,6 hPa 0,0 l/m 5,9 km/h (2 Bft) W-NW 293 0 min 0,000 mm 0,0 UV-I 0 W/m 14,6 C 16,8 C 11,3 km/h (2 Bft) 100,00 %
04.09.2018 23:20 16,8 C 19,4 C 16,7 C 87 % 1015,6 hPa 0,0 l/m 7,0 km/h (2 Bft) W 273 0 min 0,000 mm 0,0 UV-I 0 W/m 14,6 C 16,5 C 11,3 km/h (2 Bft) 100,00 %
04.09.2018 23:22 16,8 C 19,4 C 16,7 C 88 % 1015,6 hPa 0,0 l/m 2,6 km/h (1 Bft) W 272 0 min 0,000 mm 0,0 UV-I 0 W/m 14,8 C 16,8 C 8,0 km/h (2 Bft) 100,00 %
04.09.2018 23:24 16,7 C 19,4 C 16,7 C 88 % 1015,6 hPa 0,0 l/m 3,3 km/h (1 Bft) W 281 0 min 0,000 mm 0,0 UV-I 0 W/m 14,7 C 16,7 C 6,4 km/h (2 Bft) 100,00 %
04.09.2018 23:26 16,8 C 19,4 C 16,7 C 88 % 1015,6 hPa 0,0 l/m 1,7 km/h (1 Bft) W 278 0 min 0,000 mm 0,0 UV-I 0 W/m 14,8 C 16,8 C 6,4 km/h (2 Bft) 100,00 %
04.09.2018 23:28 16,8 C 19,4 C 16,7 C 88 % 1015,6 hPa 0,0 l/m 0,1 km/h (0 Bft) W 277 0 min 0,000 mm 0,0 UV-I 0 W/m 14,8 C 16,8 C 1,6 km/h (1 Bft) 100,00 %
04.09.2018 23:30 16,7 C 19,4 C 16,7 C 88 % 1015,6 hPa 0,0 l/m 0,0 km/h (0 Bft) W 263 0 min 0,000 mm 0,0 UV-I 0 W/m 14,7 C 16,7 C 0,0 km/h (0 Bft) 100,00 %
04.09.2018 23:32 16,7 C 19,4 C 16,7 C 88 % 1015,6 hPa 0,0 l/m 0,0 km/h (0 Bft) W 270 0 min 0,000 mm 0,0 UV-I 0 W/m 14,7 C 16,7 C 1,6 km/h (1 Bft) 98,00 %
04.09.2018 23:34 16,7 C 19,4 C 16,7 C 88 % 1015,6 hPa 0,0 l/m 0,0 km/h (0 Bft) W 277 0 min 0,000 mm 0,0 UV-I 0 W/m 14,7 C 16,7 C 0,0 km/h (0 Bft) 100,00 %
04.09.2018 23:36 16,7 C 19,4 C 16,7 C 88 % 1015,6 hPa 0,0 l/m 0,7 km/h (0 Bft) W 259 0 min 0,000 mm 0,0 UV-I 0 W/m 14,7 C 16,7 C 4,8 km/h (1 Bft) 100,00 %
04.09.2018 23:38 16,7 C 19,4 C 16,7 C 88 % 1015,6 hPa 0,0 l/m 0,0 km/h (0 Bft) W 275 0 min 0,000 mm 0,0 UV-I 0 W/m 14,7 C 16,7 C 0,0 km/h (0 Bft) 100,00 %
04.09.2018 23:40 16,7 C 19,4 C 16,7 C 88 % 1015,6 hPa 0,0 l/m 2,1 km/h (1 Bft) W 278 0 min 0,000 mm 0,0 UV-I 0 W/m 14,7 C 16,7 C 6,4 km/h (2 Bft) 100,00 %
04.09.2018 23:42 16,7 C 19,4 C 16,7 C 88 % 1015,5 hPa 0,0 l/m 4,8 km/h (1 Bft) W-NW 285 0 min 0,000 mm 0,0 UV-I 0 W/m 14,7 C 16,7 C 9,7 km/h (2 Bft) 100,00 %
04.09.2018 23:44 16,7 C 19,4 C 16,7 C 88 % 1015,5 hPa 0,0 l/m 3,1 km/h (1 Bft) W-SW 248 0 min 0,000 mm 0,0 UV-I 0 W/m 14,7 C 16,7 C 6,4 km/h (2 Bft) 100,00 %
04.09.2018 23:46 16,7 C 19,4 C 16,7 C 88 % 1015,6 hPa 0,0 l/m 3,5 km/h (1 Bft) W-SW 258 0 min 0,000 mm 0,0 UV-I 0 W/m 14,7 C 16,7 C 6,4 km/h (2 Bft) 98,18 %
04.09.2018 23:48 16,7 C 19,4 C 16,7 C 88 % 1015,5 hPa 0,0 l/m 6,3 km/h (2 Bft) W 261 0 min 0,000 mm 0,0 UV-I 0 W/m 14,7 C 16,7 C 9,7 km/h (2 Bft) 100,00 %
04.09.2018 23:50 16,7 C 19,4 C 16,7 C 88 % 1015,5 hPa 0,0 l/m 4,0 km/h (1 Bft) W 263 0 min 0,000 mm 0,0 UV-I 0 W/m 14,7 C 16,7 C 12,9 km/h (3 Bft) 100,00 %
04.09.2018 23:52 16,7 C 19,4 C 16,1 C 89 % 1015,5 hPa 0,0 l/m 3,2 km/h (1 Bft) W 271 0 min 0,000 mm 0,0 UV-I 0 W/m 14,9 C 16,7 C 9,7 km/h (2 Bft) 100,00 %
04.09.2018 23:54 16,7 C 19,4 C 16,1 C 88 % 1015,5 hPa 0,0 l/m 6,6 km/h (2 Bft) W-SW 247 0 min 0,000 mm 0,0 UV-I 0 W/m 14,7 C 16,6 C 12,9 km/h (3 Bft) 100,00 %
04.09.2018 23:56 16,7 C 19,4 C 16,1 C 89 % 1015,6 hPa 0,0 l/m 6,9 km/h (2 Bft) W 275 0 min 0,000 mm 0,0 UV-I 0 W/m 14,9 C 16,4 C 11,3 km/h (2 Bft) 100,00 %
04.09.2018 23:58 16,7 C 19,4 C 16,1 C 89 % 1015,5 hPa 0,0 l/m 7,6 km/h (2 Bft) W 281 0 min 0,000 mm 0,0 UV-I 0 W/m 14,9 C 16,1 C 12,9 km/h (3 Bft) 100,00 %
_ Min-Zeit 03:56 01:40 00:00 14:40 03:04 - 01:22 - - - - - - 05:30 06:22 01:24 09:16
Minimum _ 14,6 C 18,9 C 14,4 C 73 % 1012,6 hPa - 0,0 km/h (0 Bft) - - - - - - 13,9 C 11,6 C 0,0 km/h (0 Bft) 88,46 %
_ Max-Zeit 13:50 16:12 12:42 00:00 23:08 00:10 16:50 - - 09:15 11:00 12:40 12:42 16:00 13:50 13:54 00:08
Maximum _ 20,3 C 20,0 C 31,7 C 96 % 1015,6 hPa 0,2 l/m 21,7 km/h
W-NW (4 Bft)
- - 3 min 0,280 mm 4,1 UV-I 958 W/m 16,3 C 20,3 C 27,4 km/h
SW (4 Bft)
100,00 %
Durchschnitt _ 17,1 C 19,3 C 18,2 C 87 % 1013,6 hPa #0,4 l/m 7,2 km/h (2 Bft) W-SW - #3:02 h #1,829 mm 1,6 UV-I 203 W/m 14,8 C 16,3 C 12,9 km/h (3 Bft) 97,47 %